GFSSE_con_sbcape_000.txt.gz
CAPE
587 540 1052 1375 1257 1243 1224 1353 1405 1456 1546 1625 1690 1551 1439 1425 1446 1455 1398 1470 1521 1378 1348 1522 1870 1720 1564 2034 2481 2147 2050 2149 1435 1435 1310 1183 1343 1689 1579 1958 1552 895 997
741 636 1207 1339 1404 1402 1454 1553 1695 1847 1822 1764 1670 1659 1655 1680 1637 1366 1388 1487 1623 1541 1679 1725 1964 2133 2291 2503 2291 2160 2321 2165 2261 1752 1652 1686 1387 1468 1519 1711 1607 715 732
715 766 1013 1401 1540 1517 1601 1951 2047 2092 2036 1843 1791 1707 1751 1706 1540 1426 1426 1509 1471 1500 1661 1747 1878 1963 1819 1869 1735 1926 2020 2166 1920 2038 2127 990 835 1378 1132 1166 1780 1704 1398
1009 1103 1233 1500 1652 1758 1877 1899 1962 1961 1893 1889 1913 1905 1736 1662 1481 1311 1196 1466 1311 1296 1334 1379 1259 1869 1748 1514 1593 1591 1632 1742 1862 1920 1365 619 1039 1128 1334 1592 1845 1949 1531
1496 1398 1642 1767 1755 1937 2169 2110 1994 2193 2121 2109 2078 1917 1651 1340 1069 967 1036 1155 944 927 1005 1064 949 825 880 1169 1333 1532 1580 1647 1646 1329 974 935 526 378 717 1300 1651 1849 1584
1186 1451 1378 1596 1813 2137 2155 2117 2097 1963 1948 1967 1938 1721 1419 1165 918 805 773 528 391 351 479 580 683 895 1053 1161 1207 1122 1183 1358 1496 775 455 757 41 119 832 1209 1752 1777 1551
969 1340 1495 1477 1668 1837 1897 1843 1873 1816 1750 1651 1464 1309 1195 982 637 464 354 264 166 125 109 106 104 192 335 475 586 780 960 1022 762 453 799 235 14 211 672 769 1014 1114 1164
591 1014 1062 1457 1497 1523 1540 1505 1452 1404 1434 1466 1361 989 967 705 464 349 247 158 75 58 38 13 2 6 38 92 167 382 450 535 357 455 934 760 154 2 540 881 992 736 394
206 231 535 737 913 1042 1016 1116 1132 1218 1228 1028 935 852 752 621 392 189 117 52 7 0 0 0 0 0 0 3 29 99 137 232 160 274 349 417 1004 870 798 1170 1029 682 411
272 372 555 643 592 545 618 843 1044 1051 983 877 746 657 711 554 374 142 136 7 0 0 0 0 0 0 0 0 0 0 0 17 0 141 180 275 684 738 778 905 770 971 699
160 601 627 621 762 1022 559 568 833 972 931 798 795 588 417 692 426 157 31 47 9 0 0 0 0 0 0 0 0 0 0 0 0 0 117 246 199 429 615 548 585 550 751
388 475 1119 936 933 442 88 484 980 626 774 910 832 889 951 731 559 219 283 192 181 125 65 0 0 0 0 0 0 0 0 0 0 0 0 0 0 14 248 423 433 456 431
430 562 1260 1502 1215 842 434 479 544 570 614 1203 1169 900 921 765 1075 762 716 327 294 144 228 2 0 0 0 0 0 0 0 0 0 0 0 0 0 0 0 33 102 205 279
365 436 1424 1402 1438 908 886 389 661 570 536 607 723 887 990 797 760 372 204 12 4 9 18 29 0 0 0 0 0 0 0 0 0 0 0 0 0 0 0 0 0 0 26
446 503 1068 1372 1297 1512 798 1222 1157 894 866 602 696 693 606 483 589 377 144 53 34 12 6 12 0 0 0 0 0 0 0 0 0 0 0 0 0 0 0 0 0 0 0
349 786 1414 1506 1338 790 687 799 1239 944 670 771 291 86 212 278 352 264 113 109 57 36 33 7 0 2 0 0 0 0 0 0 0 0 0 0 0 0 0 0 0 0 0
146 282 1365 1288 573 393 527 733 753 88 21 102 92 84 81 133 168 261 173 151 164 179 112 70 93 51 57 3 0 0 0 0 0 0 0 0 0 0 0 0 0 0 0
390 214 256 1076 657 136 547 172 219 250 182 124 203 178 119 117 149 202 184 196 225 304 176 167 127 83 62 58 39 3 0 0 0 0 0 0 0 0 0 0 24 0 0
115 379 740 265 217 48 196 176 193 166 146 87 29 85 38 31 157 127 110 182 235 186 157 207 161 152 155 143 124 54 28 7 0 0 0 0 0 0 0 0 1 0 0
319 208 664 218 23 62 146 179 42 34 60 57 26 0 0 12 16 63 49 121 259 172 113 164 262 148 154 145 144 118 97 52 16 4 0 0 0 0 0 0 0 0 0
396 200 488 300 271 145 165 22 0 0 0 0 0 0 0 2 0 0 0 0 0 0 33 54 38 36 39 123 135 127 90 117 219 78 22 26 8 0 0 0 0 0 0
409 197 141 23 0 0 0 0 0 0 0 0 0 0 0 0 0 0 0 1 0 0 0 21 72 15 0 0 64 62 6 0 45 81 117 131 17 13 0 0 0 0 0
62 37 0 0 0 0 0 0 0 0 0 0 0 0 0 0 0 0 0 0 0 0 0 0 2 2 3 0 0 31 10 5 2 5 22 53 79 111 48 7 2 5 3
5 1 0 0 0 0 0 0 0 0 0 0 0 0 0 0 0 0 0 0 0 0 0 0 0 3 0 0 0 0 0 0 3 0 3 1 0 92 64 38 4 2 4
0 4 0 0 0 0 0 0 0 0 0 0 0 0 0 0 0 0 0 0 0 0 0 1 5 21 12 2 0 0 0 0 0 0 0 0 0 0 0 0 0 0 0
0 0 0 0 0 0 0 0 0 0 0 0 0 0 0 0 0 0 0 0 0 0 6 20 12 5 0 0 0 3 0 0 3 1 2 0 1 0 0 0 0 0 0

GFSSE_con_sbcape_003.txt.gz
CAPE
393 751 946 1059 1077 1090 1135 1160 1166 1274 1424 1412 1296 1260 1341 1351 1355 1348 1422 1533 1639 1587 1614 1776 1994 2042 2194 2323 2210 2402 2511 2309 2205 1692 1598 1915 1927 1851 1768 1843 1418 763 1152
501 821 903 1047 1179 1259 1429 1472 1444 1445 1436 1494 1468 1505 1556 1538 1449 1356 1312 1476 1606 1346 1453 1616 1827 1862 1856 1945 1976 2430 2444 2352 2189 2076 1983 1701 1592 1435 1270 1727 1081 699 1139
708 868 974 1007 1212 1510 1750 1739 1788 1707 1701 1654 1613 1697 1659 1436 1249 1101 1218 1504 1377 1235 1378 1326 1534 1788 1627 1511 1689 2005 2116 2111 1947 1793 1865 1237 639 1559 1204 1127 1238 1636 1592
830 1019 1070 1087 1285 1559 1608 1658 1735 1826 1842 1841 1876 1747 1466 1220 999 908 1044 1310 1019 930 1020 932 858 801 875 1097 1315 1744 1986 1948 1920 1782 1224 831 1107 928 501 1391 978 1282 1316
1361 1450 1345 1237 1442 1631 1667 1719 1802 1839 1885 1855 1849 1300 1067 973 851 889 800 832 441 443 587 672 736 840 1002 1170 1321 1408 1419 1591 1540 1379 885 714 519 241 697 1116 1529 1513 1168
1297 1352 1443 1607 1666 1654 1732 1741 1648 1609 1540 1638 1490 1040 1039 834 725 543 355 202 127 128 157 147 130 218 504 734 835 947 1136 1139 1064 568 292 682 598 649 633 943 1417 1277 1398
1202 1365 1393 1516 1600 1715 1838 1744 1557 1467 1399 1379 1371 1316 911 605 427 324 221 104 49 45 32 17 0 5 49 242 286 458 482 471 477 246 404 459 283 304 896 617 783 1169 1056
1239 1264 1393 1328 1259 1284 1353 1292 1188 1229 1285 1227 1166 1082 768 548 452 226 131 41 11 2 0 0 0 0 0 4 92 167 98 141 90 40 525 355 279 396 81 738 1102 1129 758
905 887 888 971 933 807 846 869 908 963 940 913 914 916 791 576 387 281 145 17 0 0 0 0 0 0 0 0 17 44 11 30 0 0 628 417 831 779 794 1089 1770 1359 1184
335 498 486 436 398 370 566 655 698 749 678 575 615 659 555 444 209 225 119 46 0 0 0 0 0 0 0 0 0 0 0 20 0 0 70 404 1340 1082 1049 1141 1505 1696 1588
120 285 266 217 156 187 293 619 666 733 642 503 550 480 401 352 214 102 84 63 75 23 7 0 0 0 0 0 0 0 0 0 0 0 0 433 480 471 730 800 1018 1107 1051
40 175 205 107 479 124 241 309 304 500 517 507 522 367 259 381 312 98 72 155 172 124 170 108 63 0 0 0 0 0 0 0 0 0 0 40 89 47 215 671 823 813 802
17 303 347 150 34 38 176 139 377 331 395 426 443 257 356 143 197 114 149 212 88 146 98 95 27 0 0 0 0 0 0 0 0 0 0 1 2 0 0 56 423 587 742
8 502 475 484 222 61 0 0 0 89 113 450 605 408 321 127 15 13 0 0 8 55 85 55 1 0 0 0 0 0 0 0 0 0 0 0 0 0 0 22 85 112 188
9 633 583 527 411 241 107 64 50 103 55 65 228 209 96 69 26 13 15 0 0 0 0 0 0 0 0 0 0 0 0 0 0 0 0 0 0 0 0 0 0 3 52
3 789 509 439 643 481 79 254 299 59 57 167 8 16 53 12 54 37 11 20 0 0 0 0 0 0 0 0 0 0 0 0 0 0 0 0 0 0 0 0 0 0 8
2 574 360 679 718 24 117 169 361 0 0 0 0 0 0 7 19 17 7 11 13 17 41 3 5 0 0 0 0 0 0 0 0 0 0 0 0 0 0 3 0 0 26
300 967 397 241 571 96 15 27 13 1 0 5 0 0 0 0 0 0 0 0 6 25 16 0 1 15 5 0 0 3 0 0 0 0 0 0 0 0 0 0 21 48 71
0 307 101 0 139 60 0 1 3 0 0 0 0 0 0 0 0 0 0 0 0 0 0 0 1 2 5 0 0 7 3 0 0 0 0 0 0 0 0 0 0 22 108
1 313 36 26 49 0 0 0 0 0 0 0 0 0 0 0 0 0 0 0 0 0 0 0 0 0 0 0 26 14 31 43 20 0 0 0 0 0 0 0 0 0 26
3 0 0 0 0 0 0 0 0 0 0 0 0 0 0 0 0 0 0 0 0 0 0 0 0 0 0 0 0 0 0 0 0 0 17 23 0 0 0 0 0 0 0
0 0 0 0 0 0 0 0 0 0 0 0 0 0 0 0 0 0 0 0 0 0 0 0 0 0 0 0 0 0 0 0 0 0 0 0 0 0 18 3 0 0 0
0 0 0 0 0 0 0 0 0 0 0 0 0 0 0 0 0 0 0 0 0 0 0 0 0 0 0 0 0 0 0 0 0 0 0 0 0 0 0 0 0 0 0
0 0 0 0 0 0 0 0 0 0 0 0 0 0 0 0 0 0 0 0 0 0 0 0 0 0 0 0 0 0 0 0 0 0 0 0 0 0 0 0 0 0 0
0 0 0 0 0 0 0 0 0 0 0 0 0 0 0 0 0 0 0 0 0 0 0 0 0 0 0 0 0 0 0 0 0 0 0 0 0 0 0 0 0 0 0
0 0 0 0 0 0 0 0 0 0 0 0 0 0 0 0 0 0 0 0 0 0 0 0 0 0 0 2 16 0 13 1 0 0 0 0 0 0 0 0 0 0 0

GFSSE_con_sbcape_006.txt.gz
CAPE
541 667 756 969 1039 1018 964 972 1106 1106 1046 1030 1129 1130 1104 1036 1066 1162 1246 1368 1358 1281 1218 1379 1401 1562 2022 2040 1946 1863 2018 2140 2052 1638 1608 1892 1264 1143 1543 1848 1142 1065 1497
601 638 739 962 1120 1213 1141 1111 1178 1181 1235 1186 1328 1253 1282 1100 891 817 943 1085 1118 1017 1031 1131 1328 1351 1340 1261 1351 1544 1711 1775 1678 1629 1518 1286 1225 1106 1283 1324 1058 1095 1474
684 671 744 963 1322 1456 1454 1433 1421 1462 1419 1303 1229 1170 1025 861 684 728 842 968 833 750 649 695 721 677 804 951 1070 1275 1388 1594 1518 1427 1362 772 534 1171 1004 874 1035 1300 1564
686 701 749 1095 1349 1483 1534 1606 1548 1543 1459 1458 1249 1104 932 712 670 649 610 829 504 422 437 552 657 668 705 797 848 898 996 1227 1226 1252 617 728 1159 799 460 1276 1343 1258 1342
775 802 937 1101 1255 1380 1458 1583 1613 1644 1615 1455 1219 964 781 666 570 387 322 313 173 180 168 171 202 275 425 538 630 723 764 810 897 552 290 583 211 404 894 1205 1230 1446 1287
1078 933 984 1222 1313 1434 1505 1470 1463 1421 1362 1178 1038 890 678 540 354 220 122 54 36 26 39 26 17 18 61 147 193 198 228 333 506 80 311 617 395 833 884 1131 1321 1311 1374
996 1188 1194 1255 1386 1480 1529 1409 1298 1250 1190 1219 1206 944 533 384 243 126 66 18 3 0 3 0 0 0 0 2 18 59 93 88 7 0 57 358 210 466 744 955 692 1133 1291
926 1202 1430 1336 1387 1420 1373 1183 1031 991 1051 1104 1073 889 489 332 275 112 35 3 0 0 0 0 0 0 0 0 0 35 16 32 0 0 61 250 346 798 487 922 1221 1219 1193
1070 1108 1026 1025 1019 939 866 771 816 939 882 924 934 769 570 333 303 160 58 0 0 0 0 0 0 0 0 0 0 0 0 1 0 0 20 178 303 1117 916 640 1172 1425 1516
779 736 584 563 479 489 569 659 637 572 518 581 617 461 277 161 130 153 77 35 4 0 0 0 0 0 0 0 0 0 0 0 0 0 0 30 1104 1354 1294 1245 1690 1725 1794
402 319 232 230 178 263 337 477 613 575 424 371 428 401 234 147 2 8 72 6 99 21 24 35 50 8 0 0 0 0 0 0 0 0 0 24 675 704 739 783 964 1262 1254
202 164 28 20 21 90 308 395 225 338 236 240 267 251 205 205 172 43 39 182 165 106 137 185 165 125 49 0 0 0 0 0 0 0 0 11 264 395 105 117 738 931 960
126 245 103 183 67 0 88 21 70 189 176 244 342 299 210 288 28 196 14 11 21 9 37 56 39 8 0 0 0 0 0 0 0 0 0 0 84 61 71 24 6 334 719
228 138 28 82 108 0 9 34 75 133 231 337 306 132 39 8 0 0 0 2 0 0 2 19 22 3 0 0 0 0 0 0 0 0 0 0 34 61 44 0 0 90 236
291 237 104 18 9 0 0 0 11 58 184 256 235 112 0 6 0 0 0 0 0 0 0 0 0 0 0 0 0 0 0 0 0 0 0 0 24 65 48 1 0 0 11
450 274 241 255 200 20 33 3 22 5 1 30 101 41 4 0 2 0 0 0 0 0 0 0 0 0 0 0 0 0 0 0 0 0 0 0 11 50 83 8 0 5 0
557 390 530 511 88 29 6 84 49 0 0 0 0 0 0 0 0 0 0 0 0 0 0 0 0 0 0 0 0 0 0 0 0 0 0 0 0 1 6 47 121 117 53
497 536 470 67 299 2 6 0 0 0 0 0 0 0 0 0 0 0 0 0 0 0 0 0 0 0 0 0 0 0 0 0 0 0 0 0 0 0 0 11 48 111 163
520 432 42 146 172 22 0 0 0 0 0 0 0 0 0 0 0 0 0 0 0 0 0 0 0 0 0 0 0 0 0 0 0 0 0 0 0 0 0 0 3 34 102
125 13 7 34 40 0 0 0 0 0 0 0 0 0 0 0 0 0 0 0 0 0 0 0 0 0 0 0 0 0 0 0 0 0 0 0 0 0 0 0 0 0 6
0 0 0 0 0 0 0 0 0 0 0 0 0 0 0 0 0 0 0 0 0 0 0 0 0 0 0 0 0 0 0 0 0 0 0 0 0 0 0 0 0 0 0
0 0 0 0 0 0 0 0 0 0 0 0 0 0 0 0 0 0 0 0 0 0 0 0 0 0 0 0 0 0 0 0 0 0 0 0 0 0 0 0 0 0 0
0 0 0 0 0 0 0 0 0 0 0 0 0 0 0 0 0 0 0 0 0 0 0 0 0 0 0 0 0 0 0 0 0 0 0 0 0 0 0 0 0 0 0
0 0 0 0 0 0 0 0 0 0 0 0 0 0 0 0 0 0 0 0 0 0 0 0 0 0 0 0 0 0 0 0 0 0 0 0 0 0 0 0 0 0 1
0 0 0 0 0 0 0 0 0 0 0 0 0 0 0 0 0 0 0 0 0 0 0 0 0 0 0 0 0 0 0 0 4 0 0 0 0 0 0 0 0 0 0
0 0 0 0 0 0 0 0 0 0 0 0 0 0 0 0 0 0 0 0 0 0 0 0 0 0 0 0 0 0 0 2 1 1 0 0 0 0 0 0 0 0 0

GFSSE_con_sbcape_009.txt.gz
CAPE
560 591 773 1063 953 949 989 953 871 827 876 853 751 790 793 758 782 926 1022 1155 1162 858 892 914 927 1015 1071 1181 1345 1445 1458 1521 1600 1492 1352 1490 1082 808 1351 1689 837 1233 1443
538 565 764 987 1026 1035 1101 1072 992 988 1086 872 869 885 817 691 663 706 725 710 587 421 454 546 629 765 752 760 921 1044 1145 1366 1291 1285 1073 983 1078 1222 1099 1426 1273 1257 1516
549 588 731 996 1135 1126 1229 1234 1216 1231 1014 1004 971 897 756 617 615 622 556 452 268 255 266 335 383 384 364 438 549 772 860 942 1191 1267 1245 371 363 1170 1154 1606 1060 1337 1460
544 575 848 1105 1281 1331 1319 1368 1384 1202 1137 1097 1005 898 688 610 487 415 347 454 218 181 137 106 115 136 177 269 382 520 571 583 676 872 129 306 908 966 513 973 1339 1126 1280
552 655 1060 1117 1276 1436 1473 1517 1456 1461 1411 1241 1054 812 651 520 330 198 157 170 84 56 30 18 5 5 12 23 29 30 47 100 411 51 18 146 196 415 764 809 1031 1303 1420
620 756 870 1014 1195 1432 1508 1504 1467 1394 1101 1024 1007 686 588 414 236 103 58 21 8 3 0 0 0 0 0 0 0 0 0 0 2 0 0 88 428 578 982 832 1173 1237 1359
763 871 884 1026 1176 1311 1403 1331 1316 1129 981 1027 915 701 517 368 192 68 20 4 0 0 0 0 0 0 0 0 0 0 1 8 0 0 0 0 48 615 807 873 973 980 1333
1089 1243 1050 1104 1132 1191 1246 1092 1006 939 989 1027 937 679 459 342 239 81 8 0 0 0 0 0 0 0 0 0 0 0 0 0 0 0 0 45 201 816 1069 634 1105 1268 1353
856 926 1203 1234 1140 1063 929 762 653 705 800 843 806 699 528 359 203 141 27 0 0 0 0 0 0 0 0 0 0 0 0 0 0 0 0 0 397 981 1285 1080 1290 1286 1321
785 735 657 719 644 564 561 570 562 546 533 642 621 420 184 95 87 97 32 18 14 0 0 1 0 0 0 0 0 0 0 0 0 0 0 0 405 927 843 997 1096 1301 1674
555 460 377 357 293 220 244 400 513 502 411 408 396 281 113 9 0 6 73 57 90 70 40 83 110 111 52 22 0 0 0 0 0 0 0 0 279 620 675 648 952 930 1037
348 282 139 108 65 78 320 324 164 221 148 123 101 135 90 85 52 34 27 154 246 228 255 242 280 230 201 2 0 0 0 0 0 0 0 0 0 69 433 405 475 508 719
106 143 20 1 18 61 129 95 37 87 65 81 160 95 97 136 59 30 18 0 0 23 5 32 32 21 3 0 0 0 0 0 0 0 0 0 0 40 131 114 380 45 338
93 75 29 6 1 0 0 0 2 45 74 115 205 226 60 15 0 0 0 0 0 0 0 0 0 0 0 0 0 0 0 0 0 0 0 0 0 0 1 0 46 133 177
172 189 144 137 8 0 0 0 17 82 243 287 169 112 16 0 0 0 0 0 0 0 0 0 0 0 0 0 0 0 0 0 0 0 0 0 0 0 0 19 50 40 103
268 213 27 143 13 0 0 5 12 42 148 208 129 28 0 0 0 0 0 0 0 0 0 0 0 0 0 0 0 0 0 0 0 0 0 0 0 0 10 24 45 80 67
256 205 90 16 4 0 0 0 0 1 0 12 0 0 0 0 0 0 0 0 0 0 0 0 0 0 0 0 0 0 0 0 0 0 0 0 0 0 0 0 39 209 205
259 291 66 73 0 0 0 0 0 0 0 0 0 0 0 0 0 0 0 0 0 0 0 0 0 0 0 0 0 0 0 0 0 0 0 0 0 0 0 0 0 0 9
244 59 5 19 0 0 0 0 0 0 0 0 0 0 0 0 0 0 0 0 0 0 0 0 0 0 0 0 0 0 0 0 0 0 0 0 0 0 0 0 0 0 0
0 0 0 0 0 0 0 0 0 0 0 0 0 0 0 0 0 0 0 0 0 0 0 0 0 0 0 0 0 0 0 0 0 0 0 0 0 0 0 0 0 0 0
0 0 0 0 0 0 0 0 0 0 0 0 0 0 0 0 0 0 0 0 0 0 0 0 0 0 0 0 0 0 0 0 0 0 0 0 0 0 0 0 0 0 0
0 0 0 0 0 0 0 0 0 0 0 0 0 0 0 0 0 0 0 0 0 0 0 0 0 0 0 0 0 0 0 0 0 0 0 0 0 0 0 0 0 0 0
0 0 0 0 0 0 0 0 0 0 0 0 0 0 0 0 0 0 0 0 0 0 0 0 0 0 0 0 0 0 2 0 0 0 0 0 0 0 0 0 0 0 0
0 0 0 0 0 0 0 0 0 0 0 0 0 0 0 0 0 0 0 0 0 0 0 0 0 0 0 0 0 0 0 0 2 1 0 0 0 0 0 0 0 0 0
0 0 0 0 0 0 0 0 0 0 0 0 0 0 0 0 0 0 0 0 0 0 0 0 0 0 0 0 0 0 0 0 0 2 2 0 0 0 0 0 0 0 0
0 0 0 0 0 0 0 0 0 0 0 0 0 0 0 0 0 0 0 0 0 0 0 0 0 0 0 0 0 0 0 17 26 31 18 1 2 0 0 0 0 0 0

GFSSE_con_sbcape_012.txt.gz
CAPE
453 543 824 1041 1042 991 858 737 714 797 869 840 746 705 719 637 630 691 772 863 725 433 463 552 663 693 680 701 784 867 1009 991 1219 1283 1407 904 1053 977 1196 1276 1157 1193 1549
510 625 815 926 1045 1053 954 825 862 986 968 785 795 714 645 535 526 519 389 497 401 180 226 266 312 366 415 463 538 645 695 751 951 1004 976 562 693 921 849 1076 1093 1283 1499
560 684 718 845 1071 1172 1076 975 1161 1097 905 861 842 688 518 459 392 320 238 433 189 97 102 97 108 126 171 210 248 319 336 335 440 506 445 61 84 1183 1038 1125 962 1198 1320
539 600 774 919 1101 1191 1114 1173 1259 1157 1005 914 834 625 507 391 258 148 183 334 73 26 15 4 3 0 4 5 4 4 2 2 47 57 0 1 109 1032 850 731 964 1081 1187
504 768 972 1015 1095 1227 1280 1314 1304 1323 1251 1055 840 613 484 279 130 70 64 127 4 0 0 0 0 0 0 0 0 0 0 0 0 0 0 0 184 153 867 873 897 988 1179
528 686 902 1042 1180 1380 1458 1456 1390 1285 1131 1056 853 585 422 242 68 23 6 0 0 0 0 0 0 0 0 0 0 0 0 0 0 0 0 0 0 519 1015 1223 993 933 1170
652 670 794 1036 1212 1367 1487 1433 1323 1054 914 968 844 701 398 241 69 4 0 0 0 0 0 0 0 0 0 0 0 0 0 0 0 0 0 0 0 766 1071 1033 965 791 828
874 844 810 945 1035 1120 1263 1221 1020 893 902 892 795 656 402 296 152 0 0 0 0 0 0 0 0 0 0 0 0 0 0 0 0 0 0 0 89 797 1028 949 1268 930 751
1054 1076 870 891 937 971 945 859 779 781 816 793 716 629 499 285 127 34 23 10 0 0 17 18 47 33 2 6 14 8 0 0 0 0 0 0 93 567 768 577 1030 1294 1062
744 718 722 761 899 685 631 607 495 533 598 636 615 455 170 98 13 8 0 11 78 23 32 107 93 126 103 77 33 25 0 0 0 0 0 0 2 213 615 638 650 859 955
747 734 638 655 520 353 258 398 528 530 487 466 438 323 94 0 0 0 22 71 138 160 191 205 242 235 184 47 9 22 10 0 0 0 0 0 0 0 13 352 829 696 693
587 465 340 280 233 104 312 277 128 150 154 169 162 170 14 5 0 13 21 58 102 182 231 246 262 235 90 0 0 0 0 0 0 0 0 0 0 0 0 109 633 588 427
516 427 210 86 10 29 166 60 0 37 23 36 69 62 55 73 23 0 0 0 0 0 0 0 0 0 0 0 0 0 0 0 0 0 0 0 0 0 0 0 166 336 377
141 204 122 12 0 0 0 2 0 10 18 61 136 130 73 20 0 0 0 0 0 0 0 0 0 0 0 0 0 0 0 0 0 0 0 0 0 0 0 0 5 249 375
40 41 5 0 0 0 0 0 0 17 88 105 148 111 3 0 0 0 0 0 0 0 0 0 0 0 0 0 0 0 0 0 0 0 0 0 0 0 0 0 0 0 36
62 40 10 1 0 0 0 0 0 1 69 132 70 9 0 0 0 0 0 0 0 0 0 0 0 0 0 0 0 0 0 0 0 0 0 0 0 0 0 0 0 0 0
17 3 0 0 0 0 0 0 0 0 1 1 0 0 0 0 0 0 0 0 0 0 0 0 0 0 0 0 0 0 0 0 0 0 0 0 0 0 0 0 0 0 0
13 34 2 0 0 0 0 0 0 0 0 0 0 0 0 0 0 0 0 0 0 0 0 0 0 0 0 0 0 0 0 0 0 0 0 0 0 0 0 0 0 0 0
8 9 0 0 0 0 0 0 0 0 0 0 0 0 0 0 0 0 0 0 0 0 0 0 0 0 0 0 0 0 0 0 0 0 0 0 0 0 0 0 0 0 0
0 0 0 0 0 0 0 0 0 0 0 0 0 0 0 0 0 0 0 0 0 0 0 0 0 0 0 0 0 0 0 0 0 0 0 0 0 0 0 0 0 0 0
0 0 0 0 0 0 0 0 0 0 0 0 0 0 0 0 0 0 0 0 0 0 0 0 0 0 0 0 0 0 0 0 0 0 0 0 0 0 0 0 0 0 0
0 0 0 0 0 0 0 0 0 0 0 0 0 0 0 0 0 0 0 0 0 0 0 0 0 0 0 0 0 0 0 0 0 0 0 0 0 0 0 0 0 0 0
0 0 0 0 0 0 0 0 0 0 0 0 0 0 0 0 0 0 0 0 0 0 0 0 0 0 0 0 0 0 0 0 0 0 0 0 0 0 0 0 0 0 0
0 0 0 0 0 0 0 0 0 0 0 0 0 0 0 0 0 0 0 0 0 0 0 0 0 0 0 0 0 0 0 0 3 2 0 0 0 0 0 0 0 0 0
0 0 0 0 0 0 0 0 0 0 0 0 0 0 0 0 0 0 0 0 0 0 0 0 0 0 0 0 0 0 0 0 0 35 8 0 6 0 0 0 0 0 0
0 0 0 0 0 0 0 0 0 0 0 0 0 0 0 0 0 0 0 0 0 0 0 0 0 0 0 0 0 0 0 0 0 10 12 0 0 0 0 0 0 0 0

GFSSE_con_sbcape_015.txt.gz
CAPE
662 635 786 722 911 774 695 668 697 767 858 826 674 598 603 497 527 624 636 520 448 183 231 297 336 366 415 435 467 465 497 496 562 746 853 658 680 922 845 1087 1158 603 1401
810 820 751 771 991 818 770 762 835 939 923 647 566 507 554 437 384 382 452 436 370 124 144 165 133 119 123 138 134 125 133 179 237 306 345 301 368 1064 970 1172 1265 844 1288
965 1006 719 678 1041 912 886 1036 1138 1091 784 706 588 445 404 321 233 179 265 358 214 27 14 0 0 0 0 0 0 0 0 7 13 38 89 244 278 1066 964 1219 1326 1287 1049
1046 1015 712 722 1043 1024 1003 1221 1251 1068 876 782 575 449 334 215 148 141 120 252 100 0 0 0 0 0 0 0 0 0 0 0 0 0 30 152 486 455 895 806 687 732 820
1071 989 811 830 1027 1112 1237 1353 1337 1272 1160 981 706 456 276 108 59 45 71 114 1 0 0 0 0 0 0 0 0 0 0 0 0 0 8 357 497 575 850 897 649 622 849
917 952 725 845 1069 1287 1415 1499 1414 1251 1108 946 781 523 274 80 15 2 24 15 0 0 0 0 0 0 0 0 0 0 0 0 0 0 8 295 517 814 1001 1019 1039 667 801
1030 1065 986 994 1108 1421 1685 1573 1351 1123 1013 902 830 685 381 110 2 0 0 0 0 0 0 0 0 0 0 2 0 0 0 0 0 0 0 5 363 796 850 695 1054 895 680
1029 1333 1324 1091 1249 1441 1494 1297 971 885 915 802 772 654 356 188 75 7 0 0 0 0 0 0 0 0 0 0 0 5 0 0 0 0 0 0 68 420 758 579 1145 1221 974
1160 1174 1323 1438 1271 1084 1051 962 787 781 772 729 655 595 450 212 77 112 116 47 0 67 114 85 60 68 27 49 10 0 0 0 0 0 0 0 0 36 395 653 769 808 723
1169 1237 1212 1215 1132 1198 1209 767 712 646 601 597 533 393 166 50 8 32 0 82 161 170 143 173 211 223 173 79 41 11 0 0 0 0 0 0 0 0 0 39 444 471 442
937 983 892 794 776 1079 979 744 533 538 492 466 443 215 48 85 125 112 42 70 178 170 260 311 288 258 197 21 0 9 0 0 0 0 0 0 0 0 0 30 596 768 642
928 826 776 762 719 942 657 617 523 369 336 337 383 478 256 255 272 228 150 30 30 69 71 19 38 35 6 34 0 0 0 0 0 0 0 0 0 0 0 33 156 327 440
905 655 622 599 685 692 547 517 297 259 234 313 463 467 450 461 484 407 395 104 52 0 0 0 7 2 0 0 0 0 0 0 0 0 0 0 0 0 0 0 3 87 300
717 830 828 780 530 391 324 340 145 186 263 374 501 509 577 580 318 132 15 3 0 0 0 0 0 0 0 0 0 0 0 0 0 0 0 0 0 0 0 0 0 0 0
554 639 641 326 239 177 165 174 154 281 385 474 599 660 511 335 102 26 2 0 0 0 0 0 0 0 0 0 0 0 0 0 0 0 0 0 0 0 0 0 0 0 0
312 439 311 229 70 39 94 158 216 268 258 249 202 152 176 108 49 1 0 0 0 0 0 0 0 0 0 0 0 0 0 0 0 0 0 0 0 0 0 0 0 0 0
299 344 332 52 16 53 92 3 11 1 1 2 6 0 0 0 0 0 0 0 0 0 0 0 0 0 0 0 0 0 0 0 0 0 0 0 0 0 0 0 0 0 0
359 508 360 90 27 0 0 0 0 0 0 0 0 0 0 0 0 0 0 0 0 0 0 0 0 0 0 0 0 0 0 0 0 0 0 0 0 0 0 0 0 0 0
447 355 311 209 18 0 0 0 0 0 0 0 0 0 0 0 0 0 0 0 0 0 0 0 0 0 0 0 0 0 0 0 0 0 0 0 0 0 0 0 0 0 0
187 220 118 2 0 0 0 0 0 0 0 0 0 0 0 0 0 0 0 0 0 0 0 0 0 0 0 0 0 0 0 0 0 0 0 0 0 0 0 0 0 0 0
10 7 0 0 0 0 0 0 0 0 0 0 0 0 0 0 0 0 0 0 0 0 0 0 0 0 0 0 0 0 0 0 0 0 0 0 0 0 0 0 0 0 0
41 1 0 0 0 0 0 0 0 0 0 0 0 0 0 0 0 0 0 0 0 0 0 0 0 0 0 0 0 0 0 0 0 0 0 0 0 0 0 0 0 0 0
0 0 0 0 0 0 0 0 0 0 0 0 0 0 0 0 0 0 0 0 0 0 0 0 0 0 0 0 0 0 0 0 2 0 0 0 7 3 1 1 0 0 1
0 0 0 0 0 0 0 0 0 0 0 0 0 0 0 0 0 0 0 0 0 0 0 0 0 0 0 0 0 1 0 5 3 0 0 5 6 0 8 12 7 2 3
0 0 0 0 0 0 0 0 0 0 0 0 0 0 0 0 0 0 0 0 0 0 0 0 0 0 0 0 0 0 0 0 2 28 1 0 0 5 17 4 11 9 0
0 0 0 0 0 0 0 0 0 0 0 0 0 0 0 0 0 0 0 0 0 0 0 0 0 0 0 0 0 0 0 0 0 14 21 4 0 0 1 4 3 0 0

GFSSE_con_sbcape_018.txt.gz
CAPE
677 559 823 907 880 776 687 691 745 821 869 742 572 524 504 437 416 447 449 431 394 196 246 290 284 275 224 202 164 148 145 164 254 325 405 354 685 865 929 781 1189 451 1156
761 513 670 886 890 799 794 836 908 954 899 562 467 450 420 337 328 412 419 398 255 43 16 2 1 0 0 0 0 0 1 1 36 65 220 319 1073 1010 911 837 1358 834 927
852 731 521 818 858 836 925 1052 1110 1010 710 553 420 382 270 201 200 167 299 269 26 0 0 0 0 0 0 0 0 0 0 0 0 0 94 161 383 899 940 860 908 709 736
1011 773 634 755 888 981 1143 1197 1230 1051 794 549 401 317 180 170 131 88 57 121 6 0 0 0 0 0 0 0 0 0 0 0 0 0 6 382 423 709 632 643 464 723 756
995 1032 962 808 927 1128 1087 1138 1199 1301 1100 796 603 308 141 103 56 22 10 36 0 0 0 0 0 0 0 0 0 0 0 0 0 0 0 270 540 719 740 557 618 652 506
1118 1107 611 741 878 1044 1235 1282 1491 1309 1014 839 700 419 113 42 7 0 0 18 0 0 0 0 0 0 0 0 0 0 0 0 0 0 1 57 401 842 850 728 718 531 447
967 1173 949 767 711 923 1025 1663 1410 1147 947 875 781 587 222 4 0 0 0 0 1 0 0 0 0 0 0 0 0 0 0 0 0 0 0 0 8 327 710 628 598 313 227
1108 1272 1085 683 730 961 1602 1318 1018 944 898 869 699 522 175 23 25 0 0 0 0 0 0 0 0 0 10 5 0 0 0 0 0 0 0 0 8 48 330 605 657 491 239
1369 1357 1129 889 944 1194 1073 869 737 812 772 739 683 592 359 181 210 129 50 0 0 12 15 46 62 111 124 58 1 0 0 0 0 0 0 0 0 0 0 5 326 379 200
1366 1377 1249 1340 1268 1232 1176 753 647 670 591 572 559 354 163 65 79 55 55 158 136 122 143 147 160 186 182 103 9 9 0 0 0 0 0 0 0 0 0 0 3 99 176
1199 1229 1248 1015 1076 1054 931 921 539 545 520 424 362 164 63 153 215 141 52 110 165 158 186 133 146 143 97 112 0 0 1 0 0 0 0 0 0 0 0 0 144 328 223
1052 1063 854 998 981 1212 658 619 379 140 71 300 361 438 373 559 509 339 166 16 23 6 0 0 3 5 26 0 0 0 0 0 0 0 0 0 0 0 0 8 0 79 362
907 817 816 897 922 832 544 341 74 128 352 652 771 775 852 847 838 427 182 102 114 0 16 1 0 0 0 0 0 0 0 0 0 0 0 0 0 0 0 21 28 47 60
912 871 709 810 1015 739 350 124 186 247 582 764 953 1113 1159 1027 795 378 108 137 135 57 6 0 0 0 0 0 0 0 0 0 0 0 0 0 0 0 0 0 0 0 1
511 687 934 801 729 583 371 347 451 704 773 1066 1084 1191 1161 949 782 281 262 109 22 1 0 0 0 0 0 0 0 0 0 0 0 0 0 0 0 0 0 0 0 0 0
413 768 864 585 486 364 533 663 814 852 760 834 983 913 383 420 654 434 166 8 0 2 0 0 0 0 0 0 0 0 0 0 0 0 0 0 0 0 0 0 0 0 0
410 774 810 693 522 643 359 62 3 7 104 264 270 33 3 30 35 2 0 0 0 0 0 0 0 0 0 0 0 0 0 0 0 0 0 0 0 0 0 0 0 0 0
527 860 975 715 678 113 2 0 0 0 0 31 29 12 0 0 0 0 1 0 0 0 0 0 0 0 0 0 0 0 0 0 0 0 0 0 0 0 0 0 0 0 0
786 1135 1081 942 604 365 0 0 0 0 0 0 0 0 0 0 0 0 0 0 0 0 0 0 0 0 0 0 0 0 0 0 0 0 13 2 0 0 0 0 0 0 0
962 1212 1181 745 524 142 0 0 0 0 0 0 0 0 0 0 0 0 0 0 0 0 0 0 0 0 0 1 0 0 0 0 0 2 15 1 0 2 0 0 0 0 0
1001 1095 1009 549 393 275 129 24 0 3 0 0 0 0 0 0 0 0 0 0 0 0 0 0 0 0 0 1 0 0 0 0 10 11 11 10 10 6 1 1 0 0 0
1001 966 867 640 355 121 51 46 43 13 0 0 0 0 0 0 0 0 0 0 0 0 0 0 0 0 1 19 29 7 0 0 0 17 10 3 7 12 12 7 7 4 1
827 874 654 277 36 12 3 0 0 0 0 0 0 0 0 0 0 0 0 0 0 0 0 1 0 1 2 7 10 8 5 1 0 0 7 3 8 6 7 5 8 8 9
303 16 0 0 0 0 0 0 0 0 0 0 0 0 0 0 0 0 0 0 0 0 1 6 1 0 0 0 0 0 1 2 6 4 3 18 1 0 5 3 8 1 1
0 0 0 0 0 0 0 0 0 0 0 0 0 0 0 0 0 0 0 0 0 3 5 0 0 0 1 10 8 1 0 0 1 8 5 2 2 4 6 8 5 10 6
0 0 0 0 0 0 0 0 0 0 0 0 0 0 0 0 0 0 2 9 12 11 9 0 0 4 9 1 0 0 2 2 5 9 10 11 6 1 14 15 17 21 15

GFSSE_con_sbcape_021.txt.gz
CAPE
330 128 691 794 758 697 645 660 706 789 806 608 464 437 381 317 395 481 475 476 424 165 123 74 33 13 5 0 0 1 10 28 82 154 232 531 905 940 872 751 1039 387 923
339 144 623 810 792 750 779 802 863 890 718 455 418 350 329 392 404 391 380 305 102 0 0 0 0 0 0 0 0 0 0 0 0 34 238 633 844 924 845 689 737 510 642
508 192 315 773 851 876 935 1051 1079 841 495 390 362 246 212 205 187 141 212 179 3 0 0 0 0 0 0 0 0 0 0 0 0 0 191 431 615 661 458 955 774 691 651
560 190 245 761 929 1062 1162 1253 1163 767 491 394 289 198 187 146 93 47 11 84 0 0 0 0 0 0 0 0 0 0 0 0 0 188 10 0 456 525 367 576 488 431 524
674 408 431 782 986 1182 1064 1165 1128 1046 742 649 421 165 146 41 6 0 0 65 0 0 0 0 0 0 0 0 0 0 0 0 24 19 22 0 126 723 665 410 483 589 424
561 451 490 764 962 974 995 1286 1321 1005 809 685 543 176 26 0 0 0 3 27 0 0 0 0 0 0 0 0 0 0 0 0 0 0 1 36 48 567 646 375 238 99 336
390 422 577 640 721 890 1163 1277 1231 932 872 764 567 316 53 0 0 0 13 15 0 0 0 0 0 0 0 0 0 0 0 0 0 0 0 0 1 139 635 609 448 269 80
243 512 627 663 606 686 937 1167 989 861 845 751 597 335 18 6 0 0 0 0 18 18 6 0 13 61 63 42 23 0 0 11 0 0 0 0 2 0 0 76 420 289 123
24 702 812 620 585 727 808 714 707 742 740 706 621 435 155 136 117 64 43 38 34 48 70 98 122 152 169 97 19 18 13 40 0 0 0 0 0 0 0 0 7 71 100
12 880 1124 1076 918 1089 959 605 646 612 599 610 366 287 135 116 50 52 123 170 205 140 273 286 243 226 197 121 0 0 24 61 0 0 14 0 0 3 0 0 0 0 55
976 1124 1113 913 910 930 928 751 582 627 566 468 190 124 16 99 171 83 86 113 130 118 106 29 77 138 181 204 30 0 0 0 0 0 2 0 0 7 36 9 11 5 55
933 846 845 1042 890 843 545 546 207 35 5 261 238 144 323 324 468 242 139 106 63 0 31 0 33 130 110 0 0 3 0 0 0 0 0 0 0 21 104 85 96 116 113
781 908 972 1148 1165 591 437 220 36 56 404 631 669 639 708 474 553 478 290 214 290 17 197 83 61 42 8 0 0 0 0 0 0 0 0 0 0 0 0 0 0 1 0
786 1037 954 970 1023 529 238 89 92 329 574 539 703 864 894 1042 718 409 266 258 265 178 113 88 89 22 0 0 0 0 0 0 0 0 0 0 0 0 0 0 0 0 0
477 691 800 756 593 450 238 419 632 588 1085 1160 1047 1277 1242 987 1056 1003 960 582 300 151 109 75 44 1 0 0 0 0 0 0 0 0 0 0 0 0 0 0 0 0 0
386 632 565 461 376 279 602 833 931 747 694 875 1012 861 663 747 284 116 398 534 141 112 49 9 0 0 0 0 0 0 0 0 0 0 0 0 0 0 0 0 0 0 0
411 635 589 566 470 785 827 192 20 24 63 335 562 498 243 215 376 456 213 117 38 0 0 0 0 0 0 0 0 0 0 0 0 0 2 10 5 0 0 0 0 0 0
499 891 820 566 827 639 174 14 1 5 16 115 136 110 49 62 0 18 25 4 1 0 0 0 0 0 0 0 0 0 0 0 0 1 1 26 33 10 0 0 0 0 0
725 1223 1221 983 905 451 237 0 0 15 26 5 0 0 0 0 0 1 0 0 0 0 0 0 0 0 1 1 0 0 1 0 1 0 0 7 32 28 21 1 18 0 0
788 1380 1428 1219 752 622 228 90 110 109 89 10 1 0 0 0 0 0 0 0 0 0 0 0 0 0 0 3 0 0 1 0 0 0 6 20 14 14 24 15 9 15 33
1319 1613 1207 820 755 461 613 598 423 19 5 1 0 0 0 0 0 0 0 0 0 0 0 1 5 3 0 0 0 3 1 3 16 1 6 17 7 2 14 15 29 13 5
1342 1437 1198 940 810 787 670 345 102 144 14 0 0 0 0 0 0 0 0 0 0 0 0 0 0 0 0 1 3 11 1 0 0 0 0 0 31 8 13 19 3 7 11
1216 1066 953 851 769 437 256 66 27 0 0 0 0 0 0 0 0 0 0 0 0 0 0 0 2 6 1 1 2 7 4 2 4 2 3 2 45 12 21 0 7 6 10
1256 1190 838 501 212 45 2 0 0 12 40 0 0 0 0 0 0 0 0 0 0 0 0 2 1 8 5 8 16 12 26 32 21 5 1 4 24 12 70 16 12 6 1
392 258 100 5 0 0 0 0 0 0 0 0 0 0 0 0 0 0 0 0 2 3 4 12 21 20 20 38 32 34 13 6 6 13 11 8 10 15 20 40 25 19 12
2 0 0 0 0 0 0 0 0 0 0 0 0 0 0 0 0 0 0 0 0 2 12 23 35 26 43 46 20 24 25 19 19 25 24 31 58 18 19 20 70 45 46

GFSSE_con_sbcape_024.txt.gz
CAPE
32 232 669 804 764 660 605 604 683 650 638 604 521 452 443 471 457 438 393 321 229 26 0 0 0 0 0 0 0 0 0 0 0 50 343 704 775 713 519 512 701 186 964
43 229 548 671 671 666 697 806 737 661 595 449 415 456 427 411 401 327 250 194 85 0 0 0 0 0 0 0 0 0 0 0 0 45 288 634 651 479 516 483 918 626 811
44 168 261 596 687 769 973 1014 829 643 498 302 288 386 366 302 241 242 161 73 19 0 0 0 0 0 0 0 0 0 0 37 118 279 163 310 257 329 560 759 797 689 950
67 107 223 656 806 1016 1062 1064 765 555 396 397 357 266 277 179 90 111 176 98 63 0 0 0 0 0 0 0 0 0 0 16 25 83 13 180 197 606 326 598 552 323 552
65 133 422 712 780 1009 1004 930 820 681 542 352 334 198 72 0 0 33 249 190 85 0 0 0 0 0 0 37 13 7 8 0 40 29 0 31 17 568 464 201 29 68 397
418 415 383 360 604 823 988 1007 829 682 518 368 302 237 41 0 55 85 283 230 32 0 0 0 0 0 132 112 91 51 44 46 18 0 0 20 42 566 537 465 657 462 353
125 145 350 385 500 792 1121 980 822 725 575 432 343 216 121 4 65 175 289 243 95 4 0 17 29 67 113 105 97 49 54 55 0 0 0 0 1 38 56 213 467 380 256
187 166 367 431 569 816 1041 825 706 644 554 472 327 203 161 168 223 247 236 219 203 178 150 76 149 189 166 92 43 0 3 49 0 2 0 0 119 26 0 21 411 441 442
103 166 291 373 602 626 622 544 534 530 519 539 390 285 296 299 250 269 303 293 268 278 267 269 258 267 260 177 48 0 0 4 0 1 2 2 63 45 0 0 104 294 411
133 126 296 478 771 596 480 417 418 432 448 420 306 165 143 152 165 235 310 289 219 172 219 174 160 151 189 139 95 33 0 0 0 0 0 5 160 66 92 9 2 215 472
45 259 330 488 761 639 494 423 438 452 401 304 132 67 12 34 58 131 161 140 72 45 70 0 0 55 171 187 179 151 42 0 0 0 0 64 175 154 184 179 200 235 213
39 218 487 653 748 709 417 251 130 71 46 43 0 0 64 596 44 84 164 112 148 42 66 25 66 111 156 0 0 14 0 0 0 0 0 56 12 22 25 22 32 15 7
327 705 861 798 850 398 309 367 80 20 479 719 709 775 829 674 449 296 376 27 155 53 193 31 106 37 28 3 0 0 0 0 0 0 0 0 0 0 0 0 0 0 0
733 882 844 846 990 455 224 166 205 416 733 699 859 936 1075 868 570 644 590 422 236 75 135 119 84 76 0 0 0 0 0 0 0 0 0 0 0 0 0 0 0 0 0
768 863 840 874 680 483 502 678 835 872 1083 1111 1253 1224 1060 970 723 440 453 97 246 87 20 4 0 0 0 0 0 0 0 0 0 0 0 0 0 0 0 0 0 0 0
645 634 653 605 542 562 735 827 508 373 472 745 785 665 443 446 97 58 185 71 52 2 0 0 0 0 0 0 0 0 0 0 0 0 0 0 0 0 0 0 0 0 0
511 479 538 491 408 919 534 164 47 31 91 525 495 562 331 135 175 24 51 41 3 0 0 0 0 0 0 0 0 0 0 0 0 0 0 0 3 25 3 0 0 0 0
415 437 464 384 890 689 225 25 9 7 51 120 65 90 68 65 4 4 19 4 0 0 0 0 0 0 0 0 0 0 0 0 0 0 0 0 7 0 8 2 0 0 0
663 581 638 875 753 239 202 97 8 60 33 23 0 3 1 0 0 0 0 0 0 0 0 0 0 0 0 0 0 0 0 0 0 0 0 0 0 17 12 20 31 9 0
1051 1048 900 989 466 397 148 15 117 203 146 3 8 0 0 0 0 0 0 0 0 0 0 0 0 0 0 0 0 0 0 0 0 0 0 7 5 0 0 0 0 0 44
1311 1373 1187 654 447 485 228 190 267 178 14 3 0 0 0 0 0 0 0 0 0 0 0 0 0 0 0 0 0 0 0 0 0 0 0 0 0 0 0 1 0 0 0
1573 1483 902 772 558 498 458 396 187 5 1 0 0 0 0 0 0 0 0 0 0 0 0 0 0 0 0 0 0 0 0 0 0 0 0 0 0 0 0 0 0 0 0
1450 1295 968 776 712 735 541 163 5 0 0 0 0 0 0 0 0 0 0 0 0 0 0 0 0 0 0 0 0 0 0 0 0 0 0 0 0 0 0 0 0 0 0
1096 853 964 764 738 311 138 5 0 0 0 0 0 0 0 0 0 0 0 0 0 0 0 0 0 0 0 0 0 0 0 0 0 0 0 0 0 0 0 0 0 0 0
1109 1167 906 491 63 0 0 0 0 0 0 0 0 0 0 0 0 0 0 0 0 0 0 0 0 0 0 0 2 0 0 0 0 0 0 0 0 0 0 0 15 1 0
630 328 133 0 0 0 0 0 0 0 0 0 0 0 0 0 0 0 0 0 0 0 0 0 6 7 5 2 9 0 0 0 0 0 0 0 0 0 0 0 0 0 0

GFSSE_con_sbcape_027.txt.gz
CAPE
427 732 880 986 866 738 699 664 608 575 535 424 401 393 407 362 278 232 135 48 13 0 0 0 0 0 0 0 0 0 0 0 0 164 704 494 436 339 273 441 552 394 594
411 687 722 827 846 854 821 723 585 481 372 349 375 374 332 300 211 157 72 27 0 0 0 0 0 0 0 0 0 0 0 11 64 79 575 390 366 421 338 365 761 805 894
435 601 598 614 864 962 942 829 674 446 322 308 326 322 219 160 143 121 73 35 36 0 0 0 0 0 0 0 0 0 0 32 30 10 168 123 79 212 364 691 563 514 410
253 334 470 757 924 990 874 730 525 350 301 360 337 258 146 73 60 179 193 90 61 0 0 0 0 0 0 0 0 13 61 29 105 52 54 0 101 338 120 0 0 8 120
110 269 568 687 770 801 749 709 530 428 403 298 241 185 79 45 51 81 200 138 100 0 0 0 0 0 0 54 72 43 53 63 7 0 4 17 91 333 368 250 74 0 0
215 320 338 336 402 622 926 747 561 396 311 248 204 171 106 87 102 125 271 219 29 5 0 0 0 0 64 74 85 80 61 92 0 0 0 47 45 143 87 307 231 54 134
269 167 123 196 390 927 918 762 584 400 301 247 214 211 256 127 98 171 314 223 81 26 22 27 44 125 129 117 128 53 32 72 0 0 0 0 29 40 5 27 57 95 28
17 69 160 408 484 747 802 632 480 395 273 194 219 245 269 277 300 305 306 313 253 183 172 148 155 150 170 151 124 28 24 0 0 0 0 0 309 66 41 11 291 463 449
68 37 98 292 641 474 398 368 345 351 270 235 260 231 223 191 192 287 354 372 329 294 218 135 34 18 78 42 146 84 2 41 0 0 0 0 273 141 104 61 74 224 442
1 118 97 213 394 320 208 227 248 261 211 155 173 144 121 118 175 232 228 217 129 56 22 0 0 0 35 22 44 102 27 0 0 0 0 95 485 255 238 193 207 231 226
0 107 78 206 266 238 145 201 216 246 139 64 86 42 12 0 0 79 47 77 39 0 0 0 0 0 40 29 58 55 18 0 0 0 0 194 235 145 123 90 41 1 2
0 85 233 261 355 193 103 71 64 125 14 0 0 0 0 0 0 40 19 45 22 1 0 0 0 22 57 0 0 0 0 0 0 0 0 41 23 0 0 0 0 0 0
5 58 227 337 425 172 58 14 10 6 0 0 0 0 0 50 0 0 0 0 0 0 7 16 0 0 0 0 0 0 0 0 0 0 0 0 0 0 0 0 0 0 0
13 84 255 405 403 100 140 35 0 2 142 109 255 454 219 138 60 5 0 0 0 0 0 0 0 0 0 0 0 0 0 0 0 0 0 0 5 0 0 0 0 0 0
351 460 349 381 88 33 96 346 336 449 572 570 371 169 149 24 0 0 0 0 0 0 0 0 0 0 0 0 0 0 0 0 0 0 0 0 12 7 0 0 0 0 0
573 433 460 345 54 315 358 165 32 73 329 303 196 123 50 7 0 7 0 0 0 0 0 0 0 0 0 0 0 0 0 0 0 0 0 0 2 19 4 0 0 0 0
432 440 390 94 252 189 3 0 0 0 184 126 134 55 20 0 0 0 0 0 0 0 0 0 0 0 0 0 0 0 0 0 0 0 0 0 0 6 2 0 0 0 0
344 302 217 196 266 0 0 0 0 0 2 1 0 0 0 0 0 0 0 0 0 0 0 0 0 0 0 0 0 0 0 0 0 0 0 0 0 0 13 3 0 0 0
233 254 126 343 11 0 0 0 0 0 0 0 0 0 0 0 0 0 0 0 0 0 0 0 0 0 0 0 0 0 0 0 0 0 0 0 0 0 0 37 7 8 0
254 187 432 191 29 0 0 0 0 0 0 0 0 0 0 0 0 0 0 0 0 0 0 0 0 0 0 0 0 0 0 0 0 0 0 0 0 0 0 0 0 0 1
291 395 325 114 19 0 0 0 0 0 0 0 0 0 0 0 0 0 0 0 0 0 0 0 0 0 0 0 0 0 0 0 0 0 0 0 0 0 0 0 0 0 0
481 440 347 253 172 31 0 13 12 0 0 0 0 0 0 0 0 0 0 0 0 0 0 0 0 0 0 0 0 0 0 0 0 0 0 0 0 0 0 0 0 0 0
721 431 387 287 279 188 29 126 0 0 0 0 0 0 0 0 0 0 0 0 0 0 0 0 0 0 0 0 0 0 0 0 0 0 0 0 0 0 0 0 0 0 0
725 443 374 394 247 242 162 0 0 0 0 0 0 0 0 0 0 0 0 0 0 0 0 0 0 0 0 0 0 0 0 0 0 0 0 0 0 0 0 0 0 0 0
759 546 449 234 319 205 0 0 0 0 0 0 0 0 0 0 0 0 0 0 0 0 0 0 0 0 0 0 0 0 0 0 0 0 0 0 0 0 0 0 0 0 0
559 419 201 0 0 0 0 0 0 0 0 0 0 0 0 0 0 0 0 0 0 0 0 0 0 0 0 0 0 0 0 0 0 0 0 0 0 0 0 0 0 0 0

GFSSE_con_sbcape_033.txt.gz
CAPE
818 802 805 794 781 716 555 394 329 306 305 215 170 150 123 100 42 34 67 65 15 0 0 0 0 0 0 0 0 0 3 260 399 489 536 211 85 82 171 273 184 122 317
621 807 708 760 803 721 550 414 369 315 255 112 118 149 113 74 91 125 57 26 5 0 0 0 0 0 0 0 0 0 0 165 492 439 139 0 1 0 0 0 11 49 217
778 738 603 644 740 685 551 518 441 265 74 39 67 104 127 105 159 93 74 69 87 14 0 0 0 0 0 57 532 301 27 218 538 411 121 0 0 26 0 0 0 0 2
713 557 432 634 706 642 490 455 347 154 47 106 84 50 113 34 127 179 198 152 136 70 0 0 0 0 0 71 208 529 532 420 164 27 0 0 0 0 0 0 0 0 0
712 446 586 634 603 612 494 392 302 269 197 191 184 123 92 80 59 113 247 208 169 33 3 0 0 0 3 16 4 74 103 14 18 3 0 0 0 0 0 0 0 0 0
580 505 575 551 553 601 557 499 378 254 213 267 276 293 240 142 95 161 278 273 196 24 16 8 0 23 1 0 39 0 0 0 0 0 0 0 0 0 0 0 0 4 3
373 451 427 539 557 625 573 469 350 279 321 356 371 337 352 286 213 330 299 287 249 60 25 21 147 158 40 0 12 0 0 0 0 0 0 0 0 1 3 61 86 46 107
182 195 343 350 294 422 416 360 298 304 406 412 386 387 390 362 339 339 341 331 278 220 163 107 96 138 93 20 0 0 0 0 0 0 0 0 297 22 99 85 30 13 28
1 40 136 79 216 274 259 252 248 298 367 384 370 341 316 306 297 303 307 284 245 176 113 55 17 52 93 29 0 0 0 0 0 0 0 0 105 0 13 8 18 20 4
2 4 15 32 171 147 118 214 240 287 328 347 326 277 215 222 263 226 218 203 112 66 41 19 12 62 128 13 0 0 0 0 0 0 0 25 47 1 0 0 0 0 0
2 0 0 108 117 148 151 151 142 215 244 237 209 146 49 2 0 5 22 50 5 0 0 3 29 5 0 21 0 0 0 0 0 0 0 9 0 0 0 0 0 0 0
0 0 0 8 138 131 130 118 37 38 19 11 2 1 0 0 0 0 14 3 0 0 0 0 0 0 0 0 0 0 0 0 0 0 0 2 0 0 0 0 0 0 0
3 3 0 2 125 97 93 41 23 2 0 0 0 0 0 0 0 0 0 0 0 0 0 0 0 0 0 0 0 0 0 0 0 0 0 0 0 0 4 12 0 0 0
19 18 8 74 161 66 17 12 4 0 0 0 0 0 0 0 0 0 0 0 0 0 0 0 0 0 0 0 0 0 0 0 0 0 0 0 0 4 18 26 16 0 0
35 42 66 162 220 86 12 1 0 0 0 106 87 14 0 0 0 0 0 0 0 0 0 0 0 0 0 0 0 0 0 0 0 0 0 0 2 9 6 41 26 0 0
32 104 122 168 193 18 1 0 28 136 156 50 8 0 0 0 0 0 0 0 0 0 0 0 0 0 0 0 0 0 0 0 0 0 0 0 0 2 18 23 3 0 0
21 79 178 167 7 5 3 3 75 139 46 5 0 0 0 0 0 0 0 0 0 0 0 0 0 0 0 0 0 0 0 0 0 0 0 0 0 0 4 0 0 0 5
60 272 265 167 38 3 0 0 0 0 0 0 0 0 0 0 0 0 0 0 0 0 0 0 0 0 0 0 0 0 0 0 0 0 0 0 0 0 0 0 0 1 2
254 328 94 122 7 0 0 0 0 0 0 0 0 0 0 0 0 0 0 0 0 0 0 0 0 0 0 0 0 0 0 0 0 0 0 0 0 0 0 0 0 0 0
379 255 133 8 0 0 0 0 0 0 0 0 0 0 0 0 0 0 0 0 0 0 0 0 0 0 0 0 0 0 0 0 0 0 0 0 0 0 0 0 0 0 0
248 134 107 0 0 0 0 0 0 0 0 0 0 0 0 0 0 0 0 0 0 0 0 0 0 0 0 0 0 0 0 0 0 0 0 0 0 0 0 0 0 0 0
261 136 68 2 0 0 0 0 0 0 0 0 0 0 0 0 0 0 0 0 0 0 0 0 0 0 0 0 0 0 0 0 0 0 0 0 0 0 0 0 0 0 0
203 164 148 43 0 0 0 0 0 0 0 0 0 0 0 0 0 0 0 0 0 0 0 0 0 0 0 0 0 0 0 0 0 0 0 0 0 0 0 0 0 0 0
146 205 247 99 6 0 0 0 0 0 0 0 0 0 0 0 0 0 0 0 0 0 0 0 0 0 0 0 0 0 0 0 0 0 0 0 0 0 0 0 0 0 0
111 138 122 33 10 1 0 0 0 0 0 0 0 0 0 0 0 0 0 0 0 0 0 0 0 0 0 0 0 0 0 0 0 0 0 0 0 0 0 0 0 0 0
127 78 16 31 49 14 0 0 0 0 0 0 0 0 0 0 0 0 0 0 0 0 0 0 0 0 0 0 0 0 0 0 0 0 0 0 0 0 0 0 0 0 0

GFSSE_con_sbcape_036.txt.gz
CAPE
787 764 775 797 630 470 404 373 368 359 335 231 174 133 122 54 67 83 60 31 22 0 0 0 0 0 0 0 13 261 324 462 411 353 194 1 2 0 0 0 59 34 175
797 753 744 744 582 451 416 366 324 285 238 142 132 102 95 125 125 58 36 37 62 13 0 0 10 51 66 70 0 214 426 458 324 222 19 3 2 0 0 0 0 2 136
874 729 709 686 555 490 477 431 334 274 176 77 56 122 173 151 96 99 101 100 102 68 1 9 113 327 406 255 252 339 448 370 327 211 19 0 0 0 0 0 0 0 1
797 602 626 715 548 562 492 400 293 208 185 153 129 127 201 139 178 211 188 131 135 119 0 0 24 101 307 641 578 574 274 181 82 0 0 0 0 0 0 0 0 0 0
685 487 640 668 532 600 485 348 250 227 211 202 187 159 167 148 147 203 222 194 198 136 0 0 0 3 76 247 237 276 60 0 0 0 0 0 0 1 2 2 0 1 1
622 458 574 514 503 526 517 393 322 295 278 271 265 280 264 257 143 311 277 264 267 186 3 0 0 24 109 58 73 0 0 0 0 0 0 0 0 4 7 7 7 10 7
610 439 545 440 545 650 642 480 330 379 387 404 360 331 358 372 313 406 362 343 314 265 191 63 73 26 67 9 0 0 0 0 0 0 0 0 0 13 10 9 8 11 18
305 289 348 516 499 537 458 371 374 439 479 436 446 425 515 459 409 392 354 328 289 225 243 252 146 10 33 8 0 0 0 0 0 0 0 0 87 7 8 15 7 6 5
78 61 31 17 9 292 322 328 364 401 455 472 472 456 439 353 343 328 296 312 292 217 170 236 229 68 32 51 0 0 0 0 0 0 0 0 0 0 0 0 0 0 1
2 6 6 8 22 138 256 280 311 374 392 402 392 293 218 225 237 233 220 282 207 141 142 175 179 95 11 6 9 0 0 0 0 0 0 1 21 1 0 0 0 0 0
3 12 18 49 52 137 150 231 291 361 316 281 225 174 48 28 11 0 36 55 33 24 66 149 0 0 0 0 0 0 0 0 0 0 0 7 1 21 5 0 0 0 0
2 14 36 63 144 144 154 69 18 89 39 27 22 4 0 0 0 0 0 0 1 13 51 0 0 0 0 0 0 0 0 0 0 0 0 0 0 15 24 7 0 0 0
0 0 0 20 127 108 86 6 0 0 0 0 0 0 0 0 0 0 0 0 0 0 0 0 0 0 0 0 0 0 0 0 0 0 0 0 0 0 16 18 11 3 0
4 0 0 22 70 60 55 26 4 0 0 0 0 0 0 0 0 0 0 0 0 0 0 0 0 0 0 0 0 0 0 0 0 0 0 0 0 11 11 28 12 0 0
18 0 0 0 156 73 33 0 0 0 0 0 0 0 0 0 0 0 0 0 0 0 0 0 0 0 0 0 0 0 0 0 0 0 0 0 0 0 11 54 48 4 0
1 10 0 22 168 40 0 0 0 0 0 8 0 0 0 0 0 0 0 0 0 0 0 0 0 0 0 0 0 0 0 0 0 0 0 0 0 4 18 25 27 13 10
17 18 22 93 139 30 0 0 0 0 10 0 0 0 0 0 0 0 0 0 0 0 0 0 0 0 0 0 0 0 0 0 0 0 0 0 0 0 0 0 0 0 0
9 62 119 179 27 0 0 0 0 0 0 0 0 0 0 0 0 0 0 0 0 0 0 0 0 0 0 0 0 0 0 0 0 0 0 0 0 0 0 0 0 0 0
26 143 174 87 0 0 0 0 0 0 0 0 0 0 0 0 0 0 0 0 0 0 0 0 0 0 0 0 0 0 0 0 0 0 0 0 0 0 0 0 0 0 0
31 195 99 26 0 0 0 0 0 0 0 0 0 0 0 0 0 0 0 0 0 0 0 0 0 0 0 0 0 0 0 0 0 0 0 0 0 0 0 0 0 0 0
120 159 60 6 0 0 0 0 0 0 0 0 0 0 0 0 0 0 0 0 0 0 0 0 0 0 0 0 0 0 0 0 0 0 0 0 0 0 0 0 0 0 0
204 159 58 9 0 0 0 0 0 0 0 0 0 0 0 0 0 0 0 0 0 0 0 0 0 0 0 0 0 0 0 0 0 0 0 0 0 0 0 0 0 0 0
276 166 102 2 0 0 0 0 0 0 0 0 0 0 0 0 0 0 0 0 0 0 0 0 0 0 0 0 0 0 0 0 0 0 0 0 0 0 0 0 0 0 0
280 164 91 4 0 0 0 0 0 0 0 0 0 0 0 0 0 0 0 0 0 0 0 0 0 0 0 0 0 0 0 0 0 0 0 0 0 0 0 0 0 0 0
180 44 27 6 0 0 0 0 0 0 0 0 0 0 0 0 0 0 0 0 0 0 0 0 0 0 0 0 0 0 0 0 0 0 0 0 0 0 0 0 0 0 0
49 26 22 16 23 0 0 0 0 0 0 0 0 0 0 0 0 0 0 0 0 0 0 0 0 0 0 0 0 0 0 0 0 0 0 0 0 0 0 0 0 0 0

GFSSE_con_sbcape_039.txt.gz
CAPE
640 549 790 845 779 728 674 646 597 536 463 403 308 176 85 90 83 65 41 60 88 124 6 0 7 19 224 366 229 94 215 297 283 230 126 1 0 0 0 0 136 96 191
718 564 711 773 773 712 644 557 472 429 367 307 204 108 140 123 82 41 85 138 152 55 46 114 136 98 77 362 356 258 131 296 235 75 0 0 0 0 0 0 0 5 103
843 548 687 631 705 685 581 533 456 445 296 173 182 220 184 123 101 139 181 163 213 203 283 408 316 222 134 385 602 335 178 165 197 54 0 0 0 0 0 0 0 0 3
855 566 458 567 578 611 552 510 424 267 186 194 263 243 184 219 268 213 190 196 213 341 349 526 617 392 291 643 544 349 106 0 0 0 0 0 0 11 8 3 1 0 0
870 686 572 530 528 568 460 374 280 246 201 234 252 237 314 366 338 291 220 182 235 265 181 277 477 507 527 425 368 160 0 0 0 0 0 0 4 13 13 13 13 16 11
944 723 599 489 515 505 441 381 280 206 193 205 209 301 432 414 401 353 255 231 285 217 63 52 103 214 236 174 89 36 0 0 0 0 0 3 3 7 12 16 49 35 19
875 719 588 466 508 535 558 431 344 277 256 275 305 370 406 452 439 420 352 299 291 243 117 90 110 155 120 112 52 0 0 0 0 0 0 0 9 6 5 5 7 7 4
503 533 445 349 467 471 367 382 359 392 344 337 373 435 522 464 380 379 360 322 326 303 185 114 159 100 108 75 0 0 0 0 0 0 0 0 8 4 2 1 1 2 3
218 113 21 31 90 242 266 291 306 375 419 436 480 466 435 305 303 283 281 251 289 313 281 122 114 185 137 50 0 0 0 0 0 0 0 0 0 0 0 0 0 0 0
7 6 0 0 5 103 292 271 309 337 374 394 391 298 210 232 258 290 222 203 215 255 342 177 54 79 56 0 0 0 0 0 0 0 1 6 17 4 0 0 0 0 1
5 8 0 0 71 135 248 356 340 368 372 300 231 186 82 59 79 35 82 78 92 164 97 114 10 0 0 0 0 0 0 0 0 0 0 13 8 13 3 0 0 0 0
9 5 1 30 130 142 154 224 223 249 177 103 38 85 59 105 41 15 9 25 54 38 2 0 0 0 0 0 0 0 0 0 0 0 0 0 0 12 10 2 0 0 0
11 19 12 11 132 202 124 101 112 86 56 64 67 45 69 73 66 15 15 16 18 0 0 0 0 0 0 0 0 0 0 0 0 0 0 0 0 0 21 11 0 0 0
14 13 18 0 0 45 96 43 22 18 20 36 16 58 105 89 32 16 21 0 0 0 0 0 0 0 0 0 0 0 0 0 0 0 0 0 0 0 0 30 3 0 0
11 16 0 0 7 168 164 20 9 16 14 32 9 67 63 88 15 25 0 0 0 0 0 0 0 0 0 0 0 0 0 0 0 0 0 0 0 0 0 28 31 1 1
0 2 34 30 104 304 95 28 2 2 0 0 11 98 78 104 16 0 0 0 0 0 0 0 0 0 0 0 0 0 0 0 0 0 0 0 0 0 0 0 49 31 6
26 0 0 20 219 310 72 18 0 2 9 54 138 97 2 10 0 0 0 0 0 0 0 0 0 0 0 0 0 0 0 0 0 0 0 0 0 0 0 1 13 1 16
45 10 0 21 178 292 33 1 9 40 173 237 182 16 0 0 0 0 0 0 0 0 0 0 0 0 0 0 0 0 0 0 0 0 0 0 0 0 0 8 3 0 0
126 91 46 108 246 333 87 21 35 91 239 188 61 8 0 0 0 0 0 0 0 0 0 0 0 0 0 0 0 0 0 0 0 0 0 0 0 0 0 0 0 0 0
119 153 161 259 349 252 83 8 57 160 226 116 149 64 0 0 0 0 0 0 0 0 0 0 0 0 0 0 0 0 0 0 0 0 0 0 0 0 0 0 0 0 0
139 233 281 332 313 164 64 44 77 233 156 48 5 0 0 0 0 0 0 0 0 0 0 0 0 0 0 0 0 0 0 0 0 0 0 0 0 0 0 0 0 0 0
139 254 440 393 272 211 179 75 83 103 10 0 0 0 0 0 0 0 0 0 0 0 0 0 0 0 0 0 0 0 0 0 0 0 0 0 0 0 0 0 0 0 0
202 248 396 416 239 194 166 52 0 0 0 0 0 0 0 0 0 0 0 0 0 0 0 0 0 0 0 0 0 0 0 0 0 0 0 0 0 0 0 0 0 0 0
233 278 345 373 262 146 56 83 28 113 8 0 0 0 0 0 0 0 0 0 0 0 0 0 0 0 0 0 0 0 0 0 0 0 0 0 0 0 0 0 0 0 0
418 497 462 413 355 166 62 109 87 33 0 0 0 0 0 0 0 0 0 0 0 0 0 0 0 0 0 0 0 0 0 0 0 0 0 0 0 0 0 0 0 0 0
626 601 566 493 351 142 3 14 7 1 0 0 0 0 0 0 0 0 0 0 0 0 0 0 0 0 0 0 0 0 0 0 0 0 0 0 2 4 0 0 0 0 0

GFSSE_con_sbcape_042.txt.gz
CAPE
810 529 885 1074 1113 1076 991 903 838 780 709 561 358 190 131 144 158 146 107 138 301 380 143 245 441 374 29 11 87 132 140 240 177 60 0 0 0 0 0 3 215 156 197
804 462 825 1010 1081 1084 989 854 718 618 517 346 169 137 155 153 156 179 188 219 263 164 95 112 418 294 0 21 70 108 48 111 59 55 51 0 0 0 0 0 5 13 74
801 417 805 847 994 1004 923 751 615 512 378 193 179 188 181 184 260 255 266 306 441 311 232 204 334 295 63 100 225 114 27 40 27 0 9 0 0 5 4 1 8 1 10
922 431 412 829 869 849 721 633 487 289 221 275 256 218 250 372 356 360 341 455 789 878 447 294 400 355 159 262 242 84 2 0 0 1 1 4 0 6 7 4 6 4 5
1009 548 656 804 758 746 647 535 326 256 284 286 261 366 470 418 446 422 378 454 825 1143 875 475 594 427 296 289 182 89 3 2 0 2 0 5 6 9 14 27 40 18 15
1065 690 536 578 655 701 591 448 311 281 272 236 330 512 528 514 482 451 442 356 497 741 641 613 382 213 202 145 143 26 9 0 0 0 5 4 6 9 5 7 7 7 13
1130 1027 633 492 578 600 563 435 341 342 232 285 412 465 550 564 543 505 412 313 310 430 398 328 139 182 166 124 61 0 0 0 0 0 0 0 8 4 2 0 0 2 6
863 876 496 519 553 485 435 353 301 322 327 391 436 476 582 599 564 527 456 362 276 302 372 287 194 191 142 29 0 0 0 0 0 0 2 2 7 2 0 0 2 2 3
465 371 287 286 176 161 275 291 279 344 398 458 471 450 406 348 306 338 360 364 325 220 266 271 252 162 52 0 0 0 0 0 0 0 1 0 0 0 0 0 0 0 2
50 6 4 0 0 0 318 296 340 340 355 396 385 271 261 250 243 262 275 361 401 288 235 287 256 88 0 0 0 0 0 0 0 1 6 4 6 0 0 0 0 0 2
3 3 7 6 32 22 192 392 390 439 352 283 256 187 64 39 20 26 98 241 316 325 213 147 84 0 0 0 0 0 0 0 0 0 3 0 18 12 0 0 0 0 0
4 9 11 4 12 95 288 310 352 262 180 156 122 55 35 77 37 13 20 168 116 84 20 0 0 0 0 0 0 0 0 0 0 0 0 0 0 20 10 2 0 0 1
9 15 0 0 0 68 142 352 329 279 281 136 143 75 152 105 71 60 21 43 18 3 0 0 0 0 0 0 0 0 0 0 0 0 0 0 0 1 24 13 1 1 0
10 26 1 0 2 37 96 173 189 121 99 84 90 112 151 120 92 94 138 210 88 21 0 0 0 0 0 0 0 0 0 0 0 0 0 0 0 0 9 40 2 6 4
10 14 49 48 21 0 25 122 153 185 100 44 94 108 89 49 93 153 136 93 34 0 0 0 0 0 0 0 0 0 0 0 0 0 0 0 0 0 4 23 36 9 5
11 1 10 3 31 102 116 141 175 173 72 110 76 179 238 102 172 314 177 50 0 0 0 0 0 0 0 0 0 0 0 0 0 0 0 0 0 0 0 1 72 31 1
1 3 6 44 109 153 274 157 39 56 18 8 68 485 497 443 361 223 96 7 0 0 0 0 0 0 0 0 0 0 0 0 0 0 0 0 0 0 0 0 14 6 19
17 47 92 33 157 337 355 166 0 24 18 29 354 537 577 484 334 164 32 0 0 0 0 0 0 0 0 0 0 0 0 0 0 0 0 0 0 0 1 0 0 0 0
77 88 124 106 145 555 619 189 87 48 107 178 565 567 477 225 90 59 15 0 0 0 0 0 0 0 0 0 0 0 0 0 0 0 0 0 0 0 0 0 0 0 0
192 126 60 132 469 583 616 325 57 9 92 516 831 697 468 202 31 37 0 0 0 0 0 0 0 0 0 0 0 0 0 0 0 0 0 0 0 0 0 0 0 0 0
400 291 280 400 509 602 743 466 117 57 203 677 745 834 411 325 79 21 0 0 0 0 0 0 0 0 0 0 0 0 0 0 0 0 0 0 0 0 0 0 0 0 0
533 553 492 398 498 754 814 694 174 310 196 416 629 731 573 394 14 0 0 0 0 0 0 0 0 0 0 0 0 0 0 0 0 0 0 0 0 0 0 0 0 0 0
466 487 521 573 806 810 768 672 283 473 634 704 588 342 327 102 0 0 0 0 0 0 0 0 0 0 0 0 0 0 0 0 0 0 0 0 0 0 0 0 0 0 0
528 521 498 656 937 909 912 768 476 342 358 507 480 139 53 2 0 0 0 0 0 0 0 0 0 0 0 0 0 0 0 0 0 0 0 0 2 0 0 1 0 2 3
517 585 611 667 1100 986 945 916 853 718 625 685 370 21 0 0 0 0 0 0 0 0 0 0 0 0 0 0 0 0 0 0 0 0 0 0 0 1 1 2 2 7 10
835 800 781 781 893 1096 1095 1025 1110 1200 1111 481 128 0 0 0 0 0 0 0 0 0 0 0 0 0 0 0 0 0 0 0 0 0 0 0 1 0 2 5 8 13 16

GFSSE_con_sbcape_045.txt.gz
CAPE
845 745 1271 1506 1416 1329 1194 1072 976 888 857 776 578 411 338 293 233 171 266 433 641 768 541 318 157 3 30 78 99 52 104 148 91 66 32 0 1 0 0 123 175 75 302
938 781 1163 1402 1439 1390 1283 1144 986 858 778 598 437 364 329 263 184 272 470 548 579 646 567 199 0 0 0 1 6 15 0 34 125 138 139 0 5 4 2 0 5 4 109
970 885 1298 1266 1396 1374 1298 1139 944 810 615 476 392 343 273 272 345 405 433 464 541 622 464 115 0 8 43 25 47 18 0 0 0 22 178 0 3 13 11 14 60 6 6
876 904 1492 1227 1244 1243 1105 972 810 592 415 446 387 314 356 466 521 592 721 736 715 756 523 200 62 58 44 63 77 40 0 0 0 163 4 0 0 82 36 13 3 14 8
531 666 1477 1104 1093 1072 911 781 528 438 389 368 357 507 622 604 614 742 994 1049 1011 995 647 276 98 96 87 219 176 65 0 12 69 0 0 0 0 5 0 3 16 17 16
479 496 941 893 940 912 765 560 442 394 308 328 482 646 675 639 614 674 936 1205 1261 1102 790 242 116 39 193 198 122 7 0 17 77 3 0 0 0 2 1 2 7 7 6
661 840 1072 721 776 748 706 537 465 385 389 534 579 577 602 595 655 528 571 835 1126 1109 566 195 58 114 187 131 14 0 0 22 2 7 0 0 0 1 0 0 1 6 11
1222 843 512 771 658 566 442 435 407 391 519 588 588 623 656 656 557 445 426 550 689 664 386 269 238 161 74 2 0 0 0 18 0 13 2 0 0 0 0 0 0 3 8
560 356 295 267 547 282 215 235 239 425 546 581 612 664 584 443 400 370 305 356 437 321 281 251 211 143 0 2 0 0 0 15 6 8 3 0 0 0 0 0 0 2 3
122 27 2 2 189 343 218 224 294 385 451 490 409 312 281 286 338 355 292 278 312 321 333 237 159 47 0 0 0 0 0 0 0 8 1 0 1 0 0 0 0 2 4
17 3 0 0 0 21 208 371 441 480 379 351 337 257 137 87 62 51 219 353 301 304 302 162 22 0 0 0 0 0 0 0 0 0 0 0 11 9 5 0 0 3 16
6 7 3 0 0 0 1 156 282 366 292 246 193 190 130 164 136 90 169 254 215 147 144 59 0 0 0 0 0 0 0 0 0 0 0 0 5 25 19 2 2 3 8
10 4 5 0 0 26 48 134 302 335 320 239 242 246 309 283 220 95 85 18 2 0 0 0 0 0 0 0 0 0 0 0 0 0 0 0 0 10 23 10 3 10 7
3 3 1 12 22 17 13 85 244 255 265 243 287 455 388 259 421 280 116 145 67 31 2 0 0 0 0 0 0 0 0 0 0 0 0 0 0 0 4 26 9 9 6
3 2 0 0 10 10 23 109 155 205 152 171 271 297 383 354 481 290 278 298 204 127 57 2 0 0 0 0 0 0 0 0 0 0 0 0 0 0 0 5 18 10 5
5 6 3 29 23 17 24 76 207 279 160 402 326 407 506 272 398 230 301 262 173 101 35 1 0 0 0 0 0 0 0 0 0 0 0 0 0 0 0 0 65 20 9
17 32 25 3 4 0 17 25 81 335 276 329 311 591 344 452 605 453 398 249 147 73 30 5 1 0 0 0 0 0 0 0 0 0 0 0 0 0 0 0 22 38 31
0 0 0 0 0 119 153 137 140 279 255 133 135 335 614 338 415 512 401 301 145 61 32 3 1 0 0 0 0 0 0 0 0 0 0 0 0 0 0 0 0 0 0
4 0 3 44 71 148 176 251 163 200 105 30 179 249 620 707 694 546 439 305 151 51 25 10 0 0 0 0 0 0 0 0 0 0 0 0 0 0 0 0 0 0 0
21 4 0 86 145 390 547 236 100 8 115 54 107 352 608 685 542 517 411 266 121 41 18 1 0 0 0 0 0 0 0 0 0 0 0 0 0 0 0 0 0 0 0
85 207 155 145 146 426 485 214 50 2 4 59 256 401 620 692 502 459 394 268 138 52 4 0 0 0 0 0 0 0 0 0 0 0 0 0 0 0 0 0 0 0 0
252 217 167 120 167 539 592 505 119 28 0 62 254 658 740 762 617 440 478 221 104 10 3 0 0 0 0 0 0 0 1 0 0 0 0 0 0 0 0 0 0 0 0
334 286 263 307 476 529 506 561 387 61 72 51 292 503 791 760 705 478 405 144 32 10 2 0 0 0 0 0 0 0 0 0 0 0 0 0 0 0 0 0 0 0 0
591 582 605 574 574 552 612 791 466 121 244 478 682 626 640 837 622 360 148 46 5 1 2 0 0 0 0 0 0 0 0 0 0 0 0 0 0 1 2 0 0 0 2
801 672 746 662 635 753 880 746 1042 485 398 545 718 771 825 587 399 156 26 5 2 1 1 0 0 0 0 0 0 0 0 0 0 0 0 0 1 1 3 5 6 2 4
387 943 1318 719 659 774 978 940 1061 1044 892 1059 1063 734 498 371 190 59 2 1 1 0 0 0 0 0 0 0 0 0 0 0 1 6 4 1 2 0 0 1 4 8 5

GFSSE_con_sbcape_048.txt.gz
CAPE
594 1140 1481 1482 1445 1258 1153 1054 986 947 926 801 631 544 472 406 395 390 611 839 886 561 42 30 27 0 0 0 0 10 90 83 64 96 84 2 0 0 0 129 167 149 286
251 1541 1556 1574 1552 1459 1313 1134 1045 994 862 712 562 464 335 328 536 701 826 883 904 321 0 0 0 0 0 0 0 0 92 150 129 122 53 9 12 15 16 0 56 3 107
2 1656 1762 1602 1668 1550 1412 1277 1152 1014 829 712 553 388 325 529 679 699 679 838 862 252 0 0 0 0 0 0 34 0 8 31 88 150 3 1 13 18 22 29 31 14 10
652 1569 1865 1606 1612 1501 1360 1217 1082 868 722 656 483 388 516 644 684 704 700 754 783 424 0 0 0 0 0 32 2 27 81 118 182 56 0 0 5 23 19 19 23 21 10
1183 1593 1397 1415 1277 1300 1229 1082 914 809 656 502 410 611 723 792 911 980 815 785 857 583 82 16 0 0 8 86 53 41 22 24 22 0 0 0 0 2 2 7 8 13 8
994 1375 982 861 893 1017 1186 971 815 666 516 439 584 731 812 951 1191 1205 1002 933 1003 675 116 18 0 0 99 21 0 32 37 52 0 0 0 0 0 1 2 6 6 9 12
1065 1198 889 657 507 763 1013 854 698 607 553 662 688 680 734 920 1168 1250 1098 1033 1022 602 211 45 42 79 60 0 9 17 35 23 0 0 0 0 0 1 0 4 7 12 13
1134 1105 706 799 665 692 737 737 557 605 688 673 645 662 765 624 676 906 1099 1025 755 392 303 253 204 125 51 0 0 0 0 31 2 0 0 0 0 0 0 1 4 6 13
646 742 608 317 330 264 397 371 461 630 667 681 640 618 513 345 366 600 777 710 442 320 275 227 183 99 35 0 0 0 0 17 12 0 0 0 2 3 3 2 3 4 10
199 69 2 5 7 53 196 404 458 499 536 557 406 274 231 262 299 344 398 359 337 297 255 214 167 73 0 0 0 0 0 0 0 0 0 0 0 1 0 0 1 3 5
14 3 2 1 7 3 95 443 522 542 416 327 274 221 101 35 20 102 260 346 358 295 207 135 29 0 0 0 0 0 0 0 0 0 0 0 3 2 0 0 3 7 6
1 3 4 0 0 0 3 199 340 373 282 262 169 134 44 45 114 114 197 231 258 228 137 14 0 0 0 0 0 0 0 0 0 0 0 0 0 13 8 0 1 2 6
3 1 0 1 2 5 9 21 108 185 235 277 243 240 251 135 136 153 106 5 7 11 0 0 0 0 0 0 0 0 0 0 0 0 0 0 0 12 13 2 2 6 4
4 2 0 0 0 0 0 30 96 194 240 214 227 328 333 218 210 154 75 74 0 0 0 0 0 0 0 0 0 0 0 0 0 0 0 0 0 0 6 8 8 13 6
2 3 15 2 2 1 10 35 71 217 205 160 133 339 316 285 282 178 169 115 40 21 0 23 0 0 0 0 0 0 0 0 0 0 0 0 0 0 0 17 24 22 13
1 1 14 6 25 20 0 0 17 112 180 97 94 363 310 355 289 356 460 416 325 150 106 6 0 0 0 0 0 0 0 0 0 0 0 0 0 0 0 0 31 32 18
2 2 9 7 5 4 0 23 49 143 252 328 300 330 381 475 364 552 369 434 178 156 112 41 0 0 0 0 0 0 0 0 0 0 0 0 0 0 0 0 5 47 39
1 12 2 4 0 0 0 27 60 93 243 268 225 347 396 478 393 408 520 366 262 108 51 5 0 0 0 0 0 0 0 0 0 0 0 0 0 0 0 0 0 0 0
0 1 0 0 0 0 5 0 0 18 146 159 147 240 425 436 518 559 500 418 205 80 38 11 0 3 0 0 0 0 0 0 0 0 0 0 0 0 0 1 0 0 0
0 0 0 0 0 0 62 0 0 28 88 71 60 110 397 531 572 522 417 258 76 100 39 8 1 0 0 0 0 0 0 0 0 0 0 0 0 0 0 0 0 0 1
0 0 0 0 0 15 35 9 33 5 37 60 43 75 465 462 551 507 368 271 96 104 25 19 0 0 0 0 0 0 0 0 0 0 0 0 0 0 0 0 0 0 0
0 0 0 0 0 22 30 48 80 1 0 15 60 197 614 456 459 386 374 227 93 119 46 0 0 0 0 0 0 0 0 0 0 0 0 0 0 0 0 0 0 0 0
7 0 0 0 0 5 162 282 245 31 2 0 34 537 695 675 547 452 354 391 148 116 8 0 0 0 0 0 0 0 0 0 0 0 0 0 0 0 0 0 0 0 0
104 85 145 85 49 9 363 344 397 103 31 0 6 380 566 611 540 529 496 407 168 24 0 0 0 0 0 0 0 0 0 0 0 0 0 0 0 0 0 0 0 0 0
320 319 256 175 186 285 346 470 315 292 34 135 32 372 450 548 600 485 336 156 69 6 0 0 0 0 0 0 0 0 0 0 0 0 0 0 0 0 0 0 0 0 0
481 574 428 403 348 476 408 290 575 474 399 429 633 490 559 443 499 370 231 63 2 0 0 0 0 0 0 0 0 0 0 0 0 2 2 0 0 0 0 0 0 0 0

GFSSE_con_sbcape_051.txt.gz
CAPE
18 1262 1401 1649 1601 1429 1312 1117 1005 962 931 832 690 614 579 487 653 889 745 367 308 196 0 0 0 0 0 0 0 15 112 35 0 16 24 12 5 6 14 16 152 92 231
1 257 1190 1523 1651 1591 1423 1252 1074 937 894 792 620 616 606 734 959 978 627 316 276 81 0 0 0 0 0 0 12 122 131 43 22 0 18 13 25 26 10 11 102 65 175
33 548 631 1256 1599 1599 1520 1374 1180 1054 923 714 598 704 880 978 1044 1022 446 230 236 131 0 0 0 0 0 0 33 78 53 23 37 16 4 0 4 25 29 14 20 21 28
18 3 130 703 1437 1643 1551 1343 1145 1028 896 685 668 916 990 980 1035 1039 362 248 299 195 0 0 0 0 0 12 31 42 26 0 0 0 0 0 0 15 14 15 11 11 18
390 465 762 859 1213 1534 1432 1210 1022 937 708 621 780 951 1002 1019 1029 1072 470 369 386 203 0 0 0 0 0 6 11 9 12 0 0 0 0 0 0 6 9 7 9 17 20
869 1008 925 821 1010 1367 1290 1121 978 689 503 619 784 1007 1162 1185 1130 1072 744 486 476 183 0 0 0 0 0 0 4 0 0 0 0 0 0 0 0 8 11 13 20 14 24
905 851 871 692 629 539 719 1080 790 533 607 763 878 1082 1277 1324 1221 1106 950 537 415 192 19 0 0 0 0 0 7 8 7 0 0 0 0 0 0 3 8 9 10 10 10
670 517 450 718 118 310 418 643 653 650 758 749 909 1212 1448 1423 1236 1204 1027 529 382 220 188 85 43 0 0 0 4 2 1 0 0 0 0 0 4 2 4 6 10 11 11
666 425 423 458 396 174 165 357 568 547 603 672 638 702 788 939 1072 1121 822 530 368 251 165 101 34 0 0 0 0 0 0 0 0 0 0 0 2 2 4 3 6 8 10
330 260 151 129 102 82 76 224 379 438 437 377 316 232 284 547 775 680 512 351 277 198 153 85 22 0 0 0 0 0 0 0 0 0 0 0 1 1 2 6 7 13 11
36 9 0 0 0 5 46 331 440 380 258 212 164 112 70 137 211 185 269 314 255 172 133 73 0 0 0 0 0 0 0 0 0 0 0 0 0 2 0 2 5 10 13
6 4 2 2 2 0 57 187 161 142 70 42 14 0 0 9 77 222 284 270 209 126 75 14 0 0 0 0 0 0 0 0 0 0 0 0 0 7 2 0 6 11 13
1 3 1 0 0 0 4 8 35 18 69 25 3 12 43 80 107 127 155 121 98 11 0 0 0 0 0 0 0 0 0 0 0 0 0 0 0 16 13 12 11 6 9
1 0 0 0 0 0 0 0 0 0 27 10 59 99 97 79 79 74 35 43 10 0 0 0 0 0 0 0 0 0 0 0 0 0 0 0 0 0 17 10 11 9 2
2 1 0 0 0 0 0 0 0 10 23 56 100 150 127 116 76 64 65 9 0 0 0 0 0 0 0 0 0 0 0 0 0 0 0 0 0 0 0 15 11 17 8
4 4 2 1 0 0 0 0 0 3 20 27 64 161 227 112 149 102 116 43 0 0 0 0 0 0 0 0 0 0 0 0 0 0 0 0 0 0 0 0 11 35 15
5 6 2 0 0 0 0 0 0 1 35 37 46 145 238 244 165 210 229 184 158 4 0 0 0 0 0 0 0 0 0 0 0 0 0 0 0 0 0 0 0 74 41
4 8 3 0 0 0 0 0 0 1 75 113 161 157 138 266 290 217 109 102 8 0 0 0 0 0 0 0 0 0 0 0 0 0 0 0 0 0 0 0 15 21 31
3 6 0 0 0 0 0 0 0 3 34 117 85 99 134 160 214 98 263 100 14 0 0 0 0 0 0 0 0 0 0 0 0 0 0 0 0 0 0 0 0 0 0
0 0 4 3 0 0 0 0 0 0 6 24 6 21 172 107 128 301 212 116 4 0 0 0 0 0 0 0 0 0 0 0 0 0 0 0 0 0 0 0 0 0 0
0 0 0 0 0 0 0 0 0 0 6 2 5 9 49 149 222 260 183 63 16 0 0 0 0 0 0 0 0 0 0 0 0 0 0 0 0 0 0 0 0 0 0
0 0 0 0 0 0 0 0 0 0 0 8 0 0 10 154 193 211 221 116 14 3 0 0 0 0 0 0 0 0 0 0 0 0 0 0 0 0 0 0 0 0 0
0 0 0 0 0 0 0 0 0 0 4 0 0 0 9 300 213 257 191 112 3 0 0 0 0 0 0 0 0 0 0 0 0 0 0 0 0 0 0 0 0 0 0
0 0 0 0 0 0 0 0 0 0 0 0 0 0 199 212 173 196 143 48 5 0 0 0 0 0 0 0 0 0 0 0 0 0 0 0 0 0 0 0 0 0 0
0 0 0 0 0 0 0 0 0 7 0 0 0 0 194 180 153 134 108 81 16 2 0 0 0 0 0 0 0 0 0 0 0 0 0 0 0 0 0 0 0 0 0
0 0 0 0 0 0 0 0 37 128 54 0 0 0 159 160 160 227 135 44 3 0 0 0 0 0 0 0 0 0 0 0 0 0 0 0 0 0 0 0 0 0 0

GFSSE_con_sbcape_054.txt.gz
CAPE
1314 1381 1559 1740 1587 1501 1215 1069 930 850 809 761 644 749 907 895 606 461 390 348 276 91 0 1 5 2 2 2 0 19 16 14 24 34 33 19 34 33 57 115 110 51 153
588 1151 1111 1500 1716 1554 1360 1180 980 863 815 804 726 978 1061 854 563 534 460 354 182 32 1 4 3 3 8 14 40 61 56 21 15 20 29 29 20 20 20 29 168 41 40
603 1092 966 628 1407 1602 1449 1277 1120 1009 902 844 938 1220 1236 858 608 531 407 261 61 32 0 0 0 1 5 26 40 88 37 9 2 13 5 0 6 19 17 15 40 36 33
135 997 953 854 1364 1329 1411 1277 1137 959 891 942 1160 1338 1378 895 633 530 405 227 29 31 23 0 0 0 0 0 0 40 0 0 0 0 0 0 2 18 18 22 22 18 13
193 498 1103 1083 874 913 1461 1235 995 756 798 1033 1199 1402 1482 917 741 639 418 223 50 27 0 0 0 0 0 0 0 0 0 0 0 0 0 0 0 8 13 21 10 13 11
275 380 71 486 896 1063 1373 1186 850 657 789 955 1070 1366 1505 1014 865 683 446 274 127 28 0 0 0 0 0 0 8 0 0 0 0 0 0 0 0 14 18 15 15 15 25
869 698 581 651 586 664 682 559 727 676 760 869 1057 1201 1363 1130 910 700 473 272 132 32 0 0 0 0 0 3 0 0 0 0 0 0 0 0 0 8 9 12 13 18 15
983 797 639 591 464 480 325 130 458 732 874 926 1034 1169 1249 1209 861 714 507 288 226 158 17 0 0 0 0 0 0 0 0 0 0 0 0 0 2 5 9 11 12 15 16
480 453 118 279 412 142 107 70 180 803 1027 1141 1149 1143 1057 1052 808 640 483 359 242 104 31 0 0 0 7 0 0 0 0 0 0 0 0 0 1 1 5 8 9 13 15
272 280 230 196 183 3 2 8 101 599 596 716 898 927 877 891 668 457 300 234 141 81 25 0 0 0 0 0 0 0 0 0 0 0 0 0 1 4 5 10 12 12 11
1 85 170 19 0 2 4 7 131 487 367 351 463 408 430 389 253 66 107 148 151 83 12 0 0 0 0 0 0 0 0 0 0 0 0 0 1 3 5 5 14 11 11
3 6 6 5 3 0 0 58 195 253 165 74 14 17 11 44 54 74 107 119 119 101 35 0 0 0 0 0 0 0 0 0 0 0 0 0 5 5 6 11 14 13 19
1 2 2 4 2 4 2 1 133 28 1 0 0 10 38 47 17 35 35 33 41 35 0 0 0 0 0 0 0 0 0 0 0 0 0 0 0 7 11 15 17 20 21
2 1 0 3 2 1 19 70 14 5 0 0 5 29 16 12 0 8 21 13 0 0 0 0 0 0 0 0 0 0 0 0 0 0 0 0 0 8 17 13 12 14 12
1 1 0 0 0 0 0 0 2 0 0 1 24 15 0 0 0 0 2 0 0 0 0 0 0 0 0 0 0 0 0 0 0 0 0 0 0 0 9 15 17 16 9
2 1 0 0 0 0 0 0 0 0 0 29 33 11 11 0 0 0 0 0 0 0 0 0 0 0 0 0 0 0 0 0 0 0 0 0 0 0 0 0 17 24 17
4 1 0 0 0 0 0 0 0 0 1 42 25 65 34 12 19 0 14 3 0 0 0 0 0 0 0 0 0 0 0 0 0 0 0 0 0 0 0 0 0 8 31
2 2 0 0 0 0 0 0 0 0 14 28 13 51 70 95 47 54 55 55 13 1 0 0 0 0 0 0 0 0 0 0 0 0 0 0 0 0 0 0 3 65 50
0 0 0 0 0 0 0 0 0 0 0 16 0 42 68 84 127 100 80 46 13 0 0 0 0 0 0 0 0 0 0 0 0 0 0 0 0 0 0 0 0 0 0
0 0 0 0 0 0 0 0 0 0 0 0 9 35 64 35 57 119 89 12 0 0 0 0 0 0 0 0 0 0 0 0 0 0 0 0 0 0 0 0 0 0 0
2 0 0 0 0 0 0 0 0 0 0 0 5 13 3 23 47 66 122 7 0 0 0 0 0 0 0 0 0 0 0 0 0 0 0 0 0 0 0 0 0 0 0
1 1 0 0 0 0 0 0 0 0 0 0 0 0 0 0 26 37 63 25 0 0 0 0 0 0 0 0 0 0 0 0 0 0 0 0 0 0 0 0 0 0 0
0 0 0 0 0 0 0 0 0 0 0 0 0 0 0 0 0 33 61 24 0 0 0 0 0 0 0 0 0 0 0 0 0 0 0 0 0 0 0 0 0 0 0
0 0 0 0 0 0 0 0 0 0 0 0 0 0 0 0 0 36 63 8 0 0 0 0 0 0 0 0 0 0 0 0 0 0 0 0 0 0 0 0 0 0 0
0 0 0 0 0 0 0 0 0 0 0 0 0 0 0 0 17 22 33 2 0 0 0 0 0 0 0 0 0 0 0 0 0 0 0 0 0 0 0 0 0 0 0
0 0 0 0 0 0 0 0 0 0 0 0 0 0 0 2 19 27 73 41 2 0 0 0 0 0 0 0 0 0 0 0 0 0 0 0 0 0 0 0 0 0 0

GFSSE_con_sbcape_060.txt.gz
CAPE
1028 1265 1488 1651 1604 1462 1334 1152 1196 1263 1421 1382 1241 1207 1104 1043 907 749 601 434 372 379 68 34 32 31 26 26 16 17 29 44 67 153 202 83 64 47 63 94 99 40 173
1201 1270 1342 1472 1482 1440 1364 1224 1234 1273 1352 1464 1280 1144 1054 1014 852 489 432 424 453 371 29 9 16 13 14 21 24 26 31 29 27 37 57 57 57 54 75 70 137 85 172
1258 1294 1368 1364 1424 1481 1562 1375 1419 1513 1554 1481 1277 1122 1050 925 600 533 577 552 583 543 118 79 47 10 9 10 17 11 10 12 24 19 4 0 12 36 31 37 58 61 54
1351 1131 987 1334 1376 1512 1443 1434 1515 1597 1600 1395 1234 1107 1055 886 679 759 608 520 597 635 302 104 188 72 7 8 7 1 0 0 0 0 0 0 3 19 13 16 11 13 29
858 646 883 1144 1150 1251 1331 1355 1521 1557 1448 1229 1201 1170 1034 810 807 798 566 520 649 598 209 209 169 77 3 8 6 2 0 0 0 0 0 0 3 17 22 14 21 23 19
496 752 483 537 837 877 765 1307 1492 1445 1200 1041 1054 1077 967 756 825 730 497 512 567 379 85 28 189 2 0 0 0 0 0 0 0 0 0 1 0 18 18 17 16 22 17
321 689 914 371 770 812 846 1133 1128 1324 1095 966 916 845 788 634 721 596 515 395 188 29 18 111 1 0 0 0 0 0 0 0 0 0 0 0 1 18 16 17 17 16 18
286 496 771 454 768 784 841 540 471 612 616 814 699 718 643 454 452 586 410 199 36 84 175 231 15 0 0 0 0 0 0 0 0 0 0 0 16 15 17 16 16 16 14
272 517 757 504 636 359 215 46 67 153 522 680 585 648 546 414 343 362 217 28 7 96 258 76 0 0 0 0 0 0 0 0 0 0 0 0 11 13 13 10 10 9 9
615 573 322 193 0 0 0 0 0 4 396 623 684 580 438 364 256 112 0 0 0 0 49 42 0 0 0 0 0 0 0 0 0 0 0 3 12 12 13 10 11 8 8
271 221 201 19 1 0 0 0 0 5 137 409 560 401 272 130 38 0 0 0 0 0 2 12 33 1 0 0 0 0 0 0 0 0 0 16 13 12 13 11 9 7 8
169 227 103 7 5 6 8 1 0 0 0 111 425 283 145 16 0 0 0 0 0 0 4 27 43 12 0 0 0 0 0 0 0 0 0 16 14 12 14 13 9 7 7
80 19 2 2 1 0 1 3 4 17 38 101 374 236 60 19 2 0 0 0 0 0 0 0 0 0 0 0 0 0 0 0 0 0 1 16 11 10 12 9 12 13 12
42 5 1 20 15 1 3 0 20 0 28 72 199 154 69 0 0 0 0 0 0 0 0 0 0 0 0 0 0 0 0 0 0 0 0 5 10 6 10 17 20 20 10
1 3 2 1 0 0 0 0 9 14 26 56 135 183 74 12 0 0 0 0 0 0 0 0 0 0 0 0 0 0 0 0 0 0 0 0 2 6 8 22 28 25 27
2 4 7 5 0 0 0 2 0 0 0 12 105 110 37 0 0 0 0 0 0 0 0 0 0 0 0 0 0 0 0 0 0 0 0 0 0 2 9 13 21 34 34
3 3 2 8 1 0 0 0 0 0 0 0 30 26 0 0 0 0 0 0 0 0 0 0 0 0 0 0 0 0 0 0 0 0 0 0 0 0 0 2 28 28 34
1 1 2 3 7 0 5 0 0 0 4 1 2 6 0 3 2 0 0 0 0 0 0 0 0 0 0 0 0 0 0 0 0 0 0 0 0 0 0 0 0 61 60
1 2 3 1 1 0 1 0 0 3 0 24 19 8 17 11 2 1 0 0 0 0 0 0 0 0 0 0 0 0 0 0 0 0 0 0 0 0 0 0 0 0 58
1 2 2 0 0 0 0 0 0 0 12 21 23 26 45 29 21 13 14 3 0 0 0 0 0 0 0 0 0 0 0 0 0 0 0 0 0 0 0 0 0 0 30
1 2 1 1 0 0 0 0 0 0 0 2 31 60 64 75 79 55 63 49 31 12 0 0 0 0 0 0 0 0 0 0 0 0 0 0 0 0 0 0 0 0 0
0 0 1 0 0 0 0 0 0 0 0 6 13 21 43 55 60 92 113 74 27 12 0 0 0 0 0 0 0 0 0 0 0 0 0 0 0 0 0 0 0 0 0
0 0 0 0 0 0 0 0 0 0 0 0 1 2 4 8 5 36 56 35 36 0 1 0 0 0 0 0 0 0 0 0 0 0 0 0 0 0 0 0 0 0 0
0 0 0 0 0 0 0 0 0 0 0 0 0 3 9 14 0 8 11 4 2 0 0 0 0 0 0 0 0 0 0 0 0 0 0 0 0 0 0 0 0 0 0
0 0 0 0 0 0 0 0 0 0 0 0 0 5 6 0 0 0 0 0 0 0 1 0 0 0 0 0 0 0 0 0 0 0 0 0 0 0 0 0 0 0 0
0 0 0 0 0 0 0 0 0 0 0 0 0 0 0 0 0 0 0 0 0 0 0 0 0 0 0 0 0 0 0 0 0 0 0 0 0 0 0 0 0 0 0

GFSSE_con_sbcape_063.txt.gz
CAPE
1097 1348 1239 1390 1586 1697 1763 1551 1434 1489 1484 1361 1211 1155 1260 1303 1224 1159 1033 899 805 763 327 226 208 47 21 30 71 50 189 256 222 202 213 97 46 59 38 202 141 87 305
1167 1263 1027 1465 1611 1623 1782 1733 1604 1576 1565 1438 1330 1281 1239 1206 1075 906 811 731 664 505 38 30 33 19 21 29 37 19 3 27 68 141 186 55 45 52 40 104 143 57 93
1323 1237 1232 1378 1576 1670 1754 1825 1783 1763 1709 1563 1459 1358 1193 993 818 716 587 490 460 340 21 25 33 42 31 24 26 16 0 3 14 25 38 20 19 18 11 15 31 19 25
1467 1370 1404 1462 1565 1664 1703 1764 1800 1934 1797 1594 1468 1331 1087 870 827 784 641 473 452 390 20 17 18 26 40 19 14 0 0 0 0 2 3 9 3 13 6 4 10 15 21
1606 1605 1617 1407 1499 1660 1697 1816 1857 1736 1574 1430 1329 1284 948 1003 974 891 656 549 588 574 195 32 11 9 10 17 9 1 0 0 0 2 3 8 12 19 25 24 22 15 23
1220 1363 1123 1179 1164 1724 1808 1890 1760 1492 1285 1238 1144 1068 986 1103 1049 842 605 642 656 621 477 25 4 5 10 2 0 0 0 0 0 0 4 15 8 22 23 18 23 13 21
880 1186 976 598 1049 1378 1866 1903 1694 1345 1183 1149 997 784 942 1054 921 707 593 548 542 531 516 63 0 0 1 0 0 0 0 0 0 0 2 6 16 24 26 21 20 19 18
880 1189 899 455 896 1054 1289 1228 1402 1235 1179 1005 846 685 870 773 605 517 397 282 288 474 422 63 0 0 0 0 0 0 0 0 0 0 3 10 32 19 25 21 14 14 14
528 579 1229 838 996 933 860 631 891 1021 1061 870 696 540 486 309 339 383 186 190 271 434 208 2 0 0 0 0 0 0 0 0 0 0 1 10 14 16 15 15 13 11 9
412 650 1216 703 986 938 560 182 415 574 727 660 496 341 235 221 298 234 126 261 411 377 140 0 0 0 0 0 0 0 0 0 0 1 4 7 17 14 13 13 11 8 7
646 698 955 352 475 554 185 116 172 72 325 443 408 279 181 401 165 14 17 158 352 148 25 0 0 7 0 0 0 0 0 0 0 0 2 21 18 12 11 12 8 8 7
149 425 210 71 17 6 0 0 0 56 86 168 337 297 223 103 0 0 5 44 121 107 73 13 11 5 0 0 0 0 0 0 0 1 2 26 22 18 16 12 10 11 9
102 136 128 3 5 6 0 0 0 19 96 118 214 204 159 11 0 3 0 3 50 65 37 8 1 0 0 0 0 0 0 0 0 2 6 20 22 16 18 14 11 10 5
75 19 6 5 1 1 5 0 0 0 15 87 140 256 164 1 1 0 0 3 8 0 35 13 0 0 0 0 0 0 0 0 0 0 5 16 25 15 15 15 11 10 7
67 27 20 23 7 4 5 5 1 3 35 46 142 233 71 9 5 11 2 1 0 0 2 0 0 0 0 0 0 0 0 0 0 0 5 8 17 27 17 20 20 17 14
4 4 2 3 2 5 4 12 39 63 51 63 153 231 114 43 19 12 7 0 0 0 0 0 0 0 0 0 0 0 0 0 0 0 0 3 2 15 22 19 26 28 25
3 4 2 3 0 0 10 20 25 17 27 35 167 208 128 70 79 48 14 0 0 0 0 0 0 0 0 0 0 0 0 0 0 0 0 0 0 0 0 25 20 31 33
5 4 6 6 1 0 5 0 13 25 51 25 51 130 121 100 65 33 6 3 6 6 4 0 0 0 0 0 0 0 0 0 0 0 0 0 0 0 0 0 0 51 39
4 4 5 6 9 0 1 0 2 18 69 24 1 45 90 82 69 58 19 26 19 29 31 1 0 0 0 0 0 0 0 0 0 0 0 0 0 0 0 0 0 0 93
5 3 3 11 7 11 0 1 3 1 64 67 46 21 75 56 51 71 63 57 47 24 52 40 8 0 0 0 0 0 0 0 0 0 0 0 0 0 0 0 0 0 0
4 2 3 1 2 9 1 1 0 0 65 106 75 26 71 51 63 121 128 94 90 115 86 41 40 1 0 0 0 0 0 0 0 0 0 0 0 0 0 0 0 0 0
6 4 3 1 1 2 6 0 0 10 20 56 72 40 71 60 86 124 155 178 134 148 114 74 58 50 23 0 0 0 0 0 0 0 0 0 0 0 0 0 0 0 0
1 4 2 1 0 0 0 0 0 0 0 26 34 60 86 107 148 182 189 200 206 256 231 175 82 45 109 0 0 17 0 0 0 0 0 0 0 0 0 0 0 0 0
11 11 6 3 2 0 0 0 0 0 0 6 15 57 54 99 138 118 110 121 175 225 180 141 46 92 100 58 0 0 0 0 0 2 0 0 0 0 0 0 0 0 0
3 10 4 1 4 0 0 0 0 0 0 0 0 35 41 36 53 61 55 95 130 184 208 215 112 61 68 80 9 0 0 0 0 0 0 0 0 0 0 0 0 0 0
4 10 6 1 5 0 0 0 0 0 0 0 0 4 18 47 42 64 50 76 114 120 140 190 187 131 75 32 0 0 0 0 0 0 0 0 0 0 0 0 0 0 0

GFSSE_con_sbcape_066.txt.gz
CAPE
1185 1656 1365 1628 1894 1799 1695 1456 1379 1455 1498 1412 1257 1186 1161 1228 1346 1080 1025 960 875 838 409 290 354 109 99 134 183 228 429 389 391 394 344 196 169 175 158 341 305 184 327
1348 1560 1326 1637 1916 1946 1723 1574 1564 1634 1612 1512 1306 1359 1341 1411 1350 1262 1093 923 829 738 212 22 18 69 105 55 48 313 398 307 281 293 366 173 136 158 138 254 263 93 177
1411 1459 1319 1578 1940 2009 1888 1815 1855 1867 1734 1577 1517 1537 1522 1494 1361 1197 912 768 690 696 119 12 18 32 24 10 45 79 26 97 67 218 235 46 32 33 31 34 90 26 31
1524 1504 1272 1538 1817 2044 1972 1945 1917 1952 1775 1646 1669 1628 1532 1387 1200 996 698 484 465 501 84 21 15 18 21 11 16 0 0 0 11 109 8 18 27 16 14 16 17 15 14
1584 1548 1386 1486 1341 1953 2013 1982 1958 1830 1677 1664 1607 1599 1441 1248 1053 787 463 322 346 318 14 20 43 21 16 21 0 0 0 0 0 2 0 4 14 15 10 6 11 11 17
1796 1440 1324 1329 1289 1534 2027 2042 1966 1727 1594 1546 1443 1441 1499 1315 1104 754 451 403 410 253 14 18 30 24 16 0 0 0 0 0 8 0 0 3 11 13 16 9 12 9 9
2068 1552 1832 1203 971 627 1097 1594 1901 1610 1507 1401 1266 1345 1350 1301 1098 734 576 532 532 298 22 13 10 5 1 0 0 0 0 0 0 0 2 5 16 17 14 13 11 12 8
1514 1737 1646 794 595 460 792 1437 1508 1345 1341 1215 1151 1247 1304 1126 903 784 707 675 520 245 41 11 6 3 0 0 0 0 0 0 0 0 2 7 27 17 19 16 15 11 10
1100 1584 1413 993 874 801 663 1030 1005 1156 1156 1046 1089 1094 1007 819 686 656 623 621 531 191 49 6 5 0 0 0 0 0 0 0 0 1 3 7 20 17 19 14 10 11 10
1104 813 1359 1691 1235 1048 1165 611 604 875 836 853 984 857 582 507 374 250 251 529 420 181 87 19 0 0 0 0 0 0 0 0 0 2 3 13 26 22 18 13 14 10 9
1308 1150 1352 1084 1089 905 731 749 674 598 515 601 730 446 318 486 266 140 148 390 261 126 88 16 0 0 0 0 0 0 0 0 2 2 4 26 22 16 15 12 13 9 10
567 711 1321 1095 1051 886 588 687 558 288 288 240 334 259 346 403 222 26 195 252 195 103 90 27 0 0 0 0 0 0 0 0 1 4 5 28 21 16 13 14 12 12 9
264 627 697 546 266 372 326 16 98 105 86 109 228 224 381 384 78 110 333 358 181 52 3 0 0 0 0 0 0 0 0 0 0 0 1 25 16 21 18 17 12 11 7
199 85 70 153 32 4 13 21 1 0 15 38 82 202 263 186 183 167 184 187 127 63 34 1 0 0 0 0 0 0 0 0 0 0 3 20 26 12 11 13 16 12 7
127 18 22 8 2 0 2 7 7 2 1 32 48 100 278 201 168 83 192 214 179 207 148 70 25 0 0 0 0 0 0 0 0 4 6 11 23 24 15 18 14 12 7
48 24 10 17 16 6 2 7 13 21 13 70 69 123 249 213 163 81 76 67 66 158 163 81 40 3 0 0 0 0 0 0 0 3 5 3 8 26 38 26 28 21 20
32 9 14 6 3 5 3 4 4 21 31 22 57 170 306 174 145 175 78 62 54 63 59 37 33 8 0 0 0 0 0 0 0 0 0 6 1 6 22 40 49 32 28
6 3 5 5 2 5 7 9 44 10 10 44 75 137 177 164 160 163 108 87 58 50 25 23 24 18 7 1 0 0 0 0 0 0 0 0 1 2 0 5 68 77 45
34 9 8 6 2 8 16 42 48 17 15 64 101 143 103 163 179 131 105 71 128 96 27 18 31 13 2 0 0 0 0 0 0 0 0 0 0 0 0 0 0 29 88
6 8 7 9 3 14 39 20 30 44 42 55 57 136 115 85 107 94 80 110 121 173 133 98 108 74 39 10 0 0 0 0 0 0 0 0 0 0 0 0 0 0 7
7 3 10 5 6 19 19 10 17 36 80 34 18 53 138 103 146 196 103 126 153 167 235 200 200 155 97 76 1 0 0 0 0 0 0 0 0 0 0 0 0 0 0
15 10 6 7 15 10 18 5 15 48 34 50 26 43 75 121 81 119 167 144 150 165 208 266 251 210 219 122 199 250 226 57 1 0 0 0 0 0 0 0 0 0 0
15 11 11 7 5 12 12 19 3 2 6 53 66 68 68 100 33 79 166 162 202 215 220 237 244 278 282 211 189 258 213 204 214 68 0 0 0 0 0 0 0 0 0
9 11 14 8 5 6 15 2 2 0 0 31 41 43 42 108 62 69 200 246 273 330 291 293 286 267 322 303 195 181 278 248 163 127 1 0 0 0 0 0 0 0 0
8 5 20 14 8 4 4 0 0 0 0 41 49 72 31 67 129 139 249 273 311 409 316 490 321 372 373 479 248 215 152 195 187 211 164 92 0 0 0 0 0 0 0
2 12 16 17 11 7 2 5 0 17 23 43 25 54 26 26 93 93 123 249 277 254 301 316 356 503 333 430 409 430 279 234 184 164 51 158 67 0 0 0 0 0 0

GFSSE_con_sbcape_069.txt.gz
CAPE
1080 1748 1554 1740 1942 1694 1499 1425 1397 1454 1556 1416 1325 1241 1416 1293 1156 1029 967 927 934 1006 738 613 541 481 411 322 296 664 606 517 414 421 432 396 297 277 256 397 374 261 437
1324 1928 1436 1767 2026 1925 1787 1576 1548 1620 1619 1566 1374 1334 1447 1273 1230 1154 1167 1126 1079 1022 478 383 373 320 343 294 482 536 480 350 323 385 496 301 257 273 208 374 349 181 360
1544 2074 1500 1647 1951 2075 1930 1730 1759 1841 1777 1584 1498 1498 1588 1422 1436 1383 1205 1082 1020 803 120 258 263 210 193 141 232 365 383 432 470 463 239 34 47 71 54 18 144 20 20
1571 1804 1429 1580 1938 2059 1822 1730 1822 1959 1826 1661 1682 1741 1756 1666 1535 1319 1103 967 853 606 68 211 169 95 42 12 63 105 111 165 283 310 15 22 18 21 14 6 7 8 16
1724 1686 1665 1625 1860 1970 1837 1817 1836 1820 1663 1686 1731 1896 1828 1686 1467 1185 830 790 747 447 36 57 79 35 9 12 0 0 0 0 0 43 18 20 25 14 11 14 11 11 18
1820 1618 1220 1453 1585 1568 1760 1762 1822 1683 1471 1614 1664 1788 1723 1588 1312 979 723 687 668 527 274 22 31 9 8 0 0 0 0 0 24 2 3 16 16 21 10 5 9 10 10
2233 1822 1533 1197 1314 1334 1499 1002 960 1533 1445 1577 1560 1504 1462 1326 1054 766 576 458 332 344 226 35 13 3 0 0 0 0 0 0 1 0 2 6 13 9 12 12 9 9 8
2203 2019 1727 1281 1224 1052 719 367 0 749 1392 1331 1370 1370 1340 1073 880 758 595 390 190 119 98 38 11 1 0 0 0 0 0 6 5 3 1 3 20 10 12 12 12 12 11
1853 2191 1850 1752 1168 521 31 5 0 31 1180 1154 1197 1285 1106 834 754 840 741 377 148 94 51 9 5 0 0 0 0 0 0 6 4 1 0 3 14 12 15 16 11 12 11
1749 1810 1984 1781 1052 500 246 3 125 221 745 971 1147 1053 831 819 835 812 644 276 126 90 25 4 3 0 0 0 0 0 0 0 1 0 1 6 16 17 18 15 14 14 10
1523 1413 1693 1576 1517 990 680 665 428 450 261 782 961 646 560 901 766 634 339 173 88 27 7 2 0 0 0 0 0 0 0 6 4 0 0 20 19 16 14 13 13 9 9
1068 1300 1305 1341 1390 1189 945 679 652 321 599 651 730 429 415 548 682 557 332 127 46 0 0 0 0 0 0 0 0 0 6 13 6 0 2 27 19 17 14 13 9 7 4
409 677 831 898 1177 1291 1215 1165 681 593 324 222 246 378 373 302 156 511 455 98 0 0 0 0 0 0 0 0 0 7 6 20 10 2 5 26 22 17 13 13 8 4 4
187 374 580 643 640 241 797 402 348 488 132 30 39 80 81 111 145 338 317 37 0 0 0 0 0 18 0 0 0 0 3 19 7 2 4 22 21 16 17 14 11 8 5
187 214 63 2 165 98 30 129 284 55 44 15 13 2 24 75 150 310 247 90 21 73 0 0 21 6 1 0 0 0 5 21 10 3 4 15 24 24 10 10 16 11 8
116 70 13 8 2 7 163 9 20 14 2 12 9 33 44 73 179 259 236 279 167 164 88 39 44 5 0 0 0 0 2 4 18 15 2 5 18 31 31 15 11 13 13
111 43 21 7 7 3 4 6 2 3 2 18 5 54 72 121 236 208 328 285 272 191 287 176 67 3 0 0 0 0 0 0 1 25 1 1 4 8 32 58 29 11 15
17 33 24 10 13 3 7 13 5 12 10 3 0 38 46 187 304 325 262 193 244 283 251 151 55 10 0 0 0 0 0 0 0 0 4 35 2 3 0 41 71 62 33
2 13 11 15 15 6 5 22 58 15 31 28 0 33 74 189 241 282 237 260 391 274 264 189 116 61 29 13 0 0 0 0 0 0 0 0 13 4 8 0 8 39 50
15 29 6 9 8 4 27 33 6 9 9 28 27 55 136 149 201 187 207 302 253 163 125 189 200 122 100 56 1 0 0 0 0 0 0 0 0 0 0 9 0 0 6
7 11 7 4 2 6 19 35 6 12 8 21 14 57 135 169 171 208 166 248 268 259 214 308 280 342 186 145 19 0 0 0 0 0 0 0 0 0 0 0 0 0 0
14 8 10 4 7 5 18 17 17 3 4 0 7 49 134 184 152 143 144 167 208 273 386 389 341 302 246 274 123 184 134 28 3 0 1 0 0 0 0 0 0 0 0
14 12 14 11 8 9 12 16 22 22 32 26 29 19 72 128 120 121 182 218 215 316 410 443 478 436 251 349 276 367 189 173 259 153 65 1 0 0 0 0 0 0 0
10 13 16 11 13 6 13 16 12 25 33 3 1 15 23 121 92 117 173 181 275 338 401 439 437 464 238 218 261 235 376 358 249 104 157 85 53 0 0 0 0 0 0
4 8 15 11 7 15 15 13 4 0 27 6 4 16 40 62 125 78 122 154 144 353 389 498 374 372 351 178 157 446 341 218 298 191 121 88 9 6 0 0 0 0 0
48 17 21 13 12 11 15 19 3 0 13 0 33 40 21 41 155 144 96 102 160 237 366 292 198 191 224 377 224 363 311 178 168 263 274 384 323 69 0 0 0 0 0

GFSSE_con_sbcape_072.txt.gz
CAPE
1764 1456 1689 1878 1680 1561 1498 1438 1436 1457 1410 1304 1432 1417 1344 1197 994 917 866 829 786 899 812 679 733 476 519 536 606 714 601 549 538 562 580 617 354 356 533 527 373 236 581
1947 1528 1685 1986 1925 1789 1689 1609 1574 1626 1513 1473 1504 1450 1338 1198 1083 1071 1027 980 1209 1223 732 683 589 420 429 407 672 586 555 489 422 439 528 376 304 226 280 434 352 278 485
2315 1670 1604 1902 2181 1954 1857 1760 1801 1855 1779 1613 1622 1456 1380 1354 1271 1269 1222 1239 1148 1101 704 617 567 451 351 494 528 526 519 500 338 280 286 5 27 125 60 108 236 115 41
1810 1837 1714 1712 2008 2016 1871 1772 1842 1968 1864 1678 1711 1570 1535 1511 1549 1426 1205 1031 1004 1038 546 325 388 278 198 406 387 510 565 510 183 44 3 13 12 24 12 11 13 11 14
1693 1807 2010 1637 1785 2078 1876 1715 1587 1804 1683 1660 1709 1777 1718 1804 1642 1429 1081 893 861 994 447 320 156 95 57 55 61 46 65 45 82 14 0 4 4 16 10 11 18 21 21
1877 1818 1265 1507 1812 2025 1904 1714 1483 1633 1506 1571 1637 1829 1941 1800 1634 1336 967 733 758 766 343 160 15 0 7 0 0 0 0 2 15 0 0 9 14 31 14 16 10 6 9
2100 2263 1623 1417 1722 1764 1839 1506 952 1214 1332 1461 1741 1722 1714 1532 1289 1070 863 706 546 514 336 52 8 0 0 0 0 0 0 7 0 0 0 0 1 14 22 16 16 15 15
2210 2527 2185 1392 1473 1250 1198 834 219 2 162 1296 1490 1563 1502 1207 951 894 790 655 561 358 178 68 2 0 0 0 0 0 0 6 0 0 0 1 31 20 20 16 16 15 14
2036 2485 2276 1565 761 863 519 94 43 1 43 356 1147 1239 1028 780 692 751 655 540 364 199 86 9 0 0 0 0 0 0 0 19 0 0 0 4 24 20 18 13 9 9 9
2032 2049 1921 1825 1184 254 63 1 0 0 29 166 810 770 622 640 710 618 431 300 224 107 12 2 0 0 0 0 0 0 0 13 0 0 0 6 22 14 11 10 8 8 8
1491 1806 1734 1445 1468 824 87 18 22 3 0 18 740 522 429 580 602 336 165 134 127 29 6 1 0 0 0 0 0 0 1 1 0 0 0 30 21 14 10 7 7 7 8
977 1679 1405 1151 1031 852 610 23 34 51 0 71 525 426 450 474 520 299 113 60 29 4 3 0 0 0 0 0 0 0 0 3 0 0 0 25 16 13 11 11 10 7 7
687 864 784 824 698 704 455 272 295 35 1 13 251 235 294 428 236 122 16 11 0 0 0 0 0 0 0 0 0 0 7 1 0 0 5 23 16 16 15 11 9 7 3
295 442 617 549 670 623 628 315 372 237 223 173 116 203 184 76 144 68 0 0 0 0 0 0 0 0 0 0 0 0 23 0 0 0 3 23 16 13 17 14 9 6 3
219 319 282 72 351 237 342 312 299 218 96 58 8 1 8 27 24 60 0 0 0 0 0 0 0 0 0 0 0 0 29 6 0 0 0 15 27 17 15 13 9 6 3
191 213 1 4 2 55 48 127 84 29 3 1 1 0 0 17 17 42 26 0 4 0 4 0 0 0 0 0 0 0 19 8 0 0 0 2 13 22 14 13 10 9 6
204 44 2 1 10 3 33 23 60 7 1 1 0 0 0 0 1 22 113 29 40 19 20 0 0 0 0 0 0 0 5 20 5 0 0 0 0 7 15 21 14 5 10
127 10 2 4 13 3 1 1 3 2 2 2 1 0 0 0 1 11 117 151 105 79 116 51 2 4 0 0 0 0 0 0 6 0 0 0 0 0 2 34 33 25 15
15 8 3 1 12 7 6 1 1 2 1 1 6 2 0 1 8 51 108 163 204 146 173 18 23 1 3 1 0 0 0 0 0 0 0 0 0 0 0 1 19 22 25
10 3 3 4 15 7 13 4 4 3 3 0 4 1 0 0 15 90 78 92 78 32 153 75 51 60 8 1 0 0 0 0 0 0 0 0 0 0 0 0 0 0 1
16 4 5 5 3 6 7 5 3 6 6 2 0 1 1 15 76 128 132 195 161 130 121 195 178 167 131 100 11 0 0 0 0 0 0 0 0 0 0 0 0 0 0
4 12 4 1 4 1 12 2 2 5 8 2 0 0 12 26 66 78 88 132 164 163 157 173 157 142 118 91 32 13 7 1 0 0 0 0 0 0 0 0 0 0 0
3 12 2 5 7 7 4 3 3 1 1 4 1 0 2 27 32 58 71 99 143 155 169 182 160 144 125 122 117 59 48 33 5 0 0 0 0 0 0 0 0 0 0
4 7 10 6 4 3 12 3 1 2 0 0 0 0 9 42 55 72 83 96 92 123 217 196 201 174 149 72 134 119 169 196 57 54 12 0 0 0 0 0 0 0 0
0 1 8 5 2 2 4 2 0 6 2 0 0 0 6 11 25 56 80 133 127 126 189 180 166 151 109 62 78 42 77 98 122 45 42 1 0 0 0 0 0 0 0
6 1 10 16 10 0 4 6 6 4 2 2 0 0 0 0 43 20 46 109 122 179 183 106 106 77 62 24 36 87 70 43 76 54 69 49 9 0 0 0 0 0 0

GFSSE_con_sbcape_075.txt.gz
CAPE
1306 1639 1531 1620 1571 1593 1561 1531 1494 1394 1488 1594 1526 1393 1267 1181 1059 947 869 753 743 912 807 761 941 831 759 695 855 835 699 600 563 665 751 727 459 414 341 533 421 255 752
1440 1691 1721 1695 1684 1732 1728 1673 1651 1514 1664 1693 1587 1424 1255 1182 1109 1054 929 1043 1180 1073 609 671 783 392 601 540 733 652 552 487 468 510 579 393 291 219 262 460 432 297 542
1451 1684 1989 1776 1781 1800 1850 1818 1815 1748 1819 1775 1640 1402 1297 1312 1251 1111 1281 1325 1344 1342 862 495 313 291 532 781 659 557 420 239 152 181 220 28 63 264 160 190 326 193 176
1502 1527 1816 2020 1884 1856 1807 1828 1903 1920 1880 1793 1672 1498 1459 1510 1470 1493 1326 1245 1336 1358 764 416 463 492 671 638 525 517 335 184 86 41 5 17 29 100 103 62 43 32 22
1507 1402 1649 1925 1969 1897 1811 1801 1850 1829 1697 1672 1634 1637 1623 1691 1697 1467 1242 1216 1312 1172 798 508 391 435 583 507 559 326 193 60 5 0 0 3 10 33 23 18 17 17 15
1414 1519 1477 1672 2003 1984 1870 1816 1777 1709 1539 1560 1573 1660 1819 1827 1692 1293 1043 1193 1251 1104 885 410 277 222 86 71 74 28 18 23 0 0 1 11 7 26 18 12 9 14 13
1531 1320 1306 1432 1909 2038 1986 1830 1618 1456 1023 1532 1556 1620 1734 1713 1517 1090 947 1021 988 970 570 460 174 58 2 7 5 4 4 0 0 0 0 3 13 23 14 9 5 8 17
1690 1385 1322 1426 1804 1868 1808 1451 1005 34 3 0 109 1179 1601 1451 1064 802 735 756 734 493 183 198 73 0 0 0 0 0 0 0 0 0 0 1 27 24 22 17 17 16 15
1393 1701 1244 1296 1106 882 676 436 173 159 41 3 0 475 779 900 755 736 635 572 488 317 132 52 14 1 0 0 0 0 0 0 0 0 0 1 26 17 20 18 16 14 13
1331 1350 1582 942 493 179 11 35 87 66 4 45 23 64 354 558 635 593 456 388 322 218 60 27 3 0 0 0 0 0 0 0 0 0 0 8 25 16 19 17 15 10 10
1218 1236 1067 1131 204 12 0 0 47 51 41 0 13 0 294 340 277 197 207 231 117 36 34 5 0 0 0 0 0 0 0 0 0 0 0 27 18 15 13 12 10 10 10
653 720 926 799 524 4 12 5 0 0 1 11 3 1 213 178 79 111 70 54 20 7 5 0 0 0 0 0 0 0 0 0 0 0 0 23 16 12 14 9 9 10 9
373 527 369 330 141 159 40 3 1 0 0 2 3 1 118 93 48 5 2 2 2 0 0 0 0 0 0 0 0 0 0 0 0 0 3 16 17 11 9 8 6 7 6
127 193 186 217 174 68 59 5 4 0 1 6 8 57 120 27 2 0 0 0 0 0 0 0 0 0 0 0 0 0 0 0 0 0 1 16 23 12 11 8 6 6 5
113 91 0 0 80 145 92 65 106 10 3 0 77 68 71 33 0 0 0 0 0 0 0 0 0 0 0 0 0 0 0 0 0 0 0 10 19 21 13 11 8 5 4
58 0 0 0 0 9 0 40 158 103 48 27 17 5 41 9 0 0 0 0 0 0 0 0 0 0 0 0 0 0 0 0 0 0 0 0 11 12 21 10 7 5 5
1 0 0 0 0 0 0 7 13 15 15 1 5 0 2 0 0 0 0 0 0 0 0 0 0 0 0 0 0 0 0 0 0 0 0 0 0 3 14 17 12 7 8
0 0 0 0 1 0 1 2 1 2 2 0 0 0 0 0 0 0 0 0 0 0 0 0 0 0 0 0 0 0 0 0 0 0 0 0 0 0 0 4 10 11 11
0 0 0 0 3 1 1 4 2 1 0 0 0 0 0 0 0 0 0 0 12 6 16 2 3 0 0 0 0 0 0 0 0 0 0 0 0 0 0 0 2 10 23
0 0 0 0 2 1 1 1 1 1 1 0 0 0 0 0 0 0 16 37 57 36 66 19 9 0 0 0 0 0 0 0 0 0 0 0 0 0 0 0 0 0 1
0 0 0 2 4 3 2 1 1 0 2 2 0 0 0 0 0 0 20 29 63 85 37 7 1 0 0 0 0 0 0 0 0 0 0 0 0 0 0 0 0 0 0
1 3 4 1 5 5 1 0 1 1 1 1 2 0 0 0 0 0 1 4 45 39 46 10 27 29 6 0 0 0 0 0 0 0 0 0 0 0 0 0 0 0 0
1 5 0 0 2 5 2 1 2 2 1 0 0 0 0 0 0 0 0 3 11 26 18 17 43 34 39 8 0 1 0 0 0 0 0 0 0 0 0 0 0 0 0
0 3 3 1 0 0 0 2 1 3 2 0 0 0 0 1 0 0 0 0 6 5 8 56 52 44 38 12 19 37 23 10 17 0 0 0 0 0 0 0 0 0 0
0 1 0 2 3 0 0 0 1 1 1 1 0 0 0 0 0 0 0 0 17 47 81 120 104 99 54 36 24 2 1 10 18 0 0 0 0 0 0 0 0 0 0
0 2 2 2 1 1 3 0 0 0 0 0 0 0 0 0 0 0 0 2 1 22 77 85 119 107 77 14 30 31 12 8 19 8 3 0 0 0 0 0 0 0 0

GFSSE_con_sbcape_078.txt.gz
CAPE
1256 1350 1545 1668 1667 1603 1538 1495 1423 1541 1631 1534 1491 1423 1394 1325 1229 1142 1053 1033 1138 1307 1069 1083 1169 1116 1029 863 981 1060 988 892 795 743 821 671 532 434 463 593 524 235 616
1335 1520 1572 1702 1757 1739 1719 1673 1595 1709 1776 1704 1570 1445 1319 1251 1129 1055 1052 1106 1282 1325 985 977 1087 767 777 701 880 809 792 686 592 657 730 482 384 278 277 366 463 342 519
1541 1670 1584 1645 1829 1850 1846 1829 1866 1946 1911 1788 1600 1461 1343 1291 1173 1074 1074 1163 1197 1308 1031 826 786 783 671 754 706 690 604 509 421 414 401 58 48 199 319 306 537 525 387
1460 1770 1619 1677 1833 1912 1908 1888 1911 1982 1891 1768 1613 1519 1470 1380 1458 1496 1287 1118 1189 1291 1102 663 606 663 819 659 486 425 339 229 118 93 9 59 96 203 239 152 93 52 32
1496 1796 1829 1726 1793 1940 1911 1910 1870 1905 1844 1676 1555 1660 1563 1629 1789 1616 1435 1413 1304 1226 468 549 679 804 696 473 357 249 89 20 4 1 3 23 38 141 81 24 17 9 11
1337 1560 1880 1736 1776 1950 1979 1989 1903 1802 1597 1544 1516 1683 1758 1865 1836 1609 1428 1360 1392 1265 1087 885 950 809 523 365 56 26 0 0 0 0 3 12 11 51 23 17 19 13 12
1149 1351 1640 1806 1822 1969 2074 2058 1905 1640 1574 1343 1417 1576 1775 1826 1694 1457 1320 1240 1227 1070 970 959 771 392 95 3 0 0 0 0 0 0 0 3 3 15 9 9 6 4 14
1181 1195 1306 1724 1900 1979 1949 1810 915 164 226 37 0 0 556 1215 1344 1340 1224 1105 996 852 768 586 208 31 0 0 2 0 0 0 0 0 0 2 15 13 11 16 13 19 15
1212 1115 1138 1428 1856 1899 1704 1258 73 29 11 7 1 0 34 393 503 1169 1117 922 636 555 517 257 41 6 6 0 0 0 0 0 0 0 0 0 25 20 19 14 15 16 16
1084 1217 1069 1062 745 719 829 525 44 201 131 54 43 2 2 254 410 676 766 568 433 369 282 122 2 8 0 0 0 0 0 0 0 0 0 8 22 17 12 10 15 15 14
843 883 1128 749 449 15 13 95 163 208 92 46 11 0 69 109 211 388 357 355 302 199 149 47 0 0 0 0 0 0 0 0 0 0 0 27 20 16 18 14 12 13 13
884 779 544 515 179 0 0 3 17 43 41 3 0 0 87 151 194 227 235 188 115 106 67 3 0 0 0 0 0 0 0 0 0 0 0 26 20 15 16 16 17 16 15
371 334 578 384 84 0 1 1 0 1 1 0 1 0 123 149 126 175 56 24 1 4 1 0 0 0 0 0 0 0 0 0 0 0 5 18 18 16 16 16 16 17 12
253 278 95 63 77 1 1 0 1 1 2 3 4 0 1 103 54 7 1 1 0 0 0 0 0 0 0 0 0 0 0 0 0 0 5 15 20 14 18 14 14 11 11
27 14 3 8 33 67 1 3 12 1 1 1 2 2 1 22 2 2 0 0 0 0 0 0 0 0 0 0 0 0 0 0 0 0 0 10 13 13 12 13 9 10 10
30 0 0 0 1 8 38 2 14 2 1 0 96 2 40 3 0 0 0 0 0 0 0 0 0 0 0 0 0 0 0 0 0 0 0 0 5 13 14 8 5 6 5
3 0 0 0 0 0 0 51 75 17 15 27 115 72 8 0 0 0 0 0 0 0 0 0 0 0 0 0 0 0 0 0 0 0 0 0 0 1 11 14 9 5 4
0 0 0 0 0 0 0 8 57 49 13 32 58 59 5 0 0 0 0 0 0 0 0 0 0 0 0 0 0 0 0 0 0 0 0 0 0 0 0 9 13 11 6
0 0 0 0 0 1 0 1 1 32 4 11 28 7 0 0 0 0 0 0 0 0 0 0 0 0 0 0 0 0 0 0 0 0 0 0 0 0 0 0 1 3 10
0 0 0 0 1 1 1 2 1 9 4 0 0 6 0 0 0 0 0 0 0 0 0 0 0 0 0 0 0 0 0 0 0 0 0 0 0 0 0 0 0 0 0
0 0 0 0 4 4 4 1 1 1 1 1 0 0 0 0 0 0 0 0 0 0 0 0 0 0 0 0 0 0 0 0 0 0 0 0 0 0 0 0 0 0 0
0 0 0 0 2 0 0 0 0 0 1 0 0 0 0 0 0 0 0 0 14 0 0 0 0 0 0 0 0 0 0 0 0 0 0 0 0 0 0 0 0 0 0
0 1 0 0 0 2 0 0 1 0 0 2 1 0 0 0 0 0 0 7 19 12 1 0 0 1 0 0 0 0 0 0 0 0 0 0 0 0 0 0 0 0 0
0 0 0 0 1 0 0 1 0 0 0 0 0 0 0 0 0 0 1 11 9 21 6 1 0 0 0 0 0 2 1 0 1 0 0 0 0 0 0 0 0 0 0
0 0 0 0 1 0 1 0 1 0 0 0 0 0 0 0 0 0 0 3 10 12 19 24 25 8 0 0 0 8 3 0 0 0 0 0 0 0 0 0 0 0 0
0 0 0 0 1 2 0 0 0 0 1 0 0 0 0 0 0 0 0 0 2 6 1 8 24 4 27 30 9 4 1 12 0 0 0 0 0 0 0 0 0 0 0

GFSSE_con_sbcape_081.txt.gz
CAPE
1030 1071 1450 1612 1666 1584 1422 1461 1483 1579 1702 1784 1790 1739 1608 1538 1473 1388 1335 1401 1482 1474 1353 1232 1650 1644 1173 896 977 1067 990 896 848 840 807 672 610 634 549 535 550 273 757
1017 1173 1443 1669 1762 1674 1565 1646 1648 1702 1807 1836 1788 1716 1616 1550 1417 1357 1443 1518 1562 1475 906 1170 1391 1112 840 1004 1127 1052 934 728 625 649 599 593 534 475 480 427 604 471 717
1218 1329 1446 1601 1792 1813 1720 1844 1873 1923 1966 1884 1774 1694 1620 1530 1439 1413 1490 1508 1446 1403 1323 1107 1130 980 712 1041 959 899 798 666 596 577 571 47 166 293 443 647 549 603 367
1400 1345 1451 1608 1789 1901 1860 1959 2029 2084 1995 1890 1763 1641 1570 1475 1456 1490 1505 1417 1458 1578 1458 1064 978 821 933 906 765 678 577 428 319 205 32 60 89 281 266 231 210 206 239
1548 1440 1430 1619 1758 1910 1928 2019 2043 2027 1915 1787 1657 1652 1577 1482 1520 1592 1439 1380 1437 1514 1508 1052 1019 849 797 575 479 349 217 113 42 2 1 0 34 172 194 82 22 22 18
1432 1537 1455 1549 1723 1915 2011 2070 2070 1969 1735 1652 1620 1648 1632 1766 1734 1523 1345 1391 1454 1446 897 1360 1083 849 478 347 157 50 16 2 0 0 2 38 25 93 24 20 14 9 17
1089 1463 1516 1474 1722 1934 2134 2127 2040 1852 1657 1598 1192 1326 1581 1550 1715 1608 1360 1267 1141 842 1064 1204 946 664 292 73 15 0 0 0 0 0 0 7 19 41 39 22 8 14 13
913 1089 1553 1520 1710 1874 2034 1971 1640 752 604 348 146 334 969 888 962 999 1167 1292 1127 993 942 771 614 357 71 36 0 0 0 0 0 0 0 5 21 18 10 7 7 14 13
876 964 1280 1579 1742 1730 1827 1428 1030 282 50 18 5 1 190 202 292 597 1027 911 1034 886 607 503 261 38 126 18 0 0 0 0 0 0 0 8 27 9 23 15 14 15 14
814 858 882 1325 1730 1731 1319 375 403 149 53 32 26 10 0 34 236 433 415 596 702 667 339 219 20 50 45 1 0 0 0 0 0 0 0 2 13 24 24 20 21 15 15
820 757 703 885 1002 857 695 342 306 259 119 90 27 21 16 22 107 185 190 399 532 400 234 77 3 12 6 0 0 0 0 0 0 0 0 7 22 25 20 20 20 18 16
636 691 579 399 255 111 391 387 109 141 138 49 11 4 1 26 85 132 154 250 282 237 125 13 0 0 0 0 0 0 0 0 0 0 0 25 26 24 26 18 4 6 6
466 302 280 156 31 2 63 78 23 30 18 5 0 0 44 69 86 100 146 161 146 141 5 0 0 0 0 0 0 0 0 0 0 0 7 28 28 21 20 7 5 5 9
267 248 169 135 79 1 1 1 0 0 2 10 0 0 63 47 111 123 111 64 27 0 0 0 0 0 0 0 0 0 0 0 0 0 6 19 23 18 21 17 13 15 13
78 75 26 0 44 4 1 1 1 0 1 16 0 0 57 5 88 131 49 0 0 0 0 0 0 0 0 0 0 0 0 0 0 0 0 11 15 22 17 13 13 11 11
27 9 0 0 1 39 2 1 1 1 0 1 1 0 22 83 137 57 0 0 0 0 0 0 0 0 0 0 0 0 0 0 0 0 0 0 7 17 22 11 11 11 11
12 0 0 0 1 54 3 1 2 1 2 3 1 0 0 125 58 16 0 0 0 0 0 0 0 0 0 0 0 0 0 0 0 0 0 0 1 5 13 17 12 10 11
0 0 0 0 1 0 34 2 3 1 3 3 59 25 4 46 8 0 0 0 0 0 0 0 0 0 0 0 0 0 0 0 0 0 0 0 0 0 4 14 14 17 11
0 0 0 0 1 1 1 8 33 1 7 25 93 24 3 1 0 0 0 0 0 0 0 0 0 0 0 0 0 0 0 0 0 0 0 0 0 0 0 4 7 9 14
0 0 0 0 0 1 2 3 13 14 6 31 70 31 1 0 0 0 0 0 0 0 0 0 0 0 0 0 0 0 0 0 0 0 0 0 0 0 0 0 0 0 1
0 0 0 0 0 3 7 6 4 8 13 13 21 18 1 0 0 0 0 0 0 0 0 0 0 0 0 0 0 0 0 0 0 0 0 0 0 0 0 0 0 0 0
0 0 0 0 3 0 1 0 0 1 1 1 1 1 2 0 0 0 0 0 0 0 0 0 0 0 0 0 0 0 0 0 0 0 0 0 0 0 0 0 0 0 0
0 0 0 0 0 0 0 0 1 1 1 1 1 1 0 0 0 0 0 0 0 0 0 0 0 0 0 0 0 0 0 0 0 0 0 0 0 0 0 0 0 0 0
0 0 0 0 0 0 0 0 0 0 0 1 0 0 0 0 0 0 0 0 0 0 10 1 0 0 0 0 0 0 0 0 0 0 0 0 0 0 0 0 0 0 0
0 0 0 0 3 3 0 0 0 0 0 1 2 1 0 0 0 0 0 7 14 12 18 12 5 8 0 0 0 0 0 0 0 0 0 0 0 0 0 0 0 0 0
0 0 0 0 0 2 0 0 0 0 0 1 1 1 0 0 1 0 0 1 19 15 21 17 25 17 3 0 0 0 2 12 13 0 0 0 0 0 0 0 0 0 0

GFSSE_con_sbcape_084.txt.gz
CAPE
857 726 1256 1107 1189 1403 1479 1546 1616 1769 1925 1860 1804 1778 1789 1791 1759 1616 1534 1522 1587 1676 1569 1334 1701 1677 1311 1251 1206 1150 1209 1063 927 939 947 895 570 632 664 761 681 463 861
744 1016 1239 1202 1452 1440 1570 1629 1705 1896 2119 2103 1977 1894 1855 1822 1691 1659 1773 1657 1760 1736 1368 1595 1803 1591 1263 1051 1149 1074 1025 907 821 786 891 719 633 462 545 635 658 541 768
927 1123 1302 1357 1545 1601 1689 1737 1891 2081 2276 2250 2087 1987 1967 1896 1765 1776 1846 1716 1767 1485 1030 1635 1662 1410 1227 1252 1094 995 900 810 707 686 699 283 347 516 559 606 732 748 754
1036 1126 1304 1488 1588 1284 1767 1783 1974 1812 2181 2226 2165 2096 2018 1920 1843 1897 1680 1600 1574 1657 1725 1685 1320 1259 1300 1142 977 890 839 679 519 329 97 126 182 505 490 427 472 448 380
1229 1154 1251 1544 1549 1259 1809 1823 1914 1992 1639 2104 2102 2149 2050 1981 1961 2007 1590 1668 1784 1792 1822 1462 1446 1389 1119 871 771 663 501 323 155 24 19 20 77 263 243 144 125 190 275
1346 1237 1245 1509 1583 1458 1830 1938 1933 1937 1811 1821 1930 2000 2075 2027 2018 1928 1643 1655 1550 1523 1732 1614 1535 1155 795 599 477 333 183 70 0 0 11 86 6 82 32 14 28 31 36
1274 1261 1212 1384 1635 1500 1651 2021 1976 1797 1676 1741 1774 1400 1609 1434 1181 1533 1107 1138 1273 1309 1481 1370 1198 805 590 344 253 93 33 10 0 0 0 0 9 36 30 8 11 11 14
1133 1078 1030 1359 1654 1536 1633 1892 1752 1612 1625 1484 1307 1166 1172 1257 1157 973 1001 1070 1066 1108 1368 1084 779 577 358 165 77 14 6 0 0 0 0 17 120 45 28 10 14 15 17
812 1074 1105 1303 1729 1565 1661 1379 1012 889 672 748 744 775 922 814 753 726 1080 1027 703 950 902 703 493 334 168 71 26 2 0 0 0 0 5 7 38 31 20 9 9 14 8
681 768 917 1392 1656 1627 1468 596 349 205 208 258 300 231 148 102 123 418 652 636 907 708 755 514 209 252 115 25 2 0 0 0 0 0 0 12 35 30 17 4 9 6 10
592 623 771 1139 1397 1624 846 533 351 273 116 42 64 19 5 11 41 46 271 370 246 343 445 134 237 154 42 2 0 0 0 0 0 0 0 33 16 11 11 9 5 9 16
754 512 555 913 908 882 741 605 283 113 6 0 1 1 3 25 23 11 145 130 205 193 135 68 132 39 0 0 0 0 0 0 0 0 0 22 25 17 21 9 15 12 7
656 520 390 319 353 140 293 378 248 154 32 4 2 2 1 0 51 55 94 89 80 104 0 0 10 0 0 0 0 0 0 0 0 0 4 27 45 18 18 16 14 14 13
315 462 306 298 17 104 152 223 132 204 48 2 3 1 8 20 22 53 86 65 51 19 0 0 0 0 0 0 0 0 0 0 0 0 6 22 35 29 18 20 17 10 6
316 151 69 157 151 46 8 23 10 10 42 1 0 0 15 16 34 14 125 54 53 0 0 0 0 0 0 0 0 0 0 0 0 0 0 15 24 39 22 21 14 20 15
59 105 19 55 89 48 24 1 1 1 0 1 0 1 55 29 72 70 101 34 0 0 0 0 0 0 0 0 0 0 0 0 0 0 0 4 16 33 18 14 11 19 16
35 17 0 0 0 24 2 1 1 1 0 1 1 0 50 32 18 77 28 0 0 0 0 0 0 0 0 0 0 0 0 0 0 0 0 0 4 14 24 28 27 16 13
12 5 0 0 1 4 3 1 1 1 0 3 1 0 13 24 30 32 18 20 0 0 0 0 0 0 0 0 0 0 0 0 0 0 0 0 0 0 10 19 25 29 14
0 0 0 0 0 27 2 2 3 0 1 1 3 6 0 43 62 67 21 0 0 0 0 0 0 0 0 0 0 0 0 0 0 0 0 0 0 0 0 9 12 13 20
0 0 0 0 0 0 3 28 10 1 1 2 9 24 2 3 52 43 0 0 0 0 0 0 0 0 0 0 0 0 0 0 0 0 0 0 0 0 0 0 1 3 5
0 0 0 0 0 0 0 3 11 5 2 2 13 68 30 7 37 0 0 0 0 0 0 0 0 0 0 0 0 0 0 0 0 0 0 0 0 0 0 0 0 0 0
0 0 0 0 0 3 0 4 3 1 14 15 12 1 0 1 0 0 0 0 0 0 0 0 0 0 0 0 0 0 0 0 0 0 0 0 0 0 0 0 0 0 0
0 0 0 0 0 0 2 0 1 0 1 19 25 1 1 0 0 0 0 0 0 0 0 0 0 0 0 0 0 0 0 0 0 0 0 0 0 0 0 0 0 0 0
0 0 0 0 0 0 0 1 1 5 6 1 1 3 2 0 0 0 0 0 0 0 0 0 0 0 0 0 0 0 0 0 0 0 0 0 0 0 0 0 1 0 0
0 0 0 0 0 3 0 2 2 0 0 1 1 1 2 3 0 0 0 0 0 0 0 2 3 2 0 0 0 0 0 0 0 0 0 0 0 0 0 0 0 0 0
0 0 0 0 0 1 0 0 0 0 1 1 1 1 1 1 3 0 0 0 0 0 2 7 23 20 4 0 0 0 0 0 0 1 0 0 0 0 0 0 0 0 0

GFSSE_con_sbcape_087.txt.gz
CAPE
848 1133 1081 877 1087 1553 1597 1631 1727 1780 1807 1861 1928 1908 1883 1897 1867 1869 1780 1811 1742 1745 1571 1304 1653 1615 1437 1209 1467 1419 1280 1124 984 962 1082 1053 802 780 731 900 796 631 906
1117 1290 962 1069 1284 1593 1684 1732 1837 1912 1987 2073 2033 1963 1933 1966 1935 1857 1781 1775 1803 1907 1653 1617 1957 1854 1552 1560 1447 1328 1181 1043 950 970 1030 963 836 736 688 818 759 674 905
1378 1401 1182 1027 1287 1605 1784 1802 2041 2263 2262 2255 2153 2094 2069 2054 1958 1923 1974 1943 1936 1985 1977 1889 2056 1807 1381 1444 1286 1196 1125 963 831 822 841 573 545 705 642 818 752 800 845
1382 1508 1428 1062 1058 1595 1771 1890 1759 2438 2483 2353 2306 2243 2192 2087 2037 2080 2072 1955 1955 2054 2105 1892 1824 1617 1491 1319 1132 1075 1004 859 751 711 536 460 502 658 572 532 753 745 674
1390 1384 1469 999 1101 1325 1727 1878 1653 1894 2356 2292 2290 2356 2299 2206 2214 2209 2037 1834 1871 2031 2061 1949 1735 1627 1354 1058 997 927 811 535 425 408 451 561 558 550 563 520 584 494 505
1376 1350 1082 1044 1112 1450 1723 1916 1653 1711 1882 2135 2187 2328 2321 2294 2211 1684 1604 1809 2039 2185 2050 1670 1684 1457 1115 911 784 623 407 247 241 258 279 488 271 273 64 46 285 255 238
1539 1477 1249 1222 1162 1528 1735 1922 1943 1603 1568 2000 2133 2129 2175 2208 1683 1525 1268 1283 1355 1738 1738 1602 1330 1164 901 691 558 299 103 132 276 397 354 274 147 25 3 11 12 24 26
1567 1673 1151 1265 1336 1388 1687 1797 1732 1606 1619 1786 1958 1935 1627 1480 1273 1336 1244 962 1276 1552 1400 1298 1099 898 719 492 257 53 20 65 205 275 223 165 101 17 20 22 22 25 25
1507 1175 1053 1431 1767 1294 1495 1637 1509 1511 1611 1619 1442 1349 1395 1135 980 1132 1030 1000 939 1284 1125 972 831 612 505 249 69 6 0 11 135 130 61 33 140 20 29 23 25 25 22
1794 1042 1223 1421 1787 1811 1699 1333 1294 1149 1023 790 673 600 545 714 849 891 862 977 1021 1165 1023 777 572 411 231 68 0 0 0 0 25 10 10 29 68 30 29 24 14 24 15
1571 1473 1318 1637 1917 2006 1713 1033 827 786 627 562 593 240 153 705 664 556 371 409 445 655 610 494 328 200 61 3 0 0 0 0 0 7 3 36 40 31 20 14 20 16 23
960 938 1045 1530 1773 1987 1245 829 946 1148 1087 691 689 418 665 581 455 208 247 176 278 351 191 280 169 49 43 80 0 0 0 0 0 0 5 23 40 23 21 21 15 18 19
1338 880 857 1145 1515 1471 1030 838 540 446 550 613 79 41 213 180 85 67 143 127 147 106 71 253 167 200 109 72 13 1 0 0 0 1 5 27 39 24 22 15 8 14 12
1353 1385 750 836 959 907 851 877 496 173 109 162 210 0 7 42 24 34 310 299 107 54 76 241 223 83 23 5 2 0 0 0 0 1 7 24 43 31 28 11 21 25 22
1160 1441 981 752 681 566 526 694 452 348 138 152 31 3 2 47 28 86 228 233 73 1 7 170 65 15 10 0 0 0 0 0 0 5 9 21 30 35 21 36 33 33 25
978 1155 1358 672 675 454 333 392 334 328 261 60 20 7 5 21 47 161 391 118 112 0 15 60 45 1 0 0 0 0 0 0 0 13 13 18 15 31 36 33 32 28 20
781 911 1050 676 669 620 291 191 98 43 89 1 1 2 6 20 137 200 153 169 21 0 0 50 33 0 0 0 0 0 0 0 2 15 16 29 18 21 28 48 32 14 13
543 666 757 460 255 470 484 171 52 2 2 2 2 2 38 63 164 125 107 60 5 0 7 7 0 1 0 0 0 0 0 0 15 19 17 26 28 18 8 20 28 31 24
424 541 610 476 99 241 355 172 38 3 2 2 5 3 51 62 98 114 43 10 0 0 10 0 0 0 4 1 0 0 0 0 10 11 9 19 22 22 14 12 17 21 20
348 475 517 324 158 412 326 183 95 9 8 3 5 19 66 68 137 96 26 1 1 3 1 0 0 0 0 1 0 1 4 5 8 12 8 8 21 25 21 18 16 10 11
264 329 232 189 45 152 257 229 84 7 7 5 7 31 22 65 76 43 1 1 1 13 0 0 0 0 5 0 3 12 9 7 7 8 9 5 6 13 10 11 11 8 6
151 202 107 132 49 12 184 197 134 44 15 13 7 45 21 40 81 2 0 1 1 29 0 0 0 1 1 4 0 1 8 9 13 6 7 4 10 9 8 3 2 2 1
61 103 27 78 23 15 6 6 12 18 13 37 17 12 27 16 46 1 0 1 10 2 0 0 0 0 0 2 0 25 36 39 5 8 10 6 2 4 4 3 0 5 13
28 5 31 17 10 10 8 9 14 14 26 3 40 1 0 1 2 0 0 1 0 0 0 0 0 0 28 22 13 0 23 40 80 51 0 1 2 1 2 0 2 10 11
6 3 0 4 0 2 7 12 15 8 13 33 4 1 1 2 1 0 0 0 0 0 0 0 0 0 43 46 15 15 16 18 43 57 68 17 16 11 12 25 29 10 6
2 2 2 2 2 3 4 12 10 20 15 10 3 5 3 1 2 0 0 0 0 0 0 0 0 0 6 38 68 111 57 41 36 88 67 82 113 65 60 58 35 25 20

GFSSE_con_sbcape_090.txt.gz
CAPE
864 1103 1176 1298 1340 1580 1640 1666 1796 1814 1853 1879 1993 2023 2000 2035 2029 2050 2058 2094 2077 2132 1988 1564 1557 1476 1393 1234 1415 1631 1523 1307 1180 1293 1275 1282 1070 955 955 1085 952 775 932
1074 1426 964 1190 1360 1695 1767 1803 1907 1922 1981 2067 2075 2076 2048 2108 2156 2215 2187 2085 2187 2262 1889 1647 1722 1612 1504 1663 1707 1497 1333 1240 1170 1174 1162 1130 960 897 830 903 885 701 934
1476 1666 1338 1141 1458 1804 1890 2002 2135 2174 2198 2228 2234 2150 2153 2234 2292 2193 2205 2092 2122 2250 1981 1783 1758 1723 1607 1862 1539 1412 1324 1201 1117 947 1043 892 847 865 780 874 870 941 926
1493 1849 1732 1121 1382 1803 1927 2079 2243 2404 2425 2402 2320 2176 2324 2311 2255 2220 2166 2078 2173 2228 2219 1862 1872 1801 1708 1560 1401 1312 1186 1066 974 979 852 750 755 755 645 649 676 817 726
1569 1652 1858 1088 1122 1734 1924 2054 2216 2378 2367 2359 2350 2476 2453 2384 2361 2378 2173 2074 2188 2376 2325 2024 1909 1838 1599 1309 1209 1140 1041 916 882 787 886 805 647 790 750 651 594 625 686
1376 1543 1057 909 1138 1683 1943 2018 1812 2245 2246 2226 2293 2472 2477 2456 2474 2346 2017 2085 2246 1956 2029 1933 1770 1665 1272 1129 1070 897 733 723 647 733 623 659 580 562 587 465 623 548 474
1566 1653 1771 854 1127 1506 1963 2030 1631 1969 2092 2146 2296 2356 2374 2418 2306 1970 1889 2026 2056 2010 1760 1690 1764 1358 1106 931 775 566 448 474 476 627 561 503 532 315 215 195 137 182 134
1955 1993 1987 1069 1198 1389 1791 1955 1557 1638 1885 2087 2151 2175 2315 2133 1655 1653 1649 1684 1693 1569 1484 1465 1342 1106 889 690 452 261 182 240 534 396 276 206 186 56 4 24 23 27 15
2300 2215 1865 1732 1482 1219 1489 1726 1590 1349 1556 1905 1974 1930 1779 1454 1273 1457 1385 1557 1317 1364 1330 1272 1047 829 702 439 181 47 95 165 358 300 184 115 193 2 6 17 23 19 14
2396 2417 2072 1773 1835 1937 1925 1401 1523 1408 1436 1580 1407 1380 1256 1100 1115 1221 1123 1126 1272 1317 1222 1040 694 631 425 148 10 0 25 91 242 188 132 145 121 4 19 23 22 18 21
2526 2285 2208 1924 2127 1955 2180 2005 1315 1362 1248 825 918 709 1028 1831 1431 1006 594 455 629 794 888 720 450 287 114 24 5 0 5 219 193 89 75 79 113 22 22 16 17 15 16
2342 2657 1889 2316 2177 2225 2078 2319 2082 2011 1981 2012 1857 1611 1895 1492 1308 753 228 165 336 453 514 315 183 68 167 337 192 17 278 167 111 43 40 56 92 30 11 22 19 18 20
1929 2341 1684 2180 2088 2353 2307 2090 2199 2311 2135 1833 1726 1667 1554 1436 950 765 483 442 499 275 296 209 123 482 366 349 316 275 139 197 76 72 7 27 46 23 25 16 20 23 21
1510 2141 1879 1829 2256 2169 2323 1790 1700 1756 1976 1726 1657 1252 1231 820 855 642 171 171 240 354 231 127 230 520 308 246 271 219 176 117 64 40 14 12 44 40 33 23 13 17 17
1344 2108 2206 1861 2051 2128 1787 1529 1337 1381 1414 1468 1406 1083 773 510 479 280 117 197 481 184 104 84 183 316 313 237 197 193 138 55 41 20 24 19 38 61 31 21 37 25 20
647 1674 2401 1752 1839 1604 1664 1497 1174 1121 1022 1093 1188 662 890 213 252 180 214 407 544 231 117 98 134 311 280 232 222 172 71 31 20 5 16 22 26 41 44 46 39 33 32
296 1095 2155 2034 1441 1326 1336 1515 1358 1269 1108 842 735 254 397 48 148 200 180 166 392 186 35 72 215 303 250 200 179 124 29 16 9 8 15 24 15 19 40 57 51 38 28
78 671 1811 1909 1457 1472 1114 1052 1116 1215 992 676 517 190 10 23 81 444 150 108 235 94 29 65 202 273 207 172 138 96 14 9 12 25 15 21 20 16 26 40 39 41 32
7 539 1532 2061 1490 1481 1155 820 993 884 600 428 80 13 26 36 77 188 260 143 67 16 1 87 162 213 166 148 93 48 19 28 18 9 8 57 34 18 23 16 18 23 27
14 472 1150 1824 1557 1205 1186 1169 1020 728 358 288 19 9 15 61 93 141 90 49 4 2 1 59 165 201 187 140 64 34 75 25 17 9 12 30 37 23 21 23 18 15 12
13 545 953 1634 1135 1059 1127 1046 820 570 281 111 37 7 12 34 65 136 69 4 1 3 2 127 160 214 150 159 74 60 88 20 21 29 34 30 32 33 30 27 23 14 4
64 576 909 1394 797 1183 1404 1239 732 358 279 112 12 11 11 16 88 120 28 2 4 1 0 201 188 176 180 172 93 78 40 48 22 23 29 24 38 38 30 28 42 15 6
176 580 829 1213 949 1288 1056 817 565 444 242 190 30 12 10 34 112 51 3 4 6 8 2 130 201 150 110 162 136 93 67 26 42 31 28 19 21 27 22 20 21 16 14
266 516 743 978 1177 1018 845 716 608 424 182 129 23 23 41 3 48 17 2 2 3 11 45 130 221 212 196 135 136 103 59 44 92 87 83 50 20 15 31 19 20 17 21
278 562 644 941 873 686 582 565 370 186 113 234 188 53 41 33 6 4 2 3 2 16 109 161 187 189 113 154 113 140 161 183 162 100 107 109 108 75 89 114 51 41 37
388 176 382 747 731 558 474 328 276 172 32 103 21 31 3 1 5 1 1 1 0 2 73 89 43 196 194 212 148 149 153 133 177 143 100 164 164 158 146 120 100 104 91

GFSSE_con_sbcape_093.txt.gz
CAPE
465 1122 1241 1533 1560 1696 1686 1823 1731 1702 1805 1894 2020 2038 2056 2117 2110 2135 2136 2101 2082 2279 2076 1835 1697 1568 1400 1286 1411 1761 1613 1487 1424 1469 1498 1490 1059 931 931 1021 913 841 1053
721 1191 1147 1436 1569 1719 1769 1800 1921 1861 1923 2022 2100 2105 2133 2188 2253 2254 2257 2230 2235 2337 1955 1875 1755 1667 1487 1567 1788 1593 1481 1404 1371 1337 1351 1269 1080 963 851 920 1024 830 1002
1006 1343 1287 1208 1529 1754 1851 1940 2093 2138 2142 2172 2214 2181 2237 2334 2409 2382 2365 2357 2391 2368 2045 1892 1825 1738 1623 1761 1642 1576 1500 1337 1240 1251 1351 869 961 953 924 928 947 976 875
875 1480 1458 1221 1537 1846 1939 2038 2211 2365 2346 2264 2287 2256 2199 2423 2475 2463 2296 2317 2363 2326 2198 1996 1916 1898 1936 1741 1576 1509 1415 1262 1117 1097 784 773 846 949 842 793 1029 999 813
637 1273 1846 1214 1482 1828 1963 2087 2239 2355 2302 2269 2288 2257 2413 2452 2471 2500 2245 2239 2388 2317 2383 2163 1877 1973 1796 1511 1393 1345 1250 1124 969 927 675 718 863 891 755 756 630 663 668
725 1027 935 972 1314 1795 1982 2155 2288 2298 2243 2212 2215 2287 2478 2402 2490 2412 1932 2288 2447 2461 2273 2183 1892 1765 1435 1293 1242 1194 1070 906 691 355 780 685 717 669 731 649 758 712 632
898 1348 1783 871 1178 1727 2017 2099 1927 2106 2196 2167 2228 2291 2014 2394 1965 1807 1953 2200 1996 2196 2087 1953 1875 1487 1276 1156 1086 965 864 568 815 589 791 839 791 767 620 424 370 413 316
1153 1531 1989 968 1155 1512 1871 1834 1517 1884 2082 2148 2198 2175 2252 2148 1699 1959 1993 1899 2015 1922 1665 1711 1436 1275 1120 971 824 657 600 445 496 413 679 519 574 576 442 201 154 237 121
1691 2038 2197 1610 1402 1183 1486 1704 1371 1639 1941 2002 2021 1940 1987 1858 1590 1818 1747 1541 1422 1624 1630 1440 1224 1021 922 581 589 364 283 150 708 441 406 197 370 209 119 67 16 20 35
2263 2427 2382 2152 1868 1841 1812 1532 1447 1440 1590 1883 1631 1312 1414 1284 1282 1313 1281 1374 1329 1386 1308 1215 950 770 530 313 302 129 119 137 291 338 306 172 219 0 0 8 15 15 22
2450 2570 2567 2255 2121 2067 1942 1785 1387 1327 1387 1353 1300 1105 1210 1841 1787 1454 1138 1046 955 847 673 703 544 397 221 137 92 46 102 372 420 175 265 110 215 7 7 13 20 19 21
2454 2456 2719 2495 2266 2183 1746 2093 1925 1915 1941 2059 1922 1894 2050 1668 1687 1164 705 376 376 411 477 398 239 169 227 504 348 77 347 364 106 67 86 125 174 21 16 19 16 12 19
2110 2296 2527 2554 2557 2417 1875 1950 1968 2244 1990 2053 2092 1764 1601 1643 1691 1669 967 407 288 246 598 344 134 313 644 782 644 493 336 135 43 29 26 78 102 27 25 26 18 14 26
1299 1898 2679 2437 2592 2683 2328 1987 1892 1888 2424 2185 2260 2459 2215 1873 1888 1475 934 525 300 209 517 252 199 220 338 457 589 372 188 122 113 58 13 10 38 35 28 21 30 23 19
261 1547 2574 2270 2534 2572 2833 2402 2267 2244 2082 2172 2363 2141 1929 1676 1612 1152 518 529 663 325 120 87 119 165 168 278 320 296 243 224 78 82 14 0 28 52 35 17 19 29 14
0 559 2880 2628 2523 2468 2611 2528 2424 2207 2014 2102 1972 2151 1822 1774 1399 864 563 367 262 201 114 94 103 107 139 135 298 195 186 127 42 33 13 9 19 40 47 35 21 30 30
0 0 2567 3174 2359 2583 2341 2289 2097 2003 1978 1670 1910 2077 1796 1522 1158 817 445 439 805 177 279 84 80 61 99 140 228 229 93 42 27 15 20 25 23 14 33 44 61 34 27
0 0 637 2280 2235 2140 1954 2153 2004 1905 1983 1876 1555 1687 1552 1269 855 525 170 481 258 170 148 74 65 59 67 107 179 105 50 44 27 16 20 32 23 8 20 37 50 44 41
0 0 332 2034 2375 1847 1820 1905 1838 1857 1783 1818 1690 1347 1075 829 639 341 736 226 122 42 92 162 52 57 69 135 127 140 58 17 20 14 43 19 15 10 27 19 19 24 33
0 0 146 1649 2566 1718 1725 1566 1447 1517 1566 1168 1122 1165 732 629 485 620 327 120 282 39 71 100 47 49 104 148 94 65 49 44 15 13 19 15 4 16 15 34 17 18 16
0 0 214 1164 2517 1913 1378 1176 1375 1355 1008 987 630 510 559 373 179 110 85 137 91 1 27 24 41 42 63 282 148 90 129 112 61 26 31 27 33 34 15 43 29 18 1
0 0 256 794 1806 1735 1225 1465 1747 1402 1243 868 739 363 333 232 124 23 97 59 4 2 5 2 32 32 55 154 124 80 77 51 67 41 33 28 63 30 30 46 19 15 13
0 0 172 707 1490 1616 1691 1727 1610 1247 673 579 568 544 402 226 65 48 53 9 1 1 7 4 40 42 105 94 125 18 51 39 36 20 54 21 70 27 35 22 18 13 20
0 28 265 677 1516 1300 1694 1659 1550 793 569 639 615 417 122 15 11 21 10 3 4 2 2 4 37 47 92 111 137 150 83 55 41 33 24 36 33 35 62 21 17 9 7
0 44 426 749 1364 1375 1735 1562 1583 1188 1015 662 586 499 179 10 11 17 1 3 4 2 3 13 41 118 112 161 146 137 162 127 150 104 45 65 35 26 26 75 33 44 36
0 380 721 912 1183 1302 1485 1434 1379 1136 809 394 609 615 184 17 5 2 2 6 7 5 8 6 68 91 133 236 219 173 168 132 120 127 120 154 153 110 99 133 160 106 74

GFSSE_con_sbcape_096.txt.gz
CAPE
981 1198 1301 1503 1691 1779 1738 1561 1523 1584 1671 1810 1898 1896 1972 2031 2047 2062 2110 2122 2252 2406 2191 1883 1825 1613 1424 1295 1637 1755 1603 1456 1375 1536 1570 1568 1156 1006 1040 1037 979 796 1172
1064 1277 1296 1499 1662 1733 1866 1756 1615 1657 1776 1938 1977 1974 2031 2082 2124 2183 2164 2182 2386 2483 2087 1897 1802 1624 1594 1694 1683 1587 1496 1406 1331 1362 1436 1437 1128 1007 989 1183 1001 972 1095
1000 1436 1388 1406 1619 1736 1838 1993 1860 1883 1958 2073 2092 2069 2124 2201 2241 2272 2247 2259 2420 2519 2210 1937 1876 1718 1810 1703 1594 1565 1500 1381 1246 1167 1078 697 842 1174 1053 1101 1102 1101 919
1197 1179 1334 1279 1508 1738 1822 1906 2077 2129 2130 2151 2189 2198 2239 2309 2095 2212 2327 2315 2395 2354 2292 2007 1962 1878 1838 1654 1549 1483 1395 1294 1068 1153 684 729 704 1054 959 914 1098 960 899
1174 1123 1316 1180 1434 1782 1855 1938 2107 2196 2145 2110 2177 2291 2279 2256 2255 2308 2114 2323 2311 2390 2398 2151 2113 2043 1718 1432 1393 1383 1283 1041 876 764 704 651 577 858 962 898 799 912 621
1066 1355 717 1083 1364 1752 1896 2000 2086 2167 2084 2083 2124 2232 2414 2278 2325 2112 2009 2326 2413 2035 2238 2225 2232 1850 1427 1272 1253 1216 1078 804 558 501 579 631 387 853 796 774 854 780 580
1297 1911 1190 1073 1321 1703 1986 2100 2055 2077 2030 1949 2120 2185 2340 2290 2214 1827 1713 2071 2137 2076 2171 2025 1922 1519 1303 1201 1174 1030 817 503 490 467 581 543 582 822 876 613 621 562 379
2589 2360 1448 1050 1261 1560 1840 1810 1907 1981 1971 1975 2018 2157 2147 2188 1694 1694 1772 1843 1947 1918 1905 1578 1559 1367 1237 1134 1014 843 638 379 598 495 460 444 693 731 586 410 297 272 107
2605 2658 1681 1325 1327 1321 1539 1459 1325 1498 1645 1961 1982 2067 2029 1923 1480 1635 1674 1578 1435 1477 1415 1537 1346 1183 1136 990 819 669 314 262 317 401 330 335 694 521 418 178 40 55 34
2933 3062 2205 1872 1572 1418 1422 1344 1145 1375 1533 1801 1881 1905 1966 1650 1301 1492 1407 1331 1163 1255 1205 1199 967 868 839 739 589 134 190 269 371 237 114 134 488 361 236 95 16 31 41
2959 2969 2876 2355 1965 1842 1709 1475 1059 1281 1392 1579 1637 1484 1274 1703 1490 1425 1292 1083 910 794 694 514 434 467 335 323 318 162 123 166 208 111 28 210 360 73 41 15 35 20 9
2781 3068 2781 2702 2323 2221 1801 1704 1595 1659 1596 1705 1815 1835 1696 1786 1579 1339 991 736 610 574 443 414 310 149 135 221 66 25 61 194 103 42 20 154 233 17 5 0 10 19 7
2541 2530 2840 2578 2601 2550 1769 2057 1670 1737 1642 1779 1939 2008 2125 1610 1553 1246 522 419 384 342 265 215 186 150 263 281 187 147 146 37 74 23 37 82 107 20 8 9 10 6 19
2062 2601 2529 2649 2708 2707 2246 2151 1861 1780 1725 1837 1893 2032 1817 1571 1552 1254 792 418 193 145 145 185 126 130 105 231 214 288 81 1 9 49 38 28 32 28 23 20 15 31 24
46 2201 2649 2409 2679 2757 2681 2049 2249 1862 1832 1968 2114 2115 1944 1634 1553 1237 1000 520 183 79 151 132 67 31 91 100 132 183 128 62 20 27 23 1 0 7 27 16 13 21 18
0 246 2716 2443 2630 2524 2467 2452 2132 2413 2323 2151 2079 2015 1916 1747 1613 1201 896 508 376 219 197 72 60 5 32 71 104 154 125 71 26 16 4 0 1 4 33 12 25 11 20
0 0 2767 2551 2496 2566 2493 2484 2302 2040 1942 2038 2008 1945 1798 1626 1444 1054 836 544 406 307 73 34 39 15 66 81 71 76 138 63 16 12 0 0 2 6 20 43 42 30 20
0 0 2270 2807 2539 2528 2457 2276 1679 2049 1855 1683 1676 1941 1839 1689 1318 1054 767 574 358 194 131 104 65 76 53 37 32 58 93 13 24 0 0 0 0 9 22 25 36 34 35
0 0 129 2832 2760 2340 2192 1642 1419 1613 1817 1536 1437 1435 1723 1616 1216 863 556 507 316 188 136 79 47 46 11 39 37 38 35 17 0 0 0 0 0 0 6 19 15 21 33
0 0 35 2978 2669 2255 2048 1558 1535 1375 1321 1638 1521 1294 1198 1278 1046 777 509 346 253 126 98 51 25 11 10 16 160 70 1 1 0 12 5 0 0 0 2 1 5 14 16
0 0 61 1807 2601 2146 1820 1495 1358 1298 1227 1179 1387 1351 1168 886 684 635 378 227 135 68 72 42 19 23 22 47 27 28 28 4 0 10 9 0 0 0 10 11 3 0 1
0 0 31 1191 2460 1905 1664 1448 1191 1020 1052 991 785 784 760 622 474 431 351 175 28 27 13 45 23 20 30 40 15 27 34 25 43 19 20 15 2 0 0 0 0 0 0
0 9 37 457 2481 2132 1692 1193 1166 1102 1213 1054 772 472 441 475 331 247 234 112 33 7 29 36 9 3 23 23 9 5 12 19 18 27 29 11 26 13 0 0 0 0 0
0 13 0 161 729 2225 1449 1238 1411 1431 1030 729 570 454 369 301 278 235 125 44 22 3 8 14 6 3 5 15 13 19 3 0 0 11 20 21 28 15 16 7 0 2 0
0 54 67 199 454 1872 1450 1429 1495 1316 838 563 484 464 302 223 217 134 64 28 17 5 5 13 16 7 5 7 11 14 28 15 0 0 0 0 17 6 0 2 1 0 0
0 34 281 476 948 1695 1565 1524 1740 1107 980 774 512 554 306 128 45 36 19 11 1 1 2 4 5 15 6 10 13 8 13 42 1 0 0 0 0 0 0 0 1 4 0

GFSSE_con_sbcape_099.txt.gz
CAPE
910 1097 1393 1531 1503 1433 1374 1344 1347 1422 1570 1744 1700 1657 1727 1822 1853 1908 2019 2169 2280 2305 2142 1858 2095 1956 2039 1699 1810 1762 1667 1357 1436 1436 1715 1717 1300 1217 1245 1287 1108 880 1261
951 1085 1347 1539 1626 1568 1487 1406 1407 1507 1725 1849 1778 1755 1792 1857 1923 1981 2121 2285 2407 2427 1986 1881 1840 1762 1830 1691 1784 1719 1596 1151 1264 1387 1546 1538 1305 1271 1146 1236 1077 1044 1168
959 1146 1265 1444 1653 1745 1682 1588 1567 1721 1890 1937 1854 1843 1946 2018 2061 2025 2108 2302 2396 2437 2012 1965 1865 1900 1724 1723 1652 1630 1528 1280 1221 1140 1169 745 925 1334 1197 1246 1183 1202 1160
1220 1188 1247 1365 1535 1717 1785 1678 1697 1908 2006 2034 1976 2005 2110 2151 2174 2137 2103 2182 2444 2501 2183 2018 1925 1725 1681 1645 1560 1524 1383 1244 1190 1043 717 804 986 1230 1207 1108 1169 1184 1124
974 1221 1329 1371 1501 1623 1708 1818 1784 1916 1922 1981 2001 2155 2237 2251 2281 2257 2071 2145 2398 2341 2193 2073 2031 1813 1596 1415 1372 1348 1265 1147 910 718 498 554 746 948 1068 999 1104 987 764
849 1218 1071 1247 1460 1627 1719 1824 1873 1863 1810 1870 1942 2149 2264 2302 2370 2234 1994 2224 2349 2251 2311 2447 2232 1716 1351 1229 1226 1192 1043 824 455 417 547 716 550 927 919 960 831 708 358
1091 936 979 1219 1441 1620 1794 1871 1897 1904 1829 1868 1903 1978 2159 2265 2226 2032 1895 2073 2046 2183 2262 1963 1843 1479 1271 1145 1157 986 703 602 280 404 379 423 660 957 879 712 759 567 349
1452 1027 1050 1292 1453 1593 1672 1688 1813 1846 1769 1601 1866 1935 2098 2126 1901 1709 1697 1682 1851 1922 1842 1691 1513 1349 1232 1134 1003 711 432 578 438 331 445 370 831 993 738 508 370 382 101
1701 1102 1019 1220 1404 1467 1494 1578 1683 1819 1792 1339 1606 1912 2037 1929 1626 1588 1646 1538 1591 1599 1351 1473 1317 1204 1210 1048 796 453 312 418 283 323 384 473 700 882 553 382 110 2 5
1728 1233 931 989 1118 971 1021 1325 1406 1656 1380 1409 1555 1685 1836 1743 1400 1487 1398 1276 1204 1400 1445 1075 898 853 885 670 317 360 218 198 83 104 126 370 719 676 437 150 14 14 26
2054 1534 1208 1164 1067 901 923 977 1118 1209 1171 1353 1586 1430 1383 1299 1136 1256 1226 1142 1068 1111 820 692 594 450 404 166 75 78 101 68 18 17 151 398 731 468 350 200 83 33 30
2249 2072 1574 1373 1289 1073 1345 1079 792 1111 1099 1352 1546 1359 1116 1194 1121 1251 1056 838 655 572 299 298 240 243 302 180 42 31 8 0 3 3 39 273 631 431 143 10 22 18 8
2319 2504 1976 1839 1529 1426 1485 995 1062 1020 1051 1128 1210 1252 1139 1294 1058 605 277 326 285 279 120 5 18 111 162 161 103 38 12 3 0 12 24 135 366 97 16 2 2 8 7
2191 2566 2176 2018 1938 1688 1263 1056 1057 1163 1051 1167 1261 1270 1346 933 658 275 190 115 175 107 39 0 46 139 143 248 139 73 20 7 0 7 29 51 86 19 11 7 6 11 14
1610 2351 2323 1917 2079 2061 1445 1455 1149 1271 1199 1202 1219 1214 1142 811 719 363 213 141 145 85 15 0 10 19 75 102 92 84 12 0 11 4 14 14 2 15 14 13 17 27 26
0 2147 2405 2109 2061 2004 1985 1409 1289 1227 1101 1248 1280 1334 1096 876 841 536 341 208 122 140 12 6 2 0 35 64 72 82 36 8 12 11 9 0 0 2 11 23 28 13 21
0 5 2198 2329 2183 2184 2005 1629 1414 1339 1197 1314 1386 1334 1070 948 868 659 574 420 371 156 110 17 0 0 6 48 50 79 55 32 7 6 1 0 0 0 0 38 34 26 19
0 0 2064 2251 2200 2308 2137 1855 1534 1349 1223 1162 1257 1330 1079 842 793 624 556 474 394 214 165 45 14 1 2 24 35 32 45 25 12 2 3 0 0 0 0 21 34 30 27
0 0 1392 2269 2172 2246 1930 1863 1597 1527 1144 993 927 1144 1091 918 805 651 574 577 454 329 128 56 37 3 12 18 33 10 34 0 0 0 0 0 0 0 0 10 19 26 30
0 0 221 2313 2121 2082 1845 1423 1098 1241 1367 865 786 995 1052 995 698 523 410 380 312 178 122 40 59 46 65 33 50 40 28 0 0 0 0 0 0 0 0 2 10 13 16
0 0 29 2379 2073 2043 1801 1438 1218 1218 1272 1211 1007 798 1059 1122 788 697 569 438 279 180 54 35 40 64 23 22 1 18 1 0 0 0 0 0 0 0 0 0 0 0 7
0 0 69 2411 2146 2027 1857 1544 1314 1183 1027 954 986 907 935 836 770 655 534 394 289 136 60 17 13 30 24 6 3 10 3 0 0 0 0 0 0 0 0 0 0 0 0
0 0 908 2398 2113 1897 1596 1148 772 680 723 750 690 757 713 736 607 470 399 258 228 149 72 32 1 20 5 15 11 0 0 0 3 0 0 0 0 0 0 0 0 0 0
0 0 753 2327 1913 1502 1224 1244 803 914 875 857 775 576 498 533 459 348 317 193 153 95 36 21 1 7 13 11 41 10 0 0 0 2 1 0 0 0 0 0 0 0 0
0 0 102 2179 1804 1488 1169 1054 904 769 599 620 484 380 411 342 351 216 192 175 118 30 6 16 9 1 0 10 15 5 0 0 0 0 0 2 2 0 0 0 0 0 0
0 0 0 1484 1996 1416 1004 805 764 785 604 315 318 350 350 258 225 170 166 141 101 53 10 8 8 0 3 1 5 0 0 0 0 0 0 0 0 0 0 0 0 0 0

GFSSE_con_sbcape_102.txt.gz
CAPE
868 1218 1282 1439 1510 1473 1375 1321 1317 1372 1558 1556 1550 1707 1800 1836 1844 1957 2059 2099 2126 2266 1911 1750 2086 2118 2022 1735 1924 1728 1585 1431 1548 1654 1630 1584 1420 1402 1334 1434 1255 1011 1381
906 1291 1334 1437 1528 1548 1479 1416 1397 1528 1726 1699 1631 1688 1760 1819 1913 2065 2135 2155 2203 2199 1775 1724 1918 2031 1843 1790 1809 1665 1633 1525 1494 1558 1596 1595 1350 1212 1256 1355 1296 1263 1389
1044 1352 1414 1421 1521 1589 1628 1596 1622 1795 1892 1822 1743 1761 1856 1927 2017 2127 2187 2224 2247 2242 1920 1725 1928 1936 1802 1816 1714 1612 1544 1509 1501 1526 1496 1013 1055 1197 1244 1280 1251 1317 1297
1102 1346 1433 1493 1567 1610 1588 1637 1727 1947 1944 1902 1895 1953 1994 2049 2060 2182 2165 2170 2284 2342 2022 1855 1790 1722 1700 1674 1578 1484 1457 1286 1201 1137 871 991 1031 1306 1247 1184 1151 1273 1298
1129 1233 1422 1546 1663 1654 1602 1630 1729 1904 1911 1882 1928 2104 2143 2195 2166 2208 2089 2234 2383 2452 2200 1894 1605 1661 1577 1402 1381 1355 1334 1107 900 600 494 773 820 1141 1218 1182 1122 1157 1095
1174 1201 1289 1450 1647 1788 1741 1731 1761 1810 1771 1775 1892 2137 2266 2364 2322 2143 2006 2291 2462 2425 2409 2142 1765 1548 1248 1167 1206 1212 1012 847 537 417 638 888 776 1125 1159 967 1051 944 838
1029 1130 1242 1413 1592 1755 1930 1908 1800 1734 1711 1741 1882 2040 2181 2350 2321 2014 1984 2158 2229 2316 2348 2210 1781 1328 1146 1083 1120 913 655 571 294 329 371 477 774 1081 946 781 795 585 412
913 1000 1161 1358 1595 1771 1847 1834 1753 1678 1677 1709 1815 1942 2118 2182 2080 1874 1846 1884 1953 2055 1924 1729 1405 1223 1119 1079 927 621 461 486 335 341 402 494 1014 1094 974 554 442 407 121
942 947 1112 1361 1551 1630 1688 1663 1650 1680 1680 1716 1745 1871 1976 1934 1778 1753 1758 1723 1768 1608 1573 1480 1229 1125 1136 955 643 346 405 302 245 355 423 516 992 1017 894 462 228 35 3
985 965 1061 1197 1317 1329 1320 1474 1538 1592 1522 1410 1649 1823 1862 1754 1540 1502 1561 1571 1455 1346 1365 1071 907 840 936 499 376 211 272 234 283 241 333 513 894 953 759 387 81 10 6
1317 1054 1018 1063 1109 948 1041 1252 1475 1539 1511 1291 1360 1603 1669 1450 1261 1316 1124 1243 1248 1281 861 747 719 584 296 153 114 47 68 57 69 70 111 650 951 881 531 154 27 13 17
1573 1242 1089 992 1007 954 1322 1056 937 1202 1060 1144 1205 1114 1253 1164 953 1128 1087 1024 910 693 488 313 326 258 190 124 93 53 6 2 0 1 175 482 955 690 442 192 74 19 16
1909 1552 1259 1063 986 1052 1316 1044 812 1035 1066 1088 1260 1203 1031 1086 899 780 612 414 192 168 127 133 95 66 134 82 58 58 7 7 3 9 129 353 815 649 449 11 0 15 18
2093 1971 1595 1378 1210 1135 1135 976 889 1055 939 1007 1074 1233 1302 1123 572 376 300 98 144 58 10 0 0 35 105 86 52 29 40 34 5 10 85 251 493 648 185 16 3 9 16
2020 2353 1940 1690 1448 1379 1267 936 908 865 901 1006 998 1090 1271 932 489 207 102 106 109 63 19 1 0 56 79 155 104 58 36 33 2 12 46 84 209 309 65 14 15 16 13
1872 2396 2199 1988 1757 1567 1437 1151 954 1037 974 939 1145 1197 1202 910 475 261 128 144 158 103 23 21 30 10 1 65 74 59 29 11 5 12 24 13 4 9 23 16 15 19 21
2 2144 2406 2032 2018 1838 1671 1427 1108 1067 1020 1018 1079 1076 1094 779 457 258 179 152 213 156 71 32 23 33 24 48 83 45 41 14 8 16 14 0 0 0 0 21 39 35 25
0 407 2416 2369 1995 1888 1955 1529 1310 1049 1046 1113 1098 1002 821 786 532 339 236 180 192 227 215 202 116 38 25 33 16 35 44 24 5 19 7 0 0 0 0 4 34 37 44
0 0 1961 2293 2090 1964 1845 1699 1426 1118 1093 947 1013 1065 731 679 524 514 332 247 265 350 356 303 159 30 1 2 9 16 38 23 6 31 9 0 0 0 0 7 17 21 36
0 0 847 1934 2114 2224 1937 1783 1205 991 881 844 949 1047 615 654 477 426 281 308 331 330 380 269 150 41 1 3 55 70 20 0 0 2 0 0 0 0 0 0 9 7 16
0 0 0 1593 1926 2211 1981 1741 1296 1312 1150 846 787 791 732 436 381 317 267 319 440 452 348 236 131 81 34 20 72 1 9 0 0 0 0 0 0 0 0 0 0 3 8
0 0 0 1256 1837 2188 1983 1866 1529 1549 1067 998 786 826 1103 780 510 386 346 388 435 381 262 162 67 77 47 54 37 18 4 2 0 1 0 0 0 0 0 0 0 0 0
0 0 0 607 1797 2090 2041 1752 903 650 387 552 830 890 780 784 631 544 420 460 378 313 166 98 36 39 11 15 0 1 0 2 0 0 0 0 0 0 0 0 0 0 0
0 0 0 271 1770 2004 1946 1596 1322 1318 1167 1138 1006 898 710 533 602 411 358 295 354 278 170 131 79 36 5 5 2 2 0 0 0 0 0 0 0 0 0 0 0 0 0
0 0 428 1180 1905 1989 1741 1568 1314 1168 1015 562 551 677 578 506 409 299 360 250 285 238 171 121 79 9 1 3 2 3 0 0 0 0 0 0 0 0 0 0 0 0 0
0 0 46 2098 2066 1789 1678 1389 1251 956 556 546 575 509 467 466 386 299 265 272 219 192 160 102 35 13 20 0 5 2 0 0 0 0 0 0 0 0 0 0 0 0 0

GFSSE_con_sbcape_105.txt.gz
CAPE
762 1096 1308 1505 1589 1479 1356 1246 1229 1316 1508 1688 1729 1783 1862 1952 1964 1956 1986 1988 2077 2064 1830 1676 2033 2036 1753 1756 2050 1787 1744 1746 1752 1768 1725 1678 1521 1570 1503 1498 1385 1067 1442
818 1246 1325 1519 1636 1565 1476 1356 1362 1418 1553 1748 1808 1764 1765 1887 1984 2082 2123 2160 2213 2160 1666 1717 2089 1871 1666 1705 1764 1642 1699 1642 1589 1697 1742 1751 1576 1358 1418 1438 1334 1193 1376
1091 1259 1356 1568 1646 1620 1635 1582 1630 1668 1674 1725 1803 1824 1882 2007 2079 2096 2122 2164 2110 2122 1795 1743 1802 1833 1754 1763 1717 1719 1705 1590 1535 1647 1753 1116 1050 1308 1374 1431 1462 1380 1538
1202 1269 1366 1507 1656 1681 1641 1655 1755 1891 1782 1747 1825 1943 2025 2146 2178 2177 2106 2056 2157 2260 1901 1924 1893 1857 1781 1712 1619 1641 1611 1465 1336 1272 930 778 993 1443 1417 1272 1323 1418 1406
1283 1321 1365 1490 1621 1671 1666 1713 1791 1844 1717 1711 1817 2073 2144 2251 2335 2296 2070 2095 2272 2329 1937 1625 1713 1741 1643 1413 1393 1366 1303 1082 946 704 721 842 938 1282 1461 1385 1278 1239 1243
1341 1378 1378 1436 1577 1699 1787 1799 1826 1737 1606 1623 1787 2092 2238 2318 2395 2247 2054 2218 2377 2353 2036 1721 1536 1559 1272 1178 1254 1134 963 761 470 482 656 1030 724 1243 1288 1223 1044 1189 1259
1213 1238 1349 1422 1582 1733 1885 1899 1845 1699 1580 1628 1801 1975 2198 2280 2293 2103 2015 2248 2309 2217 2262 1907 1624 1272 1102 1076 1092 872 667 521 299 385 399 570 803 1202 1199 1040 1017 1022 845
1180 1260 1394 1472 1637 1764 1853 1831 1786 1649 1608 1646 1774 1915 2194 2200 2040 1968 1818 1983 2097 2101 1822 1680 1289 1146 1017 1008 768 521 422 444 280 266 288 540 1069 1219 1102 751 803 790 584
1037 1193 1365 1535 1613 1684 1809 1722 1673 1605 1633 1663 1746 1830 2026 2030 1873 1869 1817 1841 1926 1921 1639 1369 1150 1050 1016 894 515 331 369 261 164 217 316 503 1216 1159 1030 612 453 301 122
826 1025 1231 1330 1562 1523 1521 1580 1556 1585 1566 1625 1667 1734 1777 1804 1762 1762 1708 1677 1500 1405 1300 1273 1027 981 902 563 250 237 203 167 108 155 159 404 1067 1065 921 377 248 90 28
837 891 1125 1288 1355 1318 1409 1432 1541 1614 1521 1593 1634 1682 1530 1513 1434 1547 1485 1485 1141 1345 1092 1028 879 738 598 316 119 149 175 95 99 79 24 471 1068 931 827 326 112 30 9
1060 864 952 1194 1072 942 1210 1414 1596 1594 1401 1207 1466 1520 1552 1256 1109 1261 1188 1333 1090 1005 890 870 648 387 239 116 75 117 107 71 30 51 57 505 680 792 664 264 64 18 11
1341 1034 1005 1065 993 965 1311 1251 1258 1271 1064 973 1074 1102 1377 1151 1012 1040 796 660 569 657 337 354 222 100 68 65 81 69 39 58 45 21 106 328 578 899 346 184 71 16 15
1706 1424 1158 976 1033 1152 1162 1261 1340 1417 993 1092 1049 1083 1185 1233 1007 847 643 243 227 137 45 35 13 24 57 37 86 39 41 47 15 11 40 140 405 961 560 148 12 0 12
1391 1799 1340 1084 1070 1154 1065 998 1136 1264 1164 1053 987 1125 1204 1420 1107 673 300 222 164 34 29 10 12 16 38 33 33 49 56 49 45 44 19 44 266 630 736 139 23 11 10
541 1792 1792 1283 1149 1123 1050 922 887 966 1004 811 904 1039 1259 1369 905 641 265 216 191 52 26 33 15 16 54 91 110 59 19 34 38 58 23 20 124 392 439 289 40 12 18
0 1352 2031 1769 1457 1287 1202 917 822 877 863 770 831 1032 1253 1105 528 400 312 262 243 68 37 32 14 35 87 133 199 125 20 40 49 32 16 13 25 83 65 120 77 29 21
0 5 1921 2221 1914 1605 1384 1239 995 898 858 895 866 1004 1178 999 393 227 205 282 194 76 35 36 45 103 222 231 176 117 46 35 35 33 22 1 1 0 0 0 12 32 47
0 0 188 2330 2169 2053 1629 1445 1249 986 921 851 871 958 1052 883 403 307 173 182 107 101 84 66 129 154 161 183 158 58 32 54 30 55 12 0 0 0 0 0 2 19 38
0 0 0 1458 2310 2254 2008 1464 1251 955 1102 939 989 954 809 854 461 350 137 119 103 135 204 208 169 140 106 89 110 38 18 25 27 28 17 1 0 0 0 0 2 17 23
0 0 0 283 2168 2182 2093 1787 1486 1340 1210 1019 1031 1013 659 801 494 419 236 183 176 161 233 267 226 161 58 17 42 34 35 22 26 36 23 0 0 0 0 0 0 1 4
0 0 0 87 1618 2063 2185 2062 1780 1547 1253 1170 1012 889 854 631 438 452 395 262 255 232 206 253 209 186 119 30 34 6 16 1 0 6 2 1 0 0 0 0 0 0 0
0 0 0 9 790 1873 2126 1996 956 694 757 824 770 966 939 649 443 334 370 373 339 369 303 278 198 157 148 101 26 8 2 0 1 2 1 1 0 0 0 0 0 0 0
0 0 0 0 643 1592 2001 1883 1446 1471 1359 1297 1198 1100 1158 834 602 493 302 357 391 383 328 242 178 129 112 70 46 6 0 0 0 1 2 1 0 0 0 0 0 0 0
0 0 0 0 242 1334 1940 1869 1568 1410 1258 964 999 966 934 748 577 533 354 331 349 353 292 188 132 94 69 64 33 10 0 0 0 0 0 2 0 0 0 0 0 0 0
0 0 0 523 743 1629 2012 1828 1539 1400 1038 888 915 983 774 540 550 478 369 357 309 311 272 211 150 92 60 19 18 5 3 0 0 0 0 0 0 0 0 0 0 0 0

GFSSE_con_sbcape_108.txt.gz
CAPE
553 1032 1363 1576 1579 1413 1285 1290 1315 1364 1680 1897 1980 1905 1809 1840 1787 1842 1907 2002 2158 2133 1919 1807 2120 2060 2193 2075 1974 1881 1832 1819 1748 1892 1852 1831 1638 1566 1462 1658 1490 1228 1547
618 1155 1408 1610 1646 1536 1393 1348 1392 1490 1712 1952 1969 1981 1904 1887 1901 1950 1972 2068 2132 2155 1704 1804 2085 1914 1810 2163 1828 1749 1786 1546 1630 1752 1836 1780 1739 1630 1546 1452 1500 1511 1597
964 1189 1403 1623 1703 1639 1578 1526 1567 1722 1829 1905 1908 1949 1994 2055 2071 2076 2089 2119 2146 2076 1901 1771 1773 1628 1708 1756 1683 1772 1688 1625 1576 1642 1600 1192 1249 1427 1520 1637 1673 1683 1583
1182 1260 1429 1514 1772 1829 1683 1664 1687 1881 1894 1841 1927 1990 2066 2139 2168 2162 2095 1983 2107 2155 2117 1805 1811 1754 1676 1629 1636 1676 1639 1559 1411 1147 777 1043 1207 1454 1413 1409 1640 1638 1437
1220 1272 1493 1618 1724 1843 1805 1803 1769 1738 1701 1767 1865 2058 2176 2224 2259 2208 1980 2002 2211 2315 2186 1973 1897 1791 1533 1396 1424 1472 1378 1150 977 751 757 958 1129 1262 1347 1439 1571 1511 1405
1279 1352 1493 1614 1719 1834 1893 1938 1876 1648 1528 1661 1847 2064 2270 2343 2344 2148 1964 2119 2310 2294 1678 1525 1833 1638 1217 1171 1186 1142 1004 863 561 468 770 1104 911 1308 1290 1312 1292 1205 1364
1351 1371 1476 1549 1714 1869 2019 2049 1913 1609 1507 1667 1889 2019 2223 2363 2316 2035 1989 2105 2170 2113 1807 1384 1750 1316 1115 1055 1031 840 672 601 337 413 714 632 908 1292 1295 1107 1137 1335 1265
1330 1322 1458 1551 1688 1845 1974 1962 1805 1597 1560 1661 1876 1993 2189 2246 2096 1980 1834 2022 1948 1977 1707 1621 1334 1178 1060 944 771 524 437 505 300 288 332 495 1230 1290 1206 1052 1072 912 803
1087 1411 1487 1589 1705 1766 1836 1801 1707 1621 1622 1661 1792 1986 2057 1996 1891 1883 1892 1810 1820 1682 1551 1331 1121 1021 1012 741 544 332 388 277 192 214 260 316 1193 1220 1099 969 835 687 511
964 1278 1362 1483 1594 1528 1586 1603 1614 1633 1612 1646 1690 1882 1880 1741 1721 1788 1713 1677 1503 1497 1407 1181 963 916 868 478 352 238 250 188 106 150 234 280 949 1260 1001 589 612 377 181
791 1045 1264 1247 1500 1475 1510 1467 1524 1575 1599 1634 1651 1701 1630 1579 1516 1615 1548 1565 1449 1326 1223 1038 872 826 655 334 287 203 171 94 74 101 119 391 909 1122 916 480 266 192 52
629 708 992 1064 1346 1464 1494 1537 1640 1673 1649 1619 1619 1550 1397 1290 1264 1458 1396 1393 1162 1029 1061 934 799 635 409 76 160 213 97 80 93 78 76 325 776 1025 783 342 230 100 32
989 735 729 975 1178 1179 1345 1385 1533 1582 1409 1324 1402 1491 1496 1152 1072 1158 1116 1047 736 806 731 730 472 368 125 26 35 38 40 13 60 92 144 338 704 1004 737 373 195 93 43
1612 1175 841 809 917 944 1050 1307 1150 1307 1151 1125 1107 1264 1294 1227 1144 940 855 587 499 363 150 201 113 40 42 40 38 32 31 30 23 42 65 170 473 857 709 304 117 61 15
1298 1775 1368 877 892 781 1095 1192 1121 1185 1344 1229 1074 964 1208 1443 1397 1165 708 479 371 52 39 21 10 19 13 34 50 61 47 49 17 22 27 46 97 547 889 481 190 27 8
35 1195 1619 1167 967 1033 1121 1030 1087 1225 1393 1287 1124 978 1032 1406 1363 1064 634 595 160 93 30 23 23 28 22 33 65 83 82 112 93 42 31 61 31 138 527 612 258 61 20
0 0 1504 1606 1183 995 989 798 836 1012 1156 1166 969 885 1041 1124 1276 1030 689 596 449 40 16 8 1 0 8 30 68 82 106 204 184 54 43 57 50 15 234 236 315 168 30
0 0 0 1753 1426 1210 1068 985 742 720 859 769 733 853 1122 1048 1012 769 642 570 395 61 15 13 1 7 18 90 106 74 109 126 113 81 88 72 29 24 51 109 119 36 36
0 0 0 827 1685 1423 1263 1133 805 787 782 811 750 704 923 1045 872 647 634 477 225 83 47 24 10 28 51 98 191 175 186 148 131 106 92 50 28 0 4 17 14 1 17
0 0 0 12 1569 1704 1678 1354 1130 863 785 797 839 735 817 900 788 768 451 333 163 110 70 40 37 71 101 103 195 162 187 117 92 108 70 47 18 20 0 0 0 0 9
0 0 0 0 34 1780 1913 1755 1612 1159 1164 966 864 859 924 934 763 700 405 218 122 125 99 63 77 75 39 33 61 54 29 38 69 44 81 42 8 0 0 0 0 0 1
0 0 0 0 0 1172 1459 1856 1767 1687 1468 1306 1086 891 842 909 696 633 470 296 149 136 153 131 110 104 65 21 33 12 5 2 9 48 45 20 15 0 0 0 0 0 0
0 0 0 0 0 434 1391 1965 1675 1573 1299 1068 969 987 927 841 729 655 534 383 247 133 218 191 163 133 122 40 51 8 6 3 1 1 31 28 12 0 0 0 0 0 0
0 0 0 0 0 459 1649 1911 1711 1585 1511 1199 1191 1102 921 808 740 707 626 404 279 261 245 193 181 154 82 106 42 41 0 0 0 0 1 1 1 0 0 0 0 0 0
0 0 0 0 0 0 1499 1747 1846 1658 1392 1241 1328 1039 970 762 744 699 595 524 422 354 297 229 184 163 87 105 83 43 17 0 0 1 1 1 1 1 0 0 0 0 0
0 0 0 0 0 0 1379 1822 1816 1598 1309 1107 1314 1156 913 1018 845 686 586 500 464 401 367 239 175 141 125 95 70 10 18 14 0 0 0 0 0 1 0 0 0 0 0

GFSSE_con_sbcape_114.txt.gz
CAPE
1312 2263 1528 1657 1695 1649 1626 1776 1817 1806 1867 1955 1867 1857 1905 1900 1914 2118 2215 2185 2336 2502 2334 2118 2110 1940 1570 1654 2057 1976 1941 1896 1840 1860 1761 1635 1578 1574 1563 1681 1431 1326 1790
1247 2419 1503 1652 1708 1755 1716 1813 1908 2065 2196 2109 1948 1954 1951 1925 2004 2174 2266 2343 2279 2501 2144 1926 2333 2014 1974 2247 2144 1863 1873 1726 1621 1670 1758 1620 1627 1573 1447 1436 1408 1570 1749
1591 2342 1976 1591 1717 1821 1863 1972 2154 2366 2468 2249 2087 2104 2070 2061 2166 2248 2253 2275 2400 2458 2099 1843 2184 2044 1923 2001 1855 1821 1834 1666 1570 1648 1697 1303 1523 1512 1459 1617 1601 1626 1741
1803 2192 2046 1556 1696 1845 1870 2016 2284 2572 2562 2300 2221 2221 2192 2204 2312 2314 2281 2258 2451 2528 2309 1771 1919 2306 1953 1739 1707 1701 1693 1590 1461 1501 1513 1256 1420 1400 1545 1436 1494 1621 1568
1956 2142 2251 1639 1684 1820 1873 2024 2300 2443 2367 2328 2264 2372 2378 2374 2422 2408 2220 2231 2491 2656 2466 1976 2091 2028 1715 1520 1551 1574 1563 1402 1335 1347 1300 1444 1343 1375 1417 1468 1531 1501 1433
2098 2257 1719 1592 1705 1872 1928 2052 2225 2253 2238 2241 2286 2460 2506 2554 2557 2399 2142 2323 2617 2654 2627 2500 2115 1765 1432 1365 1425 1391 1238 1027 925 1285 1401 1292 1200 1402 1506 1583 1375 1518 1489
2173 2364 2547 1560 1756 1912 2045 2125 2076 2058 2150 2267 2372 2439 2523 2629 2560 2254 2126 2349 2557 2644 2615 2467 1936 1520 1366 1301 1322 1167 940 809 1386 1147 1094 1423 1430 1446 1294 1308 1247 1506 1514
2403 2587 2687 1772 1819 1948 2048 2008 1827 1846 2012 2218 2357 2420 2562 2552 2333 2162 2168 2339 2419 2455 2273 2024 1593 1442 1321 1250 1121 924 788 803 1086 1157 1172 1229 1340 1422 1334 1113 1224 1179 1399
2632 2757 2788 2267 2212 1890 1988 1856 1686 1710 1860 2044 2218 2375 2480 2329 2149 2137 2229 2268 2218 1837 1724 1736 1461 1328 1312 1149 907 652 745 937 1242 1358 970 1001 1294 1287 1294 1188 1147 1327 1287
2619 2903 3027 2371 2557 2628 2525 1670 1581 1618 1735 1888 2048 2240 2286 2125 2048 2067 2138 2134 2062 1807 1747 1614 1338 1256 1208 955 683 512 656 852 1456 1079 1153 1216 1421 1331 1228 1033 1198 1112 1027
2384 2504 2515 2294 2292 2742 2841 2370 1573 1523 1634 1780 1916 1964 2085 2546 2629 2546 2170 2047 1991 1756 1645 1439 1231 1161 990 705 513 355 438 1302 1231 1116 1157 1008 1106 1186 1101 1123 1099 835 651
2364 2501 2221 2246 2143 2388 2627 2842 2686 2444 2249 2224 2170 2419 2474 2464 2533 2385 2175 1819 1565 1549 1379 1221 1106 922 875 1437 1271 503 1373 985 1087 1050 1237 815 1184 1187 1094 1016 1021 627 466
1341 2352 2314 2120 2182 2366 2689 2513 2657 2598 2571 2578 2605 2597 2441 2465 2631 2666 2543 2456 2533 1626 2231 1318 1487 1643 1404 1303 1255 1316 1148 1257 1069 1019 867 557 1124 1255 1029 777 701 482 273
223 1860 2258 2396 2291 2544 2591 2105 2256 2800 2531 2554 2658 2807 2628 2836 2751 2579 2641 2482 2423 2621 2277 1940 1740 1606 1564 1452 1387 1380 1337 1248 859 1160 1078 218 602 1201 1192 939 594 403 218
0 161 1990 2276 2323 2355 2440 2241 2096 2521 2493 2653 2554 2386 2728 2719 2543 2568 2481 2430 2495 2308 2415 2149 1904 1815 1667 1496 1477 1455 1404 1308 1083 1231 1227 215 129 452 1117 837 651 358 149
0 0 0 1534 2302 2305 2352 2428 2460 2590 2410 2443 2257 2296 2385 2575 2482 2195 2465 2528 2470 2296 2431 2352 2078 1988 1825 1679 1483 1320 1297 1298 1165 1089 1056 988 48 50 838 1019 768 512 221
0 0 0 0 1326 2469 2389 2354 2348 2290 2245 2202 2078 2594 2360 2354 2542 2189 2294 2433 2311 2689 2312 2429 2037 1820 1620 1714 1563 1311 1443 1263 1095 952 1075 961 548 41 307 464 646 357 366
0 0 0 0 0 1685 2430 2347 2187 2146 2187 2114 2148 2599 2879 2230 2537 2299 2187 2299 2537 2754 2474 2267 2019 1897 1804 1644 1591 1328 1241 1173 1098 1031 949 858 686 694 98 57 42 148 257
0 0 0 0 0 556 1766 2401 2609 2376 2259 2178 2195 2348 2577 2823 2988 2712 2370 2096 2353 2114 2322 2163 2075 2011 1745 1479 1401 1327 1409 1127 1101 917 875 850 730 501 409 102 37 34 115
0 0 0 0 0 0 718 1872 1937 2327 2551 2321 2291 2373 2554 2903 2801 2965 2313 2348 2115 1569 1747 2204 2127 1866 1893 1596 1393 1315 1316 1255 1166 1054 990 866 922 739 333 327 192 95 38
0 0 0 0 0 0 0 418 1027 1966 2146 2408 2536 2476 2492 2808 2845 2713 2137 2142 1648 1507 1588 1776 1770 1897 2024 1818 1508 1313 1321 1031 1018 937 864 846 949 662 366 232 172 149 53
0 0 0 0 0 0 0 0 717 1271 1652 1799 2369 2797 2635 2448 2498 2679 2377 2082 1607 1458 1271 1437 1345 1124 1176 1342 936 852 844 899 905 921 892 758 795 677 208 143 89 106 98
0 0 0 0 0 0 0 0 0 884 1395 1691 2279 2877 2917 2396 2394 2727 2262 1877 1488 1464 1060 1073 1318 1081 813 796 1455 919 878 572 522 762 860 760 785 588 130 85 33 68 96
0 0 0 0 0 0 0 0 0 22 954 1568 1771 2152 2554 2809 2464 2280 2097 1896 1498 1377 1110 970 1118 1342 1086 601 678 1258 903 618 481 425 448 504 735 533 124 50 46 21 75
0 0 3 3 1 2 6 6 5 5 1126 1322 2036 1943 2164 2276 1977 1910 1872 1934 1485 1509 1134 973 1010 1198 1113 937 569 655 1111 969 639 456 553 497 211 469 510 94 22 28 13
1 1 2 3 1 2 5 10 15 199 482 1442 1657 2146 2386 2306 1652 1518 1464 1587 1521 1371 1116 956 981 1176 1101 957 636 1268 959 830 793 484 407 305 347 270 189 104 33 11 3

GFSSE_con_sbcape_117.txt.gz
CAPE
944 2048 1569 1744 1881 1893 2008 2052 2049 1926 1935 2034 2018 1998 2094 2116 2154 2220 2322 2345 2508 2727 2493 2109 2116 1970 1536 1336 1713 1832 1861 1891 1948 1908 1879 1777 1615 1609 1381 1574 1459 1271 1648
948 2331 1409 1708 1905 1970 2108 2104 2043 1978 2151 2195 2122 2134 2138 2153 2257 2363 2403 2480 2669 2819 2392 2343 2135 1793 1763 2193 2153 2040 1974 1787 1684 1788 1778 1727 1611 1546 1385 1364 1455 1423 1690
1228 2848 1874 1583 1872 2002 2237 2285 2269 2301 2396 2321 2246 2276 2239 2263 2411 2474 2449 2491 2668 2757 2196 2142 2047 2038 2128 2423 1942 2015 1863 1689 1662 1739 1834 1384 1367 1521 1503 1452 1536 1666 1599
1661 2779 2165 1540 1822 1995 2193 2368 2448 2645 2549 2381 2351 2418 2368 2411 2514 2530 2479 2419 2483 2728 2183 2266 2170 2216 2116 1976 1860 1902 1796 1682 1568 1616 1541 1455 1281 1522 1525 1490 1549 1567 1651
1944 2521 2527 1567 1736 1971 2160 2400 2566 2680 2466 2339 2381 2527 2528 2577 2661 2624 2416 2463 2736 2811 2309 2027 2552 2238 1848 1699 1692 1725 1703 1525 1428 1336 1260 1458 1357 1552 1515 1490 1266 1375 1498
2145 2321 1520 1523 1666 1929 2160 2433 2573 2543 2391 2299 2342 2546 2628 2711 2737 2619 2353 2513 2849 2927 2670 2616 2448 1974 1558 1526 1577 1587 1479 1412 1239 1428 1408 1308 1284 1507 1545 1395 1416 1572 1587
2208 2528 2616 1577 1646 1893 2178 2429 2440 2399 2349 2329 2408 2503 2599 2700 2741 2452 2296 2507 2799 2867 2833 2668 2148 1662 1477 1459 1491 1374 1244 1219 1511 1147 1109 1228 1470 1642 1338 1413 1539 1363 1531
2412 2650 3169 1713 1693 1835 2022 2160 2158 2217 2283 2367 2445 2500 2657 2630 2502 2298 2280 2430 2624 2676 2582 2197 1701 1562 1463 1417 1316 1128 1100 968 1318 1207 1042 1184 1453 1419 1258 1357 1043 1314 1518
2851 2812 3397 2546 2114 1745 1845 1866 1896 2064 2221 2343 2449 2494 2611 2491 2257 2197 2260 2389 2499 2457 2255 1873 1564 1443 1424 1309 1116 938 989 884 1365 1082 1036 1124 1419 1387 1362 1326 1249 1437 1428
2854 3149 3491 2851 2595 2324 2047 1578 1597 1875 2076 2247 2299 2406 2394 2290 2139 2140 2203 2293 2387 2020 1903 1715 1435 1355 1318 1108 883 761 959 959 1492 1141 868 1241 1498 1294 1370 1245 1330 1274 1317
2554 2748 3494 2957 2820 2769 2483 2080 1472 1528 1769 1950 2195 2185 2218 2811 2740 2597 2267 2161 2138 1806 1721 1587 1325 1245 1138 873 691 558 863 1112 772 1087 698 1025 1556 1358 1286 1491 1431 1358 1218
861 2686 2974 3014 2881 3307 2707 2884 2251 2084 1969 2190 2337 2729 2805 2541 2793 2264 2113 1985 1901 1742 1598 1444 1243 1104 1000 1456 1299 528 1418 1086 821 993 1006 1114 1567 1289 1155 1019 1178 1160 952
21 2363 2766 2758 2776 2772 3138 2997 2638 2563 2356 2370 2415 2530 2487 2666 2996 2477 2826 2498 2632 1576 2327 1539 1413 1543 1418 1349 1188 1168 1063 1260 981 812 747 943 1441 1314 1094 917 892 806 750
0 1051 2731 2945 2821 2771 3270 2801 2675 2635 2885 2722 2789 3570 3238 3053 3217 3029 2622 2647 2885 2622 2420 2170 1827 1628 1891 1876 1750 1352 1298 1464 1252 1288 604 704 1111 1478 1245 943 833 651 532
0 0 1097 2674 2978 3147 3142 2937 2974 3083 2618 2739 2788 3407 3052 2690 3409 3085 2640 2839 2659 2444 2615 2446 2015 2019 1847 1590 1606 1582 1535 1563 1529 1012 1666 471 682 1007 1343 1109 944 750 557
0 0 0 36 2597 2774 3033 3241 3346 3254 2991 3000 2835 2857 3681 3185 3085 2810 2952 2377 2743 2415 2259 2590 2256 1946 1987 1747 1785 1580 1681 1287 1441 1431 1463 938 280 381 903 1271 1144 901 608
0 0 0 0 0 1603 2427 2751 3064 2695 2821 2853 2768 3450 2853 3489 3633 3192 2879 2748 2107 2431 2847 2951 2731 2314 2031 2123 1889 1767 1535 1446 1597 1444 1139 1162 544 106 188 679 797 673 631
0 0 0 0 0 0 1061 1990 2611 2745 2985 2775 2904 2637 3073 2752 3241 3215 2715 3007 2712 2712 2870 2756 2676 2499 1973 1734 1926 1930 1703 1628 1581 1472 1008 1235 890 816 99 218 318 352 64
0 0 0 0 0 0 6 1207 2219 2814 2946 2707 2604 2666 2996 2976 3326 3332 2688 2674 3336 2886 2981 2653 2417 2492 2456 2143 1978 1827 1844 1652 1582 1056 1036 1348 1015 681 601 136 43 9 123
0 0 0 0 0 0 0 29 997 1932 2522 2923 2850 2550 2824 3463 3365 3232 2724 2889 2795 2962 3075 3059 2725 2457 2255 2153 1584 1680 2016 1674 1519 1264 1172 1019 748 1072 650 631 228 68 0
0 0 0 0 0 0 0 0 23 1726 2151 2723 2842 3081 2670 3117 3639 3445 3256 3283 2958 2627 2542 2862 2854 2725 2311 2398 2089 1990 1845 1783 1690 1395 1190 771 767 851 960 852 619 258 5
0 0 0 0 0 0 0 0 0 6 1150 2272 2677 2866 3300 3430 3579 3685 3612 3331 3288 2558 1960 2202 2293 2681 2851 2767 2046 1705 1104 1202 1323 1376 1033 890 1004 821 854 997 721 409 343
0 0 0 0 0 0 1 0 0 16 7 1520 2343 2586 2998 3395 3607 3733 3706 3466 3281 2871 2504 1893 1808 1852 1920 2488 2513 1307 1008 706 913 1236 1357 1106 1099 1018 900 832 595 452 223
0 2 5 3 1 0 2 1 0 0 0 443 2095 2392 2405 3257 3482 3752 3819 3675 3328 2804 2337 1849 1648 1609 1381 1299 1752 1935 1703 920 725 678 1025 1175 1120 1123 1059 942 537 212 123
0 2 5 7 5 3 5 6 6 3 2 93 263 2328 2482 2879 3082 3572 3621 3550 3257 2749 2431 2107 1624 1518 1426 1252 1133 1726 2154 1926 1668 1030 979 625 655 652 737 960 696 267 103
0 3 7 8 7 6 6 7 8 12 6 16 302 1102 1993 2406 2679 3433 3226 3151 2824 2431 2396 2347 1838 1414 1469 1142 1074 1267 1356 1561 1463 1051 885 970 733 697 484 675 638 335 129

GFSSE_con_sbcape_120.txt.gz
CAPE
2096 1508 1616 1945 2096 2192 2226 2147 1818 1825 1954 2056 2042 2102 2158 2180 2142 2236 2403 2513 2514 2681 2718 2486 2329 2011 1331 1407 1790 1817 1838 1769 1743 1851 1821 1738 1574 1297 1423 1510 1560 1199 1653
2042 1624 1478 1836 2030 2194 2270 2237 1979 1967 2129 2189 2121 2193 2138 2169 2206 2337 2360 2488 2752 2800 2509 2329 2337 1912 1767 1982 2063 1885 1774 1612 1584 1714 1827 1726 1484 1358 1418 1288 1499 1432 1623
1731 1995 1630 1703 1968 2215 2367 2385 2244 2240 2333 2296 2188 2221 2227 2316 2388 2424 2398 2488 2755 2936 2734 2430 2245 1988 2419 2246 1873 1857 1724 1571 1537 1584 1837 1069 1251 1539 1636 1538 1596 1729 1730
1952 2344 1892 1687 1912 2165 2322 2410 2387 2516 2494 2370 2322 2359 2357 2466 2533 2519 2458 2435 2623 2792 2393 2320 2234 2487 2547 1964 1830 1834 1676 1575 1481 1471 1358 1096 979 1650 1541 1556 1597 1717 1728
1941 3054 2301 1691 1851 2099 2267 2399 2460 2537 2434 2350 2374 2503 2521 2607 2688 2634 2410 2324 2705 2709 2476 2509 2614 2515 1990 1723 1731 1714 1641 1496 1340 1205 1029 1161 990 1498 1580 1609 1510 1606 1584
2164 2815 1251 1613 1777 2066 2342 2484 2558 2498 2320 2278 2384 2547 2621 2734 2785 2677 2381 2507 2944 2892 2633 2662 2722 2024 1608 1529 1597 1618 1483 1354 1162 890 1006 1242 1220 1413 1477 1568 1506 1542 1565
2882 2672 1935 1567 1697 1984 2402 2592 2559 2374 2237 2261 2411 2536 2631 2736 2778 2514 2343 2551 2854 2916 2867 2685 2270 1675 1500 1456 1530 1486 1360 1235 1020 428 894 1081 1109 1563 1311 1656 1554 1432 1560
3302 3415 2072 1612 1689 1859 2213 2412 2351 2273 2216 2256 2364 2477 2658 2676 2620 2347 2292 2426 2651 2693 2615 2270 1802 1572 1470 1441 1418 1315 1227 1073 919 810 773 973 1221 1583 1311 1507 1210 1177 1560
3385 3787 3165 2292 1851 1646 1906 2079 2147 2182 2212 2222 2322 2443 2588 2511 2376 2237 2290 2377 2504 2533 2406 1924 1578 1467 1451 1386 1246 1108 1098 936 775 826 810 1077 1552 1427 1356 1278 1479 1472 1478
2934 3703 3728 2950 2310 2053 1917 1624 1848 2017 2130 2236 2253 2346 2422 2326 2239 2178 2213 2314 2388 2347 2202 1772 1449 1389 1381 1230 1056 952 1010 803 749 703 731 1252 1462 1608 1378 1257 1416 1461 1385
2947 3256 3979 3207 2794 2351 1964 1754 1471 1741 1951 2106 2202 2206 1994 2486 2329 2160 2281 2226 2344 2024 1943 1671 1366 1296 1218 1023 866 784 885 1034 843 507 688 1004 1577 1716 1381 1426 1489 1413 1355
673 3213 3457 3317 2921 2966 2182 2085 1851 1890 2045 2318 2468 2355 2617 2716 2676 2480 2307 1942 2127 1801 1680 1538 1308 1192 1039 1130 774 610 1012 1123 954 582 748 951 1702 1745 1473 1478 1113 1404 1270
0 2412 3200 3025 2537 3096 2860 2552 1963 1946 1814 2124 2392 2668 2704 2694 2696 2118 2203 1918 1996 1580 1732 1393 1126 1215 1297 1321 1262 1150 1135 1115 944 693 908 1109 1612 1778 1347 1113 1263 1179 1079
0 0 2959 2967 2496 2415 3066 2921 2466 2239 2116 2087 2155 2549 2424 2572 2583 2096 2362 2321 2338 2043 2247 1917 1601 1391 1358 1283 1308 1130 989 890 1072 847 775 1034 1483 1786 1442 1081 1032 938 776
0 0 1451 2908 2586 2479 2598 2226 2502 2359 2287 2429 2425 2523 2614 2334 2538 2595 2178 2489 2281 2366 2167 2172 1850 1523 1476 1482 1495 1401 1224 1286 1326 672 594 789 1054 1551 1778 1343 1062 705 547
0 0 0 7 2507 2374 2409 2115 2588 2338 2575 2667 2647 2700 2752 2617 2551 2503 2408 2566 2399 2291 2340 2159 2150 1789 1623 1619 1597 1437 1251 1258 1362 1147 873 355 791 1006 1306 1645 1441 1000 772
0 0 0 0 0 971 2199 2018 2179 2249 2242 2421 2438 3009 2835 2793 2814 2787 2588 2368 2424 2268 2391 2164 2290 2037 1847 1664 1627 1485 1476 1580 1408 1206 1244 828 284 493 660 1121 1357 1280 787
0 0 0 0 0 0 3 1752 1673 1879 2067 2274 2480 2416 2768 3002 3090 2618 2463 2715 2691 2437 2329 2213 2173 2249 1828 1792 1708 1582 1537 1514 1431 1254 1120 1162 691 371 116 399 729 792 454
0 0 0 0 0 0 0 0 55 1776 1742 2121 2259 2364 2801 2624 2576 2938 2586 2344 2582 2837 2442 2447 2296 2341 2124 1836 1694 1691 1645 1528 1379 1233 1084 870 872 750 272 123 300 379 23
0 0 0 0 0 0 0 0 0 0 1977 2185 2224 2009 2377 2630 2313 2307 2799 2420 2206 2550 2741 2451 2395 2298 2263 1941 1772 1691 1707 1523 1395 1185 1011 954 925 562 354 124 21 36 63
0 0 0 0 0 0 0 0 0 0 32 1985 2306 2323 2249 2359 2557 2345 2497 2601 2362 2032 2445 2638 2434 2239 2162 2032 1931 1621 1621 1486 1393 1208 1052 882 764 624 502 103 28 67 0
0 0 0 0 0 0 0 0 0 0 0 0 1444 2304 2426 2326 2564 2673 2523 2431 2461 2057 2100 2763 2597 2254 2158 2062 1745 1477 1574 1543 1396 1196 1049 1005 765 607 545 425 308 93 36
0 0 0 0 0 0 0 0 0 0 0 0 0 432 2359 2433 2293 2869 2689 2380 2466 2370 2103 2263 2360 2313 1986 2025 1778 1368 1055 826 874 1033 1163 974 757 688 504 451 362 230 177
0 0 0 0 0 0 1 1 2 0 0 0 0 0 1501 2287 2432 2612 2824 2792 2609 2634 2343 2174 2001 1886 2007 2045 1880 1563 1102 904 442 1022 988 894 696 665 591 551 347 256 211
0 0 0 0 0 0 3 6 4 5 0 0 0 0 1 651 2081 2292 2251 2538 2785 2436 2451 1939 1696 1655 1820 1676 1899 1566 1514 1312 1148 928 662 859 843 640 654 597 478 252 157
0 0 1 0 4 2 0 0 5 2 1 2 0 0 0 54 993 1928 1943 2237 2605 2443 1682 791 1517 1548 1577 1516 1426 1368 1384 1423 1211 1017 871 514 452 545 442 545 543 365 124

GFSSE_con_sbcape_123.txt.gz
CAPE
1564 1523 1776 2038 2198 2178 1861 1686 1708 1760 1861 1924 1959 2035 2028 2089 2120 2059 2237 2409 2630 2647 2176 1854 2111 1896 1683 1780 1744 1471 1446 1583 1582 1830 1884 1872 1506 1416 1606 1805 1543 1420 1650
1569 1499 1708 1945 2131 2262 2193 1823 1774 1897 2054 2104 2091 2034 1996 2058 2172 2226 2296 2439 2583 2853 2433 2216 2133 1789 1657 1914 1831 1775 1652 1570 1488 1521 1663 1671 1742 1470 1668 1670 1570 1579 1659
1809 1611 1749 1852 2105 2262 2390 2119 2044 2174 2288 2232 2188 2088 2129 2188 2257 2265 2285 2429 2722 2833 2484 2284 2123 1832 2160 1888 1735 1756 1663 1584 1626 1633 1576 1117 1441 1755 1767 1481 1573 1804 1648
1967 1644 1721 1766 2051 2221 2292 2266 2204 2417 2475 2309 2290 2240 2275 2336 2333 2296 2215 2304 2701 2878 2679 2458 2137 2318 2458 1722 1714 1662 1620 1518 1426 1578 1047 1061 1251 1691 1654 1690 1580 1849 1707
2175 1819 1810 1715 1934 2163 2241 2302 2278 2419 2328 2282 2314 2424 2485 2536 2541 2452 2176 2283 2737 2764 2663 2440 2540 2443 1948 1602 1663 1586 1550 1434 1254 1129 1016 1047 1179 1600 1584 1703 1762 1853 1602
2279 2064 1520 1701 1853 2135 2268 2354 2377 2359 2190 2175 2289 2471 2648 2722 2707 2437 2162 2406 2774 2740 2712 2909 2726 1928 1541 1503 1599 1572 1365 1374 742 747 770 1307 1219 1611 1572 1711 1613 1635 1668
2102 1695 1520 1667 1815 2114 2356 2451 2482 2308 2134 2161 2306 2403 2558 2723 2678 2274 2177 2462 2724 2651 2698 2657 2123 1548 1399 1408 1534 1506 1339 1151 121 4 491 1005 1188 1803 1545 1626 1731 1625 1533
2536 1848 1603 1660 1798 2035 2331 2447 2412 2199 2082 2138 2265 2348 2491 2548 2433 2190 2196 2395 2595 2537 2560 2188 1810 1436 1343 1367 1457 1395 1290 922 17 0 0 782 1325 1827 1571 1642 1244 1141 1336
2767 2005 1603 1686 1748 1844 2152 2296 2253 2133 2091 2101 2206 2306 2405 2395 2301 2181 2233 2322 2411 2432 2280 1909 1560 1405 1352 1370 1351 1218 1100 950 519 349 554 689 1494 1807 1557 1385 1418 1347 1348
2453 2798 1997 1657 1555 1439 1675 2033 2076 2062 2059 2060 2141 2203 2281 2210 2147 2117 2172 2284 2323 2287 2066 1678 1421 1364 1335 1268 1186 1056 955 855 695 557 850 872 1525 1774 1453 1566 1526 1373 1357
2206 2763 2517 2005 1722 1526 1409 1556 1797 1953 2012 2028 2051 2099 1851 1973 1936 1960 2006 2171 2183 2139 1985 1590 1308 1292 1248 1154 1035 912 841 671 691 581 195 1062 1430 1778 1583 1864 1674 1500 1373
1154 2582 2830 2388 1951 1668 1752 1424 1370 1615 1690 1797 1984 1884 1877 1920 1835 1995 1936 2015 2122 1912 1834 1519 1248 1185 1133 862 767 793 706 773 516 677 614 920 1571 1933 1611 1536 1605 1483 1285
0 2682 2791 2652 2437 2299 1872 1308 1272 1304 1491 1766 1989 1820 2017 2028 1962 1925 1799 1635 1608 1519 1345 1277 1109 994 1043 1006 923 760 799 839 539 624 668 861 1470 2055 1687 1509 1403 1358 1126
0 0 2745 2557 2378 1907 2284 1779 1268 1367 1250 1577 1862 2011 2076 2115 2093 1900 1729 1535 1585 1435 1344 1250 1005 979 1083 1066 1011 991 889 690 396 449 576 898 1250 1865 1796 1356 1363 1283 838
0 0 2157 2372 2229 2149 1983 1640 1947 1545 1351 1509 1577 1985 2103 2036 1817 1739 1664 1648 1726 1486 1636 1376 1194 1096 1121 1030 1023 869 857 610 729 691 638 977 1174 1421 1876 1412 1303 1220 880
0 0 0 0 123 1396 1629 1149 1250 1553 1779 1443 1537 1744 2081 1918 1730 1815 1276 1854 1793 1685 1639 1646 1404 1148 1035 1021 1126 1016 674 770 711 604 423 484 1085 1365 1672 1775 1606 1251 866
0 0 0 0 0 0 0 32 891 1014 1279 1244 1680 1741 1969 2056 1735 1962 1671 1767 1793 1713 1696 1584 1514 1262 1090 1005 1205 1056 1007 855 801 845 582 329 506 896 1277 1498 1481 1447 1285
0 0 0 0 0 0 0 0 0 0 446 1050 1056 1551 2093 2093 1963 1708 1935 1655 1808 1669 1722 1608 1629 1480 1309 1281 1215 1264 1073 1045 1062 782 749 538 290 442 473 1035 1167 1120 1098
0 0 0 0 0 0 0 0 0 0 0 289 1008 1277 1431 1669 1919 1940 1956 1824 1586 1700 1699 1683 1644 1626 1484 1270 1290 1099 1045 1065 1018 925 723 766 332 275 231 231 662 812 766
0 0 0 0 0 0 0 0 0 0 0 0 307 976 1196 1412 1738 1762 1934 1610 1779 1758 1509 1581 1473 1563 1570 1361 1434 1456 1104 1010 960 840 863 585 642 422 236 143 92 180 244
0 0 0 0 0 0 0 0 0 0 0 0 0 1 1056 1184 1452 1570 1723 1773 1522 1729 1745 1447 1531 1570 1531 1333 1191 988 1024 1048 1027 822 620 627 721 509 317 166 57 65 11
0 0 0 0 0 0 0 0 0 0 0 0 0 0 0 162 1418 1600 1297 1480 1904 1687 1302 1519 1627 1644 1626 1388 1257 1104 1343 1265 997 849 597 662 636 437 301 124 51 22 0
0 0 0 0 0 0 0 0 0 0 0 0 0 0 0 0 497 1425 1392 1329 1644 1816 1363 1495 1755 1649 1558 1358 1106 907 873 972 821 683 825 674 519 465 439 173 44 17 0
0 0 0 0 0 0 0 0 0 0 0 0 0 0 0 0 0 62 1359 1542 1364 1639 1820 1200 1748 1731 1406 1379 1138 980 384 262 467 674 591 914 362 314 237 245 145 65 13
0 0 0 0 0 0 0 0 0 0 0 0 0 0 0 0 0 0 117 1218 1668 1468 1897 1434 1296 1619 1277 1325 1390 1257 828 397 408 346 608 601 300 273 235 223 242 170 82
0 0 0 0 0 0 0 0 0 0 1 1 0 0 0 0 0 0 0 224 1153 1632 1618 1729 1520 1300 1252 1003 1252 1302 1305 1013 672 493 300 410 643 282 361 234 187 161 119

GFSSE_con_sbcape_126.txt.gz
CAPE
1433 1588 1901 2052 1989 1842 1741 1703 1656 1680 1765 1924 1969 2080 2116 2046 2132 2310 2415 2433 2434 2443 2089 1918 1974 2042 1707 1656 1687 1633 1628 1704 1880 1965 1895 1906 1627 1617 1743 1861 1669 1516 1688
1374 1604 1830 2085 2144 2000 1854 1805 1770 1860 1988 2087 2028 1985 2079 2017 2149 2295 2489 2627 2637 2501 1899 1923 2012 1798 1777 1608 1708 1633 1633 1591 1662 1871 1822 1733 1715 1880 1641 1766 1659 1581 1750
1517 1669 1791 1998 2188 2214 2060 1994 2038 2179 2235 2240 2104 2037 2182 2254 2181 2313 2405 2554 2873 2897 2379 2252 2092 1995 1784 1787 1464 1438 1613 1564 1552 1670 1582 1248 1497 1867 1659 1731 1619 1793 1771
1551 1657 1792 1949 2116 2250 2105 2078 2145 2397 2365 2296 2214 2212 2266 2364 2372 2303 2271 2413 2784 3040 2565 2303 2197 2348 2066 1784 1561 1525 1566 1600 1410 1326 1012 1061 1337 1934 1658 1609 1733 1554 1641
1713 1576 1807 1892 2064 2188 2212 2103 2177 2336 2239 2241 2222 2371 2424 2467 2473 2347 2175 2424 2803 2985 2795 2522 2500 2495 1833 1550 1515 1444 1488 1380 1015 1103 775 933 1342 1646 1703 1647 1716 1717 1709
1807 1752 1565 1740 1955 2141 2232 2196 2189 2186 2066 2068 2155 2410 2558 2599 2577 2307 2115 2538 2747 2899 3055 2969 2760 2033 1569 1470 1479 1336 1342 1132 708 748 855 1216 1263 1736 1713 1708 1586 1633 1320
1826 1601 1469 1606 1869 2106 2305 2306 2244 2141 1995 2021 2138 2287 2504 2582 2479 2158 2076 2432 2547 2597 2771 2874 2039 1660 1460 1441 1482 1146 1170 893 3 376 502 991 1180 1754 1689 1688 1686 1238 1729
2068 1613 1491 1462 1801 1999 2226 2299 2244 2122 1989 1989 2103 2193 2443 2407 2170 2025 2054 2323 2349 2327 2412 2300 1740 1495 1408 1393 1436 1308 1063 570 2 5 211 802 1301 1586 1532 1653 1568 1445 1485
1974 1614 1537 1551 1653 1924 2090 2196 2219 2049 1981 1956 2010 2081 2293 2224 2021 1932 2039 2203 2297 2244 2236 1921 1631 1387 1362 1352 1302 1200 1147 673 24 0 127 751 1549 1853 1625 1601 1523 1547 1467
2170 1671 1480 1393 1488 1590 1790 2063 2094 1979 1896 1839 1879 1947 2045 2003 1922 1872 1940 2091 2200 2183 2110 1763 1451 1341 1318 1237 1108 1081 1084 906 637 500 463 614 1445 1886 1719 1609 1392 1481 1395
2341 2357 1646 1399 1327 1260 1370 1595 1846 1959 1879 1760 1792 1828 1698 1878 1778 1728 1742 1898 2016 2042 1917 1542 1265 1225 1186 1095 949 851 926 692 540 483 538 782 1596 1674 1712 1824 1690 1586 1328
26 2164 2195 1751 1496 1240 1490 1424 1478 1665 1840 1839 1770 1710 1780 1738 1668 1755 1666 1672 1786 1728 1735 1402 1134 1080 1021 781 740 719 611 586 596 540 181 852 1603 1947 1739 1852 1669 1575 1402
0 1376 2486 2159 1594 1371 1451 1171 1110 1243 1460 1260 1539 1703 1494 1710 1559 1622 1512 1435 1422 1300 1404 1185 948 855 782 605 519 470 495 598 560 295 257 609 1373 1966 1781 1699 1618 1462 1238
0 0 0 39 878 1461 1708 1241 1057 1148 1136 1334 1380 1367 1369 1677 1674 1654 1592 1455 1399 1332 1223 1169 983 874 780 697 597 533 502 531 486 362 266 490 1023 1634 1861 1665 1579 1392 1285
0 0 0 0 0 0 0 187 1129 1048 1025 1143 1512 1705 1698 1730 1767 1643 1609 1336 1424 1302 1117 933 847 768 780 758 714 662 594 430 394 422 327 578 874 1202 1943 1714 1568 1422 1209
0 0 0 0 0 0 0 0 0 78 661 838 1168 1657 1670 1724 1770 1965 1621 1405 1378 1328 1190 1068 964 884 861 746 704 648 701 371 482 516 463 505 652 1044 1435 1919 1802 1566 1193
0 0 0 0 0 0 0 0 0 0 0 19 956 1277 1376 1365 1628 1655 1502 1530 1514 1360 1240 1168 1012 879 749 614 697 633 619 419 555 492 455 527 563 673 975 1410 1548 1693 1569
0 0 0 0 0 0 0 0 0 0 0 0 1 26 572 853 931 1108 1464 1337 1545 1358 1270 1219 1215 1050 836 625 652 682 605 495 421 559 428 274 297 490 371 903 1194 1281 1219
0 0 0 0 0 0 0 0 0 0 0 0 0 0 0 192 924 580 1252 1341 1076 1270 1412 1264 1152 1136 1002 830 708 688 622 566 530 493 598 341 181 270 345 377 793 987 948
0 0 0 0 0 0 0 0 0 0 0 0 0 0 0 0 2 222 656 949 643 1221 1149 1360 1243 1151 1110 1031 982 767 519 540 545 478 439 566 292 219 194 202 290 455 565
0 0 0 0 0 0 0 0 0 0 0 0 0 0 0 0 0 0 368 1 310 1159 1219 1234 1248 1235 1230 1110 937 524 432 420 579 577 516 367 505 293 153 128 137 221 184
0 0 0 0 0 0 0 0 0 0 0 0 0 0 0 0 0 0 0 465 113 914 1052 842 1017 1163 1192 825 1036 820 843 667 416 593 589 503 370 460 288 152 86 99 126
0 0 0 0 0 0 0 0 0 0 0 0 0 0 0 0 0 0 0 0 200 17 71 822 1139 1042 875 988 808 525 575 818 593 325 549 572 449 354 305 219 91 76 64
0 0 0 0 0 0 0 0 0 0 0 0 0 0 0 0 0 0 0 0 0 291 380 722 1017 1088 938 848 866 759 103 118 628 384 299 615 506 436 249 135 82 55 22
0 0 0 0 0 0 0 0 0 0 0 0 0 0 0 0 0 0 0 0 0 0 373 646 931 808 939 902 818 606 292 35 54 88 323 643 554 518 404 193 137 35 0
0 0 0 0 0 0 0 0 0 0 0 0 0 0 0 0 0 0 0 0 2 0 0 328 613 921 837 826 910 791 602 347 190 122 35 293 611 501 368 211 166 127 45